[[{"header":{"parameterUnit":"m.s-1","parameterCategory":1,"la1":31.0,"la2":29.5877,"lo1":-88.7671,"lo2":-86.6584,"dy":0.0162,"dx":0.0185,"nx":115,"ny":88,"refTime":"2023-03-17T06:00:00:Z","depth":0,"parameterNumber":2,"parameterNumberName":"U-component_of_WINDS"},"data":[0.0,0.0,0.0,0.0,0.0,0.0,0.0,0.0,0.0,0.0,0.0,0.0,0.0,0.0,0.0,0.0,0.0,0.0,0.0,0.0,0.0,0.0,0.0,0.0,0.0,0.0,0.0,0.0,0.0,0.0,0.0,0.0,0.0,0.0,0.0,0.0,0.0,0.0,0.0,0.0,0.0,0.0,0.0,0.0,0.0,0.0,0.0,0.0,0.0,0.0,0.0,0.0,0.0,0.0,0.0,0.0,0.0,0.0,0.0,0.0,0.0,0.0,0.0,0.0,0.0,0.0,0.0,0.0,0.0,0.0,0.0,0.0,0.0,0.0,0.0,0.0,0.0,0.0,0.0,0.0,0.0,0.0,0.0,0.0,0.0,0.0,0.0,0.0,0.0,0.0,0.0,0.0,0.0,0.0,0.0,0.0,0.0,0.0,0.0,0.0,0.0,0.0,0.0,0.0,0.0,0.0,0.0,0.0,0.0,0.0,0.0,0.0,0.0,0.0,0.0,0.0,0.0,0.0,0.0,0.0,0.0,0.0,0.0,0.0,0.0,0.0,0.0,0.0,0.0,0.0,0.0,0.0,0.0,0.0,0.0,0.0,0.0,0.0,0.0,0.0,0.0,0.0,0.0,0.0,0.0,0.0,0.0,0.0,0.0,0.0,0.0,0.0,0.0,0.0,0.0,0.0,0.0,0.0,0.0,0.0,0.0,0.0,0.0,0.0,0.0,0.0,0.0,0.0,0.0,0.0,0.0,0.0,0.0,0.0,0.0,0.0,0.0,0.0,0.0,0.0,0.0,0.0,0.0,0.0,0.0,0.0,0.0,0.0,0.0,0.0,0.0,0.0,0.0,0.0,0.0,0.0,0.0,0.0,0.0,0.0,0.0,0.0,0.0,0.0,0.0,0.0,0.0,0.0,0.0,0.0,0.0,0.0,0.0,0.0,0.0,0.0,0.0,0.0,0.0,0.0,0.0,0.0,0.0,0.0,0.0,0.0,0.0,0.0,0.0,0.0,0.0,0.0,0.0,0.0,0.0,0.0,0.0,0.0,0.0,0.0,0.0,0.0,0.0,0.0,0.0,0.0,0.0,0.0,0.0,0.0,0.0,0.0,0.0,0.0,0.0,0.0,0.0,0.0,0.0,0.0,0.0,0.0,0.0,0.0,0.0,0.0,0.0,0.0,0.0,0.0,0.0,0.0,0.0,0.0,0.0,0.0,0.0,0.0,0.0,0.0,0.0,0.0,0.0,0.0,0.0,0.0,0.0,0.0,0.0,0.0,0.0,0.0,0.0,0.0,0.0,0.0,0.0,0.0,0.0,0.0,0.0,0.0,0.0,0.0,0.0,0.0,0.0,0.0,0.0,0.0,0.0,0.0,0.0,0.0,0.0,0.0,0.0,0.0,0.0,0.0,0.0,0.0,0.0,0.0,0.0,0.0,0.0,0.0,0.0,0.0,0.0,0.0,0.0,0.0,0.0,0.0,0.0,0.0,0.0,0.0,0.0,0.0,0.0,0.0,0.0,0.0,0.0,0.0,0.0,0.0,0.0,0.0,0.0,0.0,0.0,0.0,0.0,0.0,0.0,0.0,0.0,0.0,0.0,0.0,0.0,0.0,0.0,0.0,0.0,0.0,0.0,0.0,0.0,0.0,0.0,0.0,0.0,0.0,0.0,0.0,0.0,0.0,0.0,0.0,0.0,0.0,0.0,0.0,0.0,0.0,0.0,0.0,0.0,0.0,0.0,0.0,0.0,0.0,0.0,0.0,0.0,0.0,0.0,0.0,0.0,0.0,0.0,0.0,0.0,0.0,0.0,0.0,0.0,0.0,0.0,0.0,0.0,0.0,0.0,0.0,0.0,0.0,0.0,0.0,0.0,0.0,0.0,0.0,0.0,0.0,0.0,0.0,0.0,0.0,0.0,0.0,0.0,0.0,0.0,0.0,0.0,0.0,0.0,0.0,0.0,0.0,0.0,0.0,0.0,0.0,0.0,0.0,0.0,0.0,0.0,0.0,0.0,0.0,0.0,0.0,0.0,0.0,0.0,0.0,0.0,0.0,0.0,0.0,0.0,0.0,0.0,0.0,0.0,0.0,0.0,0.0,0.0,0.0,0.0,0.0,0.0,0.0,0.0,0.0,0.0,0.0,0.0,0.0,0.0,0.0,0.0,0.0,0.0,0.0,0.0,0.0,0.0,0.0,0.0,0.0,0.0,0.0,0.0,0.0,0.0,0.0,0.0,0.0,0.0,0.0,0.0,0.0,0.0,0.0,0.0,0.0,0.0,0.0,0.0,0.0,0.0,0.0,0.0,0.0,0.0,0.0,0.0,0.0,0.0,0.0,0.0,0.0,0.0,0.0,0.0,0.0,0.0,0.0,0.0,0.0,0.0,0.0,0.0,0.0,0.0,0.0,0.0,0.0,0.0,0.0,0.0,0.0,0.0,0.0,0.0,0.0,0.0,0.0,0.0,0.0,0.0,0.0,0.0,0.0,0.0,0.0,0.0,0.0,0.0,0.0,0.0,0.0,0.0,0.0,0.0,0.0,0.0,0.0,0.0,0.0,0.0,0.0,0.0,0.0,0.0,0.0,0.0,0.0,0.0,0.0,0.0,0.0,0.0,0.0,0.0,0.0,0.0,0.0,0.0,0.0,0.0,0.0,0.0,0.0,0.0,0.0,0.0,0.0,0.0,0.0,0.0,0.0,0.0,0.0,0.0,0.0,0.0,0.0,0.0,0.0,0.0,0.0,0.0,0.0,0.0,0.0,0.0,0.0,0.0,0.0,0.0,0.0,0.0,0.0,0.0,0.0,0.0,0.0,0.0,0.0,0.0,0.0,0.0,0.0,0.0,0.0,0.0,0.0,0.0,0.0,0.0,0.0,0.0,0.0,0.0,0.0,0.0,0.0,0.0,0.0,0.0,0.0,0.0,0.0,0.0,0.0,0.0,0.0,0.0,0.0,0.0,0.0,0.0,0.0,0.0,0.0,0.0,0.0,0.0,0.0,0.0,0.0,0.0,0.0,0.0,0.0,0.0,0.0,0.0,0.0,0.0,0.0,0.0,0.0,0.0,0.0,0.0,0.0,0.0,0.0,0.0,0.0,0.0,0.0,0.0,0.0,0.0,0.0,0.0,0.0,0.0,0.0,0.0,0.0,0.0,0.0,0.0,0.0,0.0,0.0,0.0,0.0,0.0,0.0,0.0,0.0,0.0,0.0,0.0,0.0,0.0,0.0,0.0,0.0,0.0,0.0,0.0,0.0,0.0,0.0,0.0,0.0,0.0,0.0,0.0,0.0,0.0,0.0,0.0,0.0,0.0,0.0,0.0,0.0,0.0,0.0,0.0,0.0,0.0,0.0,0.0,0.0,0.0,0.0,0.0,0.0,0.0,0.0,0.0,0.0,0.0,0.0,0.0,0.0,0.0,0.0,0.0,0.0,0.0,0.0,0.0,0.0,0.0,0.0,0.0,0.0,0.0,0.0,0.0,0.0,0.0,0.0,0.0,0.0,0.0,0.0,0.0,0.0,0.0,0.0,0.0,0.0,0.0,0.0,0.0,0.0,0.0,0.0,0.0,0.0,0.0,0.0,0.0,0.0,0.0,0.0,0.0,0.0,0.0,0.0,0.0,0.0,0.0,0.0,0.0,0.0,0.0,0.0,0.0,0.0,0.0,0.0,0.0,0.0,0.0,0.0,0.0,0.0,0.0,0.0,0.0,0.0,0.0,0.0,0.0,0.0,0.0,0.0,0.0,0.0,0.0,0.0,0.0,0.0,0.0,0.0,0.0,0.0,0.0,0.0,0.0,0.0,0.0,0.0,0.0,0.0,0.0,0.0,0.0,0.0,0.0,0.0,0.0,0.0,0.0,0.0,0.0,0.0,0.0,0.0,0.0,0.0,0.0,0.0,0.0,0.0,0.0,0.0,0.0,0.0,0.0,0.0,0.0,0.0,0.0,0.0,0.0,0.0,0.0,0.0,0.0,0.0,0.0,0.0,0.0,0.0,0.0,0.0,0.0,0.0,0.0,0.0,0.0,0.0,0.0,0.0,0.0,0.0,0.0,0.0,0.0,0.0,0.0,0.0,0.0,0.0,0.0,0.0,0.0,0.0,0.0,0.0,0.0,0.0,0.0,0.0,0.0,0.0,0.0,0.0,0.0,0.0,0.0,0.0,0.0,0.0,0.0,0.0,0.0,0.0,0.0,0.0,0.0,0.0,0.0,0.0,0.0,0.0,0.0,0.0,0.0,0.0,0.0,0.0,0.0,0.0,2.8502,0.0,0.0,0.0,0.0,0.0,0.0,0.0,0.0,0.0,0.0,0.0,0.0,0.0,0.0,0.0,0.0,0.0,0.0,0.0,0.0,0.0,0.0,0.0,0.0,0.0,0.0,0.0,0.0,0.0,0.0,0.0,0.0,0.0,0.0,0.0,0.0,0.0,0.0,0.0,0.0,0.0,0.0,0.0,0.0,0.0,0.0,0.0,0.0,0.0,0.0,0.0,0.0,0.0,0.0,0.0,0.0,0.0,0.0,0.0,0.0,0.0,0.0,0.0,0.0,0.0,0.0,0.0,0.0,0.0,0.0,0.0,0.0,0.0,0.0,0.0,0.0,0.0,0.0,0.0,0.0,0.0,0.0,0.0,0.0,0.0,0.0,0.0,0.0,0.0,0.0,0.0,0.0,0.0,0.0,0.0,0.0,0.0,0.0,0.0,0.0,0.0,0.0,0.0,0.0,0.0,0.0,0.0,0.0,0.0,0.0,3.0827,3.1238,3.1236,3.1062,3.0631,0.0,0.0,0.0,0.0,0.0,0.0,0.0,0.0,0.0,0.0,0.0,0.0,0.0,0.0,0.0,0.0,0.0,0.0,0.0,0.0,0.0,0.0,0.0,0.0,0.0,0.0,0.0,0.0,0.0,0.0,0.0,0.0,0.0,0.0,0.0,0.0,0.0,0.0,0.0,0.0,0.0,0.0,0.0,0.0,0.0,0.0,0.0,0.0,0.0,0.0,0.0,0.0,0.0,0.0,0.0,0.0,0.0,0.0,0.0,0.0,0.0,0.0,0.0,0.0,0.0,0.0,0.0,0.0,0.0,0.0,0.0,0.0,0.0,0.0,0.0,0.0,0.0,0.0,0.0,0.0,0.0,0.0,0.0,0.0,0.0,0.0,0.0,0.0,0.0,0.0,0.0,0.0,0.0,0.0,0.0,0.0,0.0,0.0,0.0,0.0,0.0,0.0,0.0,0.0,0.0,0.0,0.0,0.0,0.0,0.0,0.0,0.0,3.1823,3.1866,3.1991,0.0,0.0,0.0,0.0,0.0,0.0,0.0,0.0,0.0,0.0,0.0,0.0,0.0,0.0,0.0,0.0,0.0,0.0,0.0,0.0,0.0,0.0,0.0,0.0,0.0,0.0,0.0,0.0,0.0,0.0,0.0,0.0,0.0,0.0,0.0,0.0,0.0,0.0,0.0,0.0,0.0,0.0,0.0,0.0,0.0,0.0,0.0,0.0,0.0,0.0,0.0,0.0,0.0,0.0,0.0,0.0,0.0,0.0,0.0,0.0,0.0,0.0,0.0,0.0,0.0,0.0,0.0,0.0,0.0,0.0,0.0,0.0,0.0,0.0,0.0,0.0,0.0,0.0,0.0,0.0,0.0,0.0,0.0,0.0,0.0,0.0,0.0,0.0,0.0,0.0,0.0,0.0,0.0,0.0,0.0,0.0,0.0,0.0,0.0,0.0,0.0,0.0,0.0,0.0,0.0,0.0,0.0,0.0,0.0,0.0,3.0007,3.0039,3.0074,0.0,3.0988,0.0,0.0,0.0,0.0,0.0,0.0,0.0,0.0,0.0,0.0,0.0,0.0,0.0,0.0,0.0,0.0,0.0,0.0,0.0,0.0,0.0,0.0,0.0,0.0,0.0,0.0,0.0,0.0,0.0,0.0,0.0,0.0,0.0,0.0,0.0,0.0,0.0,0.0,0.0,0.0,0.0,0.0,0.0,0.0,0.0,0.0,0.0,0.0,0.0,0.0,0.0,0.0,0.0,0.0,0.0,0.0,0.0,0.0,0.0,0.0,0.0,0.0,0.0,0.0,0.0,0.0,0.0,0.0,0.0,0.0,0.0,0.0,0.0,0.0,0.0,0.0,0.0,0.0,0.0,0.0,0.0,0.0,0.0,0.0,0.0,0.0,0.0,0.0,0.0,0.0,0.0,0.0,0.0,0.0,0.0,0.0,0.0,0.0,0.0,0.0,0.0,0.0,0.0,0.0,0.0,0.0,0.0,0.0,0.0,0.0,3.1823,3.267,3.2671,3.2799,0.0,0.0,0.0,0.0,0.0,0.0,0.0,0.0,0.0,0.0,0.0,0.0,0.0,0.0,0.0,0.0,0.0,0.0,0.0,0.0,0.0,0.0,0.0,0.0,0.0,0.0,0.0,0.0,0.0,0.0,0.0,0.0,0.0,0.0,0.0,0.0,0.0,0.0,0.0,0.0,0.0,0.0,0.0,0.0,0.0,0.0,0.0,0.0,0.0,0.0,0.0,0.0,0.0,0.0,0.0,0.0,0.0,0.0,0.0,0.0,0.0,0.0,0.0,0.0,0.0,0.0,0.0,0.0,0.0,0.0,0.0,0.0,0.0,0.0,0.0,0.0,0.0,0.0,0.0,0.0,0.0,0.0,0.0,0.0,0.0,0.0,0.0,0.0,0.0,0.0,0.0,0.0,0.0,0.0,0.0,0.0,0.0,0.0,0.0,0.0,0.0,0.0,0.0,0.0,0.0,0.0,0.0,0.0,0.0,0.0,3.2687,3.2899,3.393,3.4153,3.4261,3.4325,0.0,0.0,0.0,0.0,0.0,0.0,0.0,0.0,0.0,0.0,0.0,0.0,0.0,0.0,0.0,0.0,0.0,0.0,0.0,0.0,0.0,0.0,0.0,0.0,0.0,0.0,0.0,0.0,0.0,0.0,0.0,0.0,0.0,0.0,0.0,0.0,0.0,0.0,0.0,0.0,0.0,0.0,0.0,0.0,0.0,0.0,0.0,0.0,0.0,0.0,0.0,0.0,0.0,0.0,0.0,0.0,0.0,0.0,0.0,0.0,0.0,0.0,0.0,0.0,0.0,0.0,0.0,0.0,0.0,0.0,0.0,0.0,0.0,0.0,0.0,0.0,0.0,0.0,0.0,0.0,0.0,0.0,0.0,0.0,0.0,0.0,0.0,0.0,0.0,0.0,0.0,0.0,0.0,0.0,0.0,0.0,0.0,0.0,0.0,0.0,0.0,0.0,0.0,0.0,0.0,0.0,0.0,0.0,3.2402,3.2366,3.2276,3.2315,3.303,3.3427,0.0,0.0,0.0,0.0,0.0,0.0,0.0,0.0,0.0,0.0,0.0,0.0,0.0,0.0,0.0,0.0,0.0,0.0,0.0,0.0,0.0,0.0,0.0,0.0,0.0,0.0,0.0,0.0,0.0,0.0,0.0,0.0,0.0,0.0,0.0,0.0,0.0,0.0,0.0,0.0,0.0,0.0,0.0,0.0,0.0,0.0,0.0,0.0,0.0,0.0,0.0,0.0,0.0,0.0,0.0,0.0,0.0,0.0,0.0,0.0,0.0,0.0,0.0,0.0,0.0,0.0,0.0,0.0,0.0,0.0,0.0,0.0,0.0,0.0,0.0,0.0,0.0,0.0,0.0,0.0,0.0,0.0,0.0,0.0,0.0,0.0,0.0,0.0,0.0,0.0,0.0,0.0,0.0,0.0,0.0,0.0,0.0,0.0,0.0,0.0,0.0,0.0,0.0,0.0,0.0,0.0,0.0,0.0,0.0,3.3032,3.3529,3.3758,3.3714,3.3982,3.4121,0.0,0.0,0.0,0.0,0.0,0.0,0.0,0.0,0.0,0.0,0.0,0.0,0.0,0.0,0.0,0.0,0.0,0.0,0.0,0.0,0.0,0.0,0.0,0.0,0.0,0.0,0.0,0.0,0.0,0.0,0.0,0.0,0.0,0.0,0.0,0.0,0.0,0.0,0.0,0.0,0.0,0.0,0.0,0.0,0.0,0.0,0.0,0.0,0.0,0.0,0.0,0.0,0.0,0.0,0.0,0.0,0.0,0.0,0.0,0.0,0.0,0.0,0.0,0.0,0.0,0.0,0.0,0.0,0.0,0.0,0.0,0.0,0.0,0.0,0.0,0.0,0.0,0.0,0.0,0.0,0.0,0.0,0.0,0.0,0.0,0.0,0.0,0.0,0.0,0.0,0.0,0.0,0.0,0.0,0.0,0.0,0.0,0.0,0.0,0.0,0.0,0.0,0.0,0.0,0.0,0.0,0.0,0.0,0.0,3.3809,0.0,3.4558,3.4558,3.4523,3.4523,0.0,0.0,0.0,0.0,0.0,0.0,0.0,0.0,0.0,0.0,0.0,0.0,0.0,0.0,0.0,0.0,0.0,0.0,0.0,0.0,0.0,0.0,0.0,0.0,0.0,0.0,0.0,0.0,0.0,0.0,0.0,0.0,0.0,0.0,0.0,0.0,0.0,0.0,0.0,0.0,0.0,0.0,0.0,0.0,0.0,0.0,0.0,0.0,0.0,0.0,0.0,0.0,0.0,0.0,0.0,0.0,0.0,0.0,0.0,0.0,0.0,0.0,0.0,0.0,0.0,0.0,0.0,0.0,0.0,0.0,0.0,0.0,0.0,0.0,0.0,0.0,0.0,0.0,0.0,0.0,0.0,0.0,0.0,0.0,0.0,0.0,0.0,0.0,0.0,0.0,0.0,0.0,0.0,0.0,0.0,0.0,0.0,0.0,0.0,0.0,0.0,0.0,0.0,0.0,0.0,0.0,0.0,0.0,3.4661,3.4626,3.4609,3.4624,3.4541,3.4578,3.4538,0.0,0.0,0.0,0.0,0.0,0.0,0.0,0.0,0.0,0.0,0.0,0.0,0.0,0.0,0.0,0.0,0.0,0.0,0.0,0.0,0.0,0.0,0.0,0.0,0.0,0.0,0.0,0.0,0.0,0.0,0.0,0.0,0.0,0.0,0.0,0.0,0.0,0.0,0.0,0.0,0.0,0.0,0.0,0.0,0.0,0.0,0.0,0.0,0.0,0.0,0.0,0.0,0.0,0.0,0.0,0.0,0.0,0.0,0.0,0.0,0.0,0.0,0.0,0.0,0.0,0.0,0.0,0.0,0.0,0.0,0.0,0.0,0.0,0.0,0.0,0.0,0.0,0.0,0.0,0.0,0.0,0.0,0.0,0.0,0.0,0.0,0.0,0.0,0.0,0.0,0.0,0.0,0.0,0.0,0.0,0.0,0.0,0.0,0.0,0.0,0.0,0.0,0.0,0.0,0.0,0.0,0.0,0.0,0.0,3.6316,3.6302,3.6293,3.629,3.5719,3.5414,0.0,0.0,0.0,0.0,0.0,0.0,0.0,0.0,0.0,0.0,0.0,0.0,0.0,0.0,0.0,0.0,0.0,0.0,0.0,0.0,0.0,0.0,0.0,0.0,0.0,0.0,0.0,0.0,0.0,0.0,0.0,0.0,0.0,0.0,0.0,0.0,0.0,0.0,0.0,0.0,0.0,0.0,0.0,0.0,0.0,0.0,0.0,0.0,0.0,0.0,0.0,0.0,0.0,0.0,0.0,0.0,0.0,0.0,0.0,0.0,0.0,0.0,0.0,0.0,0.0,0.0,0.0,0.0,0.0,0.0,0.0,0.0,0.0,0.0,0.0,0.0,0.0,0.0,0.0,0.0,0.0,0.0,0.0,0.0,0.0,0.0,0.0,0.0,0.0,0.0,0.0,0.0,0.0,0.0,0.0,0.0,0.0,0.0,0.0,0.0,0.0,0.0,0.0,0.0,0.0,0.0,0.0,0.0,0.0,3.7741,3.7277,3.7003,3.7026,3.6527,3.6123,3.5745,0.0,0.0,0.0,0.0,0.0,0.0,0.0,0.0,0.0,0.0,0.0,0.0,0.0,0.0,0.0,0.0,0.0,0.0,0.0,0.0,0.0,0.0,0.0,0.0,0.0,0.0,0.0,0.0,0.0,0.0,0.0,0.0,0.0,0.0,0.0,0.0,0.0,0.0,0.0,0.0,0.0,0.0,0.0,0.0,0.0,0.0,0.0,0.0,0.0,0.0,0.0,0.0,0.0,0.0,0.0,0.0,0.0,0.0,0.0,0.0,0.0,0.0,0.0,0.0,0.0,0.0,0.0,0.0,0.0,0.0,0.0,0.0,0.0,0.0,0.0,0.0,0.0,0.0,0.0,0.0,0.0,0.0,0.0,0.0,0.0,0.0,0.0,0.0,0.0,0.0,0.0,0.0,0.0,0.0,0.0,0.0,0.0,0.0,0.0,0.0,0.0,0.0,0.0,0.0,0.0,0.0,0.0,0.0,3.8903,3.7596,3.6979,3.7064,3.7136,3.6714,0.0,0.0,0.0,0.0,0.0,0.0,0.0,0.0,0.0,0.0,0.0,0.0,0.0,0.0,0.0,0.0,0.0,0.0,0.0,0.0,0.0,0.0,0.0,0.0,0.0,0.0,0.0,0.0,0.0,0.0,0.0,0.0,0.0,0.0,0.0,0.0,0.0,0.0,0.0,0.0,0.0,0.0,0.0,0.0,0.0,0.0,0.0,0.0,0.0,0.0,0.0,0.0,0.0,0.0,0.0,0.0,0.0,0.0,0.0,0.0,0.0,0.0,0.0,0.0,0.0,0.0,0.0,0.0,0.0,0.0,0.0,0.0,0.0,0.0,0.0,0.0,0.0,0.0,0.0,0.0,0.0,0.0,0.0,0.0,0.0,0.0,0.0,0.0,0.0,0.0,0.0,0.0,0.0,0.0,0.0,0.0,0.0,0.0,0.0,0.0,0.0,0.0,0.0,0.0,0.0,0.0,0.0,0.0,0.0,3.8868,3.8462,3.8383,3.8699,3.8218,3.7842,0.0,0.0,0.0,0.0,0.0,0.0,0.0,0.0,0.0,0.0,0.0,0.0,0.0,0.0,0.0,0.0,0.0,0.0,0.0,0.0,0.0,0.0,0.0,0.0,0.0,0.0,0.0,0.0,0.0,0.0,0.0,0.0,0.0,0.0,0.0,0.0,0.0,0.0,0.0,0.0,0.0,0.0,0.0,0.0,0.0,0.0,0.0,0.0,0.0,0.0,0.0,0.0,0.0,0.0,0.0,0.0,0.0,0.0,0.0,0.0,0.0,0.0,0.0,0.0,0.0,0.0,0.0,0.0,0.0,0.0,0.0,0.0,0.0,0.0,0.0,0.0,0.0,0.0,0.0,0.0,0.0,0.0,0.0,0.0,0.0,0.0,0.0,0.0,0.0,0.0,0.0,0.0,0.0,0.0,0.0,0.0,0.0,0.0,0.0,0.0,0.0,0.0,0.0,0.0,0.0,0.0,0.0,0.0,3.9083,3.9515,3.9398,3.9409,3.96,3.8857,3.8258,0.0,0.0,0.0,0.0,0.0,0.0,0.0,0.0,0.0,0.0,0.0,0.0,0.0,0.0,0.0,0.0,0.0,0.0,0.0,0.0,0.0,0.0,0.0,0.0,0.0,0.0,0.0,0.0,0.0,0.0,0.0,0.0,0.0,0.0,0.0,0.0,0.0,0.0,0.0,0.0,0.0,0.0,0.0,0.0,0.0,0.0,0.0,0.0,0.0,0.0,0.0,0.0,0.0,0.0,0.0,0.0,0.0,0.0,0.0,0.0,0.0,0.0,0.0,0.0,0.0,0.0,0.0,0.0,0.0,0.0,0.0,0.0,0.0,0.0,0.0,0.0,0.0,0.0,0.0,0.0,0.0,0.0,0.0,0.0,0.0,0.0,0.0,0.0,0.0,0.0,0.0,0.0,0.0,0.0,0.0,0.0,0.0,0.0,0.0,0.0,0.0,0.0,0.0,0.0,0.0,0.0,0.0,0.0,3.9599,4.0366,4.0243,4.0083,3.9944,3.9275,3.839,0.0,0.0,0.0,0.0,0.0,0.0,0.0,0.0,0.0,0.0,0.0,0.0,0.0,0.0,0.0,0.0,0.0,0.0,0.0,0.0,0.0,0.0,0.0,0.0,0.0,0.0,0.0,0.0,0.0,0.0,0.0,0.0,0.0,0.0,0.0,0.0,0.0,0.0,0.0,0.0,0.0,0.0,0.0,0.0,0.0,0.0,0.0,0.0,0.0,0.0,0.0,0.0,0.0,0.0,0.0,0.0,0.0,0.0,0.0,0.0,0.0,0.0,0.0,0.0,0.0,0.0,0.0,0.0,0.0,0.0,0.0,0.0,0.0,0.0,0.0,0.0,0.0,0.0,0.0,0.0,0.0,0.0,0.0,0.0,0.0,0.0,0.0,0.0,0.0,0.0,0.0,0.0,0.0,0.0,0.0,0.0,0.0,0.0,0.0,0.0,0.0,0.0,0.0,0.0,0.0,0.0,0.0,0.0,4.0308,4.046,4.0431,4.0428,4.037,3.9865,3.9236,0.0,0.0,0.0,0.0,0.0,0.0,0.0,0.0,0.0,0.0,0.0,0.0,0.0,0.0,0.0,0.0,0.0,0.0,0.0,0.0,0.0,0.0,0.0,0.0,0.0,0.0,0.0,0.0,0.0,0.0,0.0,0.0,0.0,0.0,0.0,0.0,0.0,0.0,0.0,0.0,0.0,0.0,0.0,0.0,0.0,0.0,0.0,0.0,4.2601,0.0,0.0,0.0,0.0,0.0,0.0,0.0,0.0,0.0,0.0,0.0,0.0,0.0,0.0,0.0,0.0,0.0,0.0,0.0,0.0,0.0,0.0,0.0,0.0,0.0,0.0,0.0,0.0,0.0,0.0,0.0,0.0,0.0,0.0,0.0,0.0,0.0,0.0,0.0,0.0,0.0,0.0,0.0,0.0,0.0,0.0,0.0,0.0,0.0,0.0,0.0,0.0,0.0,0.0,0.0,0.0,0.0,0.0,0.0,4.094,4.155,4.1247,4.1058,4.1062,4.0778,4.0259,0.0,0.0,0.0,0.0,0.0,0.0,0.0,0.0,0.0,0.0,0.0,0.0,0.0,0.0,0.0,0.0,0.0,0.0,0.0,0.0,0.0,0.0,0.0,0.0,0.0,0.0,0.0,0.0,0.0,0.0,0.0,0.0,0.0,0.0,0.0,0.0,0.0,0.0,0.0,0.0,0.0,0.0,0.0,0.0,0.0,0.0,0.0,0.0,0.0,0.0,0.0,0.0,0.0,0.0,0.0,0.0,0.0,0.0,0.0,0.0,0.0,0.0,0.0,0.0,0.0,0.0,0.0,0.0,0.0,0.0,0.0,0.0,0.0,0.0,0.0,0.0,0.0,0.0,0.0,0.0,0.0,0.0,0.0,0.0,0.0,0.0,0.0,0.0,0.0,0.0,0.0,0.0,0.0,0.0,0.0,0.0,0.0,0.0,0.0,0.0,0.0,0.0,0.0,0.0,0.0,0.0,0.0,4.127,4.1538,4.2732,4.2215,4.189,4.1895,4.1807,4.1388,4.0586,0.0,0.0,0.0,0.0,0.0,0.0,0.0,0.0,0.0,0.0,0.0,0.0,0.0,0.0,0.0,0.0,0.0,0.0,0.0,0.0,0.0,0.0,0.0,0.0,0.0,0.0,0.0,0.0,0.0,0.0,0.0,0.0,0.0,0.0,0.0,0.0,0.0,0.0,4.0668,4.1464,0.0,0.0,0.0,0.0,0.0,0.0,0.0,0.0,4.4482,0.0,0.0,0.0,0.0,0.0,0.0,0.0,0.0,0.0,0.0,0.0,0.0,0.0,0.0,0.0,0.0,0.0,0.0,0.0,0.0,0.0,0.0,0.0,0.0,0.0,0.0,0.0,0.0,0.0,0.0,0.0,0.0,0.0,0.0,0.0,0.0,0.0,0.0,0.0,0.0,0.0,0.0,0.0,0.0,0.0,0.0,0.0,0.0,0.0,0.0,0.0,0.0,0.0,0.0,0.0,0.0,4.1518,4.1998,4.2457,4.2868,4.2774,4.271,4.271,4.2647,4.2465,4.2178,0.0,0.0,0.0,0.0,0.0,0.0,0.0,0.0,0.0,0.0,0.0,0.0,0.0,0.0,0.0,0.0,0.0,0.0,0.0,0.0,0.0,0.0,0.0,0.0,0.0,0.0,0.0,0.0,0.0,0.0,0.0,0.0,0.0,0.0,0.0,0.0,0.0,0.0,0.0,4.2279,4.2827,0.0,0.0,0.0,0.0,0.0,0.0,0.0,0.0,4.5965,0.0,0.0,0.0,0.0,0.0,0.0,0.0,0.0,0.0,0.0,0.0,0.0,0.0,0.0,0.0,0.0,0.0,0.0,0.0,0.0,0.0,0.0,0.0,0.0,0.0,0.0,0.0,0.0,0.0,0.0,0.0,0.0,0.0,0.0,0.0,0.0,0.0,0.0,0.0,0.0,0.0,0.0,0.0,0.0,0.0,0.0,0.0,0.0,0.0,0.0,0.0,0.0,0.0,0.0,0.0,4.2157,4.2537,4.277,4.2887,4.2892,4.2892,4.2892,4.277,4.2629,0.0,0.0,0.0,0.0,0.0,0.0,0.0,0.0,0.0,0.0,0.0,0.0,0.0,0.0,0.0,0.0,0.0,0.0,0.0,0.0,0.0,0.0,0.0,0.0,0.0,0.0,0.0,0.0,0.0,0.0,0.0,0.0,0.0,0.0,0.0,0.0,0.0,0.0,0.0,0.0,4.3355,4.3916,4.4705,0.0,0.0,0.0,0.0,0.0,0.0,4.709,4.7041,0.0,0.0,0.0,0.0,0.0,0.0,0.0,0.0,0.0,0.0,0.0,0.0,0.0,0.0,0.0,0.0,0.0,0.0,0.0,0.0,0.0,0.0,0.0,0.0,0.0,0.0,0.0,0.0,0.0,0.0,0.0,0.0,0.0,0.0,0.0,0.0,0.0,0.0,0.0,0.0,0.0,0.0,0.0,0.0,0.0,0.0,0.0,0.0,0.0,0.0,0.0,0.0,0.0,0.0,0.0,4.2816,4.2809,4.29,4.314,4.315,4.3218,4.3353,4.3027,4.2822,0.0,0.0,0.0,0.0,0.0,0.0,0.0,0.0,0.0,0.0,0.0,0.0,0.0,0.0,0.0,0.0,0.0,0.0,0.0,0.0,0.0,0.0,0.0,0.0,0.0,0.0,0.0,0.0,0.0,0.0,0.0,0.0,0.0,0.0,0.0,0.0,0.0,0.0,0.0,0.0,0.0,4.5181,4.6497,4.6727,0.0,0.0,0.0,0.0,4.7908,4.7941,0.0,0.0,0.0,0.0,0.0,0.0,0.0,0.0,0.0,0.0,0.0,0.0,0.0,0.0,0.0,0.0,0.0,0.0,0.0,0.0,0.0,0.0,0.0,0.0,0.0,0.0,0.0,0.0,0.0,0.0,0.0,0.0,0.0,0.0,0.0,0.0,0.0,0.0,0.0,0.0,0.0,0.0,0.0,0.0,0.0,0.0,0.0,0.0,0.0,0.0,0.0,0.0,0.0,0.0,0.0,0.0,4.2649,4.2732,4.3189,4.3937,4.3978,4.4304,4.4978,4.4006,4.3837,0.0,0.0,0.0,0.0,0.0,0.0,0.0,0.0,0.0,0.0,0.0,0.0,0.0,0.0,0.0,0.0,0.0,0.0,0.0,0.0,0.0,0.0,0.0,0.0,0.0,0.0,0.0,0.0,0.0,0.0,0.0,0.0,0.0,0.0,0.0,0.0,0.0,0.0,0.0,0.0,0.0,4.6544,4.7218,4.7442,4.7477,0.0,0.0,4.8844,4.8835,4.8853,0.0,0.0,0.0,0.0,0.0,0.0,0.0,0.0,0.0,0.0,0.0,0.0,0.0,0.0,0.0,0.0,0.0,0.0,0.0,0.0,0.0,0.0,0.0,0.0,0.0,0.0,0.0,0.0,0.0,0.0,0.0,0.0,0.0,0.0,0.0,0.0,0.0,0.0,0.0,0.0,0.0,0.0,0.0,0.0,0.0,0.0,0.0,0.0,0.0,0.0,0.0,0.0,0.0,0.0,0.0,4.3092,4.3817,4.3643,4.3971,4.4729,4.4765,4.4947,4.5304,4.4566,4.4319,0.0,0.0,0.0,0.0,0.0,0.0,0.0,0.0,0.0,0.0,0.0,0.0,0.0,0.0,0.0,0.0,0.0,0.0,0.0,0.0,0.0,0.0,0.0,0.0,0.0,0.0,0.0,0.0,0.0,0.0,0.0,0.0,0.0,0.0,0.0,0.0,0.0,0.0,0.0,0.0,0.0,0.0,4.79,4.8197,0.0,0.0,0.0,4.9616,4.9543,0.0,0.0,0.0,0.0,0.0,0.0,0.0,0.0,0.0,0.0,0.0,0.0,0.0,0.0,0.0,0.0,0.0,0.0,0.0,0.0,0.0,0.0,0.0,0.0,0.0,0.0,0.0,0.0,0.0,0.0,0.0,0.0,0.0,0.0,0.0,0.0,0.0,0.0,0.0,0.0,0.0,0.0,0.0,0.0,0.0,0.0,0.0,0.0,0.0,0.0,0.0,0.0,0.0,0.0,0.0,0.0,0.0,4.4778,4.4529,4.4807,4.5562,4.5599,4.5707,4.5878,4.533,0.0,0.0,0.0,0.0,0.0,0.0,0.0,0.0,0.0,0.0,0.0,0.0,0.0,0.0,0.0,0.0,0.0,0.0,0.0,0.0,0.0,0.0,0.0,0.0,0.0,0.0,0.0,3.9878,0.0,0.0,0.0,0.0,0.0,0.0,0.0,0.0,0.0,0.0,0.0,0.0,0.0,0.0,4.8049,4.8504,4.8789,4.9098,0.0,0.0,5.0012,5.0038,5.0142,5.0166,0.0,0.0,0.0,0.0,0.0,0.0,0.0,0.0,0.0,0.0,0.0,0.0,0.0,0.0,0.0,0.0,0.0,0.0,0.0,0.0,0.0,0.0,0.0,0.0,0.0,0.0,0.0,0.0,0.0,0.0,0.0,0.0,0.0,0.0,0.0,0.0,0.0,0.0,0.0,0.0,0.0,0.0,0.0,0.0,0.0,0.0,0.0,0.0,0.0,0.0,0.0,0.0,0.0,0.0,0.0,4.4778,4.507,4.5604,4.6395,4.6426,4.6783,4.7508,4.6615,4.6318,0.0,0.0,0.0,0.0,0.0,0.0,0.0,0.0,0.0,0.0,0.0,0.0,0.0,0.0,0.0,0.0,0.0,0.0,0.0,0.0,0.0,0.0,0.0,0.0,0.0,0.0,0.0,0.0,0.0,0.0,0.0,0.0,0.0,0.0,0.0,0.0,0.0,0.0,0.0,0.0,0.0,4.857,4.8924,4.9079,4.9187,0.0,0.0,4.9841,5.0139,5.023,5.0215,5.0018,0.0,0.0,0.0,0.0,0.0,0.0,0.0,0.0,0.0,0.0,0.0,0.0,0.0,0.0,0.0,0.0,0.0,0.0,0.0,0.0,0.0,0.0,0.0,0.0,0.0,0.0,0.0,0.0,0.0,0.0,0.0,0.0,0.0,0.0,0.0,0.0,0.0,0.0,0.0,0.0,0.0,0.0,0.0,0.0,0.0,0.0,0.0,0.0,0.0,0.0,0.0,0.0,0.0,4.521,4.5995,4.6043,4.6421,4.7187,4.7259,4.7399,4.7694,4.7162,4.6933,0.0,0.0,0.0,0.0,0.0,0.0,0.0,0.0,0.0,0.0,0.0,0.0,0.0,0.0,0.0,0.0,0.0,0.0,0.0,0.0,0.0,0.0,0.0,0.0,0.0,0.0,0.0,0.0,4.3255,4.3795,4.4978,0.0,0.0,0.0,0.0,0.0,0.0,0.0,0.0,0.0,0.0,4.8913,4.8846,4.9032,0.0,0.0,4.9182,4.9439,4.9568,5.0182,5.0585,5.0448,5.0955,0.0,0.0,0.0,0.0,0.0,0.0,0.0,0.0,0.0,0.0,0.0,0.0,0.0,0.0,0.0,0.0,0.0,0.0,0.0,0.0,0.0,0.0,0.0,0.0,0.0,0.0,0.0,0.0,0.0,0.0,0.0,0.0,0.0,0.0,0.0,0.0,0.0,0.0,0.0,0.0,0.0,0.0,0.0,0.0,0.0,0.0,0.0,0.0,0.0,0.0,0.0,0.0,4.5875,4.6789,4.6829,4.7151,4.7694,4.7694,4.7694,4.7689,4.7535,4.7309,0.0,0.0,0.0,0.0,0.0,0.0,0.0,0.0,0.0,0.0,0.0,0.0,0.0,0.0,0.0,0.0,0.0,0.0,0.0,0.0,0.0,0.0,0.0,0.0,0.0,0.0,0.0,0.0,4.4245,4.4924,4.6225,0.0,0.0,0.0,0.0,0.0,0.0,0.0,0.0,0.0,0.0,4.894,4.8709,4.9017,4.9252,4.9104,4.9523,4.9857,4.9931,5.0545,5.1003,5.0926,0.0,0.0,0.0,0.0,0.0,0.0,0.0,0.0,0.0,0.0,0.0,0.0,0.0,0.0,0.0,0.0,0.0,0.0,0.0,0.0,0.0,0.0,0.0,0.0,0.0,0.0,0.0,0.0,0.0,0.0,3.8073,0.0,0.0,0.0,0.0,0.0,0.0,0.0,0.0,0.0,0.0,0.0,0.0,0.0,0.0,0.0,0.0,0.0,0.0,0.0,0.0,0.0,0.0,4.6759,4.6795,4.7327,4.7658,4.7694,4.7694,4.7694,4.7694,4.7689,4.7577,4.7303,0.0,0.0,0.0,0.0,0.0,0.0,0.0,0.0,0.0,0.0,0.0,0.0,0.0,0.0,0.0,0.0,0.0,0.0,0.0,0.0,0.0,0.0,0.0,0.0,0.0,0.0,4.4544,4.5351,4.6176,0.0,0.0,0.0,0.0,0.0,0.0,0.0,0.0,0.0,0.0,4.8816,4.865,4.8518,4.9127,4.9701,4.9924,5.0655,5.1312,5.1418,5.1544,5.1535,0.0,0.0,0.0,0.0,0.0,0.0,0.0,0.0,0.0,0.0,0.0,0.0,0.0,0.0,0.0,0.0,0.0,0.0,0.0,0.0,0.0,0.0,0.0,0.0,0.0,0.0,0.0,3.8119,3.8224,0.0,0.0,0.0,0.0,0.0,0.0,0.0,0.0,0.0,0.0,0.0,4.1653,4.2333,0.0,0.0,0.0,0.0,0.0,0.0,0.0,0.0,0.0,0.0,0.0,0.0,4.6748,4.6702,4.7361,4.7694,4.7694,4.7694,4.7694,4.7694,4.7694,4.7588,4.732,0.0,0.0,0.0,0.0,0.0,0.0,0.0,0.0,0.0,0.0,0.0,0.0,0.0,0.0,0.0,0.0,0.0,0.0,0.0,0.0,0.0,0.0,0.0,0.0,0.0,4.5255,0.0,0.0,0.0,0.0,0.0,0.0,0.0,0.0,0.0,0.0,0.0,4.8717,4.8656,4.8932,4.9165,4.9096,4.9763,5.0331,0.0,0.0,0.0,0.0,0.0,0.0,0.0,0.0,0.0,0.0,0.0,0.0,0.0,0.0,5.0488,5.0858,5.0471,5.0108,5.0128,0.0,0.0,0.0,0.0,0.0,0.0,0.0,0.0,0.0,0.0,0.0,0.0,0.0,0.0,3.9479,0.0,3.9777,0.0,0.0,0.0,0.0,0.0,0.0,0.0,0.0,4.1884,4.2655,4.336,4.3749,4.4233,0.0,4.4865,4.449,0.0,0.0,0.0,0.0,0.0,0.0,0.0,0.0,4.6684,4.6631,4.7309,4.7694,4.7694,4.7694,4.7694,4.7694,4.7694,4.762,4.7439,4.7323,4.7173,0.0,0.0,0.0,0.0,0.0,0.0,0.0,0.0,0.0,0.0,0.0,0.0,0.0,0.0,0.0,0.0,0.0,0.0,0.0,0.0,0.0,0.0,0.0,4.6197,0.0,0.0,0.0,0.0,0.0,0.0,0.0,0.0,0.0,4.8742,4.8827,4.8866,4.8831,4.9402,4.9777,4.9736,0.0,0.0,0.0,0.0,0.0,0.0,0.0,5.2128,5.2128,5.2763,5.328,5.3429,5.2991,5.2493,5.2068,0.0,0.0,5.1439,5.0931,5.0528,5.0491,5.0077,4.9826,5.013,5.0507,5.0866,0.0,0.0,0.0,0.0,0.0,0.0,0.0,0.0,3.998,3.9732,0.0,4.0654,0.0,0.0,0.0,0.0,0.0,4.2848,0.0,0.0,4.4658,4.5203,4.5024,4.492,4.4892,4.4912,4.5311,4.5508,4.5467,4.5728,0.0,0.0,0.0,0.0,0.0,0.0,4.6602,4.6649,4.7356,4.7694,4.7694,4.7694,4.7694,4.7694,4.7694,4.7689,4.7683,4.7439,4.732,4.7303,4.6996,0.0,0.0,0.0,0.0,0.0,0.0,0.0,0.0,0.0,0.0,0.0,0.0,0.0,0.0,0.0,0.0,0.0,0.0,0.0,0.0,4.6369,0.0,0.0,0.0,0.0,0.0,0.0,0.0,0.0,0.0,0.0,4.8695,4.9069,4.9411,4.9406,0.0,0.0,0.0,0.0,5.1788,5.1728,5.2315,5.2781,5.2686,5.2669,5.2705,5.2705,0.0,0.0,5.313,5.3188,5.3214,5.3277,5.312,5.26,5.125,5.1001,5.0934,5.0939,5.0923,5.1323,5.2057,5.1936,5.2259,4.1735,0.0,0.0,0.0,0.0,4.0593,4.1075,4.1709,4.1684,4.1583,4.1574,4.2451,0.0,0.0,0.0,0.0,0.0,0.0,4.4307,4.4561,4.4813,4.5359,4.6055,4.6024,4.6333,4.687,4.6991,4.7045,4.7056,4.712,4.6661,4.5724,0.0,0.0,0.0,0.0,4.6731,4.696,4.7434,4.7694,4.7694,4.7694,4.7694,4.7694,4.7694,4.7694,4.7694,4.7631,4.7482,4.732,4.7215,0.0,0.0,0.0,0.0,0.0,0.0,0.0,0.0,0.0,0.0,0.0,0.0,0.0,0.0,0.0,0.0,0.0,0.0,0.0,4.6974,4.7403,4.769,0.0,0.0,0.0,0.0,0.0,0.0,0.0,0.0,0.0,4.9778,4.9893,4.9954,0.0,0.0,5.1191,5.104,5.1818,5.2599,5.3221,5.3382,0.0,5.4214,5.4295,5.423,5.4236,5.427,5.4393,5.4551,5.4585,5.4402,5.3919,5.3661,5.326,5.2337,5.1709,5.1444,5.1376,5.09,5.0545,5.0791,5.1176,5.1653,4.3104,4.1256,4.1379,4.169,4.2084,4.2254,4.2791,4.3553,4.3548,4.3483,4.3407,4.4006,4.4025,4.3595,4.418,0.0,0.0,0.0,4.5271,4.5601,4.5858,4.6328,4.6964,4.6975,4.7223,4.7694,4.7694,4.7694,4.7694,4.7556,4.7224,4.6731,0.0,0.0,4.6265,4.6813,4.7281,4.7561,4.8183,4.8538,4.8635,4.8646,4.8646,4.8677,4.8641,4.8641,4.8641,4.8641,4.8426,4.796,4.7831,4.7504,0.0,0.0,0.0,0.0,0.0,0.0,0.0,0.0,0.0,0.0,0.0,4.662,0.0,0.0,0.0,0.0,4.6709,4.6897,4.743,4.7766,0.0,0.0,0.0,0.0,0.0,0.0,0.0,4.9287,4.978,5.0224,5.0686,5.1243,5.1355,5.0796,5.1701,5.2363,5.228,0.0,5.3717,5.4285,5.4271,5.4351,5.4888,5.4913,5.4907,5.4907,5.4931,5.5002,5.5079,5.5061,5.4909,5.4498,5.43,5.4071,5.3605,5.3197,5.2655,5.2084,5.1514,5.1137,5.1096,5.1734,5.2268,4.3833,4.3797,4.3694,4.3768,4.3967,4.3932,4.4405,4.5212,4.5217,4.5086,4.4873,4.5255,4.506,4.4576,4.4526,0.0,4.5057,4.5783,4.6262,4.6607,4.7363,4.7694,4.7694,4.7694,4.7714,4.7771,4.7787,4.7812,4.7832,4.7477,4.7555,4.7986,4.7519,4.714,4.682,4.7607,4.814,4.8385,4.9228,4.9807,5.0067,5.0095,5.0106,5.0106,5.0106,5.0101,5.0106,5.0101,4.9769,4.9018,4.8759,4.8271,4.7555,0.0,0.0,0.0,0.0,0.0,0.0,0.0,0.0,0.0,0.0,0.0,0.0,0.0,0.0,0.0,4.7871,0.0,4.7829,4.7637,0.0,0.0,0.0,4.7959,4.8893,4.8987,4.9318,5.0101,0.0,0.0,5.1488,5.2854,5.3322,5.2027,5.3052,5.3877,5.3784,5.4405,5.4996,5.4973,5.5015,5.5009,5.5202,5.5226,5.5226,5.5226,5.5082,5.516,5.5172,5.5166,5.5124,5.4985,5.5009,5.4937,5.4907,5.4738,5.443,5.2968,5.2709,5.2703,5.2739,5.3241,5.3711,4.5028,4.4775,4.4723,4.4338,4.374,4.3394,4.381,4.4695,4.4711,4.4869,4.5239,4.5925,4.6453,4.6877,4.6445,4.6564,4.6989,4.6782,4.6961,4.7388,4.7616,4.7694,4.7694,4.7694,4.7913,4.8291,4.8502,4.8729,4.8928,4.902,4.9047,4.8996,4.9053,4.8787,4.8265,4.8805,4.9109,4.9055,4.9469,4.9721,4.979,5.0006,5.0106,5.0106,5.0106,5.0106,5.0106,5.0106,5.0028,4.9842,4.9756,4.9531,4.9159,4.913,0.0,0.0,0.0,0.0,0.0,0.0,0.0,0.0,0.0,4.7405,4.7396,0.0,4.772,0.0,4.8448,4.8298,4.7912,4.7736,0.0,0.0,4.8442,4.8731,4.9564,4.9756,5.0131,5.0934,5.1757,5.2497,5.3126,5.4024,5.452,5.4237,5.4446,5.4617,5.4502,5.4695,5.5118,5.5637,5.5776,5.5963,5.6536,5.6645,5.6681,5.6651,5.6645,5.6645,5.6639,5.6645,5.6458,5.5891,5.5752,5.5528,5.5045,5.4907,5.4828,5.443,5.4321,5.4321,5.4327,5.4466,5.4617,4.5834,4.565,4.5643,4.5336,4.4812,4.427,4.4483,4.5209,4.5221,4.5374,4.5713,4.6397,4.6915,4.73,4.7004,4.7062,4.7309,4.7272,4.749,4.7887,4.8393,4.8581,4.8587,4.8701,4.8836,4.9028,4.9206,4.9348,4.9495,4.9501,4.9567,4.9669,5.024,5.0419,5.0176,5.0008,4.9973,5.0014,5.0402,5.0659,5.0777,5.0911,5.0906,5.067,5.077,5.0746,5.0605,5.0564,5.042,5.0091,5.0109,4.993,4.9466,4.9632,4.9565,0.0,0.0,0.0,0.0,0.0,0.0,0.0,0.0,0.0,0.0,0.0,4.7906,4.8033,4.846,4.8583,4.8268,4.8477,4.8767,4.9195,4.9231,4.9584,5.0435,5.09,5.1471,5.2268,5.3112,5.38,5.4241,5.4955,5.5408,5.5432,5.6036,5.6149,5.5515,5.592,5.6609,5.7007,5.7376,5.7732,5.8202,5.8268,5.8275,5.8275,5.8268,5.8166,5.781,5.7732,5.7484,5.6724,5.6536,5.6434,5.5993,5.5921,5.5921,5.5914,5.5914,5.5661,5.5039,5.516,5.5377,4.6231,4.6246,4.6246,4.6254,4.6278,4.5691,4.574,4.6211,4.6246,4.6249,4.6336,4.6814,4.7055,4.7166,4.7072,4.7119,4.7196,4.7588,4.7889,4.8105,4.909,4.9565,4.9577,4.9852,4.9913,4.9744,4.9875,4.9965,4.9996,4.9883,5.0077,5.0552,5.1428,5.1986,5.215,5.1331,5.1014,5.1239,5.1662,5.2,5.2224,5.2201,5.2033,5.1638,5.183,5.1791,5.1491,5.1365,5.1047,5.0487,5.0474,5.0236,4.9657,5.0161,5.0161,0.0,4.9895,0.0,0.0,0.0,0.0,0.0,0.0,0.0,0.0,4.8686,4.8515,4.7874,4.8534,4.8967,4.8881,4.9405,4.9862,5.0192,5.0245,5.0646,5.1641,5.2377,5.3059,5.3778,5.4538,5.5045,5.5051,5.5782,5.6325,5.6476,5.7557,5.7942,5.6935,5.7623,5.8456,5.8558,5.9144,5.9319,5.9427,5.9536,5.9536,5.9536,5.9463,5.9355,5.8667,5.8558,5.8311,5.7695,5.7593,5.7557,5.7514,5.7514,5.7521,5.7514,5.7514,5.708,5.5951,5.5999,5.6319,4.5985,4.6068,4.6068,4.6162,4.6284,4.6163,4.6428,4.6913,4.6913,4.7134,4.7467,4.7572,4.7987,4.8554,4.8136,4.8174,4.8578,4.8268,4.8028,4.7889,4.8511,4.8806,4.8831,4.9239,4.9668,5.0046,5.0867,5.134,5.1588,5.2411,5.2711,5.2628,5.3036,5.3224,5.3277,0.0,0.0,0.0,5.2912,5.2859,5.2907,5.2865,5.2788,5.2705,5.2754,0.0,5.2823,5.2231,5.2221,5.276,5.2395,0.0,0.0,0.0,0.0,0.0,0.0,0.0,0.0,0.0,0.0,0.0,5.1479,5.0742,4.8747,4.9693,5.0182,4.9556,5.02,5.0414,4.9875,4.9937,5.0552,5.1836,5.1986,5.2602,5.3989,5.4321,5.4502,5.4647,5.5341,5.5782,5.5891,5.7007,5.7913,5.7949,5.8775,5.921,5.8956,5.918,5.9361,5.9391,5.9651,5.9645,5.9602,5.9674,5.9747,5.9602,5.9602,5.9572,5.9427,5.9391,5.9355,5.9065,5.9144,5.9101,5.9101,5.9138,5.9065,5.9138,5.9144,5.8848,5.7942,5.784,5.813,4.693,0.0,4.6994,4.7041,0.0,4.7138,4.7285,4.7509,4.6952,4.685,4.707,4.7333,4.7685,4.8062,4.776,4.7821,4.8056,4.8031,4.7995,4.8051,4.9208,4.9715,4.9763,5.0742,5.129,5.1467,5.2197,5.2655,5.2815,5.3203,5.3352,5.3204,5.3697,5.3943,5.3972,5.4359,5.4218,5.3599,5.3303,5.3219,5.3316,5.3316,5.3205,5.2992,5.312,0.0,0.0,0.0,0.0,0.0,0.0,0.0,0.0,0.0,0.0,5.1943,5.1783,5.1735,5.1901,5.1962,5.1874,5.164,5.1674,5.1181,4.9856,5.0238,5.0342,5.0079,5.1091,5.1651,5.1357,5.1979,5.2806,5.3566,5.3675,5.4037,5.4756,5.5233,5.545,5.5558,5.6464,5.7188,5.7188,5.8202,5.8927,5.9029,5.9674,6.0326,6.0659,6.0435,6.029,6.0688,6.0803,6.0797,6.0803,6.0797,6.0797,6.0797,6.076,6.0616,6.0254,6.0217,6.0079,5.9717,5.9602,5.9602,5.9602,5.9602,5.9717,6.0079,6.0188,6.0405,6.052,5.9832,5.9101,4.8398,4.839,4.839,4.8398,4.839,4.8398,4.8398,4.8307,0.0,0.0,0.0,4.7207,4.7544,4.7641,4.7778,4.7839,4.7865,4.8248,4.8474,4.8636,5.0154,5.0914,5.0986,5.2264,5.2815,5.2605,5.3161,5.3493,5.3563,5.3506,5.3512,5.3647,5.4201,5.451,5.4552,5.5184,5.4984,5.3978,5.3655,5.3619,5.3816,5.3767,5.3563,5.318,5.3455,5.3455,5.3158,5.2946,5.3077,5.357,5.3577,5.3425,5.3034,5.3236,5.3036,5.2359,5.2287,5.2344,5.2594,5.2606,5.2408,5.1961,5.1948,5.1824,5.16,5.1047,5.0789,5.0928,5.2154,5.2915,5.2915,5.4068,5.4931,5.5082,5.5082,5.516,5.5516,5.6029,5.6543,5.6717,5.7804,5.8594,5.8601,5.9282,5.9891,6.0079,6.0767,6.1528,6.2136,6.1926,6.1774,6.2281,6.2433,6.2433,6.2426,6.2433,6.2433,6.2433,6.2426,6.2173,6.1636,6.1455,6.1166,6.084,6.0477,6.0586,6.0514,6.0659,6.0701,6.1304,6.1455,6.1824,6.2838,6.1867,6.0622,4.9872,4.988,4.9872,4.9905,4.988,4.9914,4.9872,4.9781,4.8373,4.7776,4.7809,4.8521,4.9166,4.98,5.0422,5.072,5.072,5.0791,5.0475,4.9967,5.0598,5.0911,5.0951,5.1537,5.1797,5.1835,5.256,5.3099,5.3534,5.4167,5.4697,5.514,5.5289,5.5317,5.5317,5.543,5.5409,5.5243,5.4912,5.4769,5.4772,5.4526,5.4348,5.4286,5.4298,5.4506,5.4812,5.3972,5.397,5.5009,5.4605,5.4429,5.4564,5.4958,5.4993,5.4483,5.4429,5.449,5.4484,5.4526,5.4466,5.4393,5.4393,5.4098,5.3398,5.3265,5.3494,5.411,5.4357,5.4575,5.4575,5.4786,5.5263,5.5782,5.5854,5.6361,5.7623,5.7949,5.8239,5.8854,5.9253,5.9463,5.9572,6.0217,6.1021,6.1593,6.2361,6.3128,6.3751,6.3968,6.3932,6.4033,6.4077,6.4077,6.3889,6.4033,6.3932,6.4033,6.3961,6.3816,6.3635,6.3563,6.3526,6.3635,6.3389,6.3454,6.3497,6.3715,6.3563,6.3671,6.3708,6.3932,6.4301,6.3859,6.3599,5.0203,5.0203,5.0203,5.0203,5.0203,5.0203,5.0203,5.0145,4.9475,4.9177,4.9218,4.9549,4.9892,5.0216,5.0559,5.0726,5.0726,5.0726,5.0518,5.0279,5.0833,5.1102,5.1194,5.2008,5.2409,5.2467,5.3075,5.3512,5.3746,5.4079,5.4769,5.5711,5.639,5.6764,5.6764,5.6764,5.6729,5.6729,5.5779,5.5257,5.5284,5.5141,5.5057,5.5057,5.5057,5.5121,5.5346,5.4905,5.4974,5.5636,5.5603,5.5463,5.5312,5.5486,5.5381,5.4949,5.473,5.4718,5.4894,5.4907,5.4907,5.4907,5.4907,5.4937,5.4943,5.4581,5.4496,5.49,5.5226,5.5492,5.5522,5.5884,5.647,5.7224,5.7303,5.7768,5.8782,5.9065,5.9174,5.9608,6.0398,6.0905,6.0905,6.1962,6.2838,6.3345,6.3997,6.462,6.5011,6.541,6.5374,6.462,6.4403,6.4403,6.4403,6.4403,6.4403,6.4403,6.4403,6.4403,6.4403,6.4403,6.4403,6.4403,6.4403,6.4403,6.4439,6.4403,6.4541,6.5011,6.5055,6.5163,6.5526,6.57,6.5417,5.0708,5.0708,5.0675,5.0675,5.0708,5.0684,5.0675,5.0708,5.0717,5.0708,5.0675,5.051,5.0452,5.0444,5.0609,5.0717,5.0717,5.0684,5.0717,5.075,5.1289,5.1538,5.164,5.254,5.2956,5.2999,5.3518,5.3837,5.3988,5.4256,5.5076,5.6305,5.7332,5.779,5.779,5.779,5.779,5.7712,5.6616,5.6019,5.6027,5.6019,5.6019,5.6019,5.6019,5.6056,5.6081,5.6029,5.6062,5.6162,5.641,5.6283,5.574,5.5747,5.5651,5.5332,5.5092,5.5056,5.5377,5.5407,5.5407,5.5407,5.5589,5.5914,5.6398,5.621,5.577,5.5558,5.6138,5.6573,5.6687,5.7267,5.7985,5.8594,5.8667,5.8956,5.9717,6.0043,6.0224,6.052,6.1666,6.2542,6.2759,6.3635,6.4367,6.4649,6.5374,6.5844,6.5953,6.6453,6.617,6.541,6.4939,6.5011,6.4946,6.4982,6.5011,6.4939,6.5019,6.5091,6.5055,6.5019,6.4975,6.5048,6.5011,6.5084,6.4975,6.5019,6.5272,6.5736,6.5844,6.6062,6.6525,6.667,6.6424,5.2159,5.2192,5.2126,5.2184,5.2126,5.2159,5.2126,5.2159,5.2192,5.2192,5.206,5.1497,5.1207,5.1306,5.1861,5.2126,5.2126,5.2192,5.215,5.2126,5.225,5.2283,5.2292,5.2454,5.2463,5.2622,5.3225,5.3786,5.4215,5.5375,5.6505,5.7522,5.7774,5.7837,5.7809,5.7852,5.7825,5.779,5.7641,5.7606,5.7606,5.7606,5.7614,5.7579,5.7571,5.7708,5.78,5.7731,5.7407,5.704,5.7034,5.6702,5.6042,5.6166,5.6409,5.661,5.6574,5.6691,5.6933,5.6977,5.7007,5.7043,5.7623,5.8021,5.8166,5.8709,5.8528,5.7478,5.7695,5.8094,5.8239,5.8818,5.9319,5.9536,5.9566,5.9783,6.0688,6.134,6.2064,6.2816,6.3497,6.4178,6.4142,6.4403,6.4765,6.541,6.6098,6.6561,6.6561,6.667,6.6779,6.6561,6.6525,6.6489,6.6424,6.6561,6.6344,6.6417,6.6525,6.6388,6.6315,6.6351,6.6525,6.6091,6.6388,6.6351,6.6388,6.6561,6.6496,6.6417,6.6525,6.667,6.6779,6.6815,6.6598,5.24,5.24,5.24,5.24,5.24,5.24,5.24,5.24,5.24,5.24,5.2367,5.206,5.1927,5.1961,5.2268,5.24,5.24,5.24,5.24,5.2424,5.2813,5.3003,5.3036,5.3467,5.3623,5.3665,5.3921,5.4164,5.4555,5.5716,5.6617,5.7123,5.8106,5.8676,5.8693,5.9008,5.9159,5.9167,5.965,5.9861,5.9713,5.8492,5.779,5.779,5.779,5.7836,5.795,5.7851,5.771,5.7537,5.7674,5.7628,5.7295,5.7383,5.7626,5.7914,5.8064,5.8206,5.8312,5.8527,5.8631,5.8601,5.8927,5.9101,5.9108,5.9434,5.9282,5.8818,5.8927,5.9101,5.9174,5.9427,5.9934,6.076,6.1014,6.1491,6.2795,6.3194,6.3599,6.3932,6.462,6.5127,6.5192,6.5518,6.5917,6.6279,6.6641,6.6779,6.6815,6.6815,6.6815,6.6815,6.6815,6.6815,6.6815,6.6815,6.6815,6.6815,6.6815,6.6815,6.6815,6.6815,6.6779,6.6815,6.6815,6.6815,6.6706,6.6815,6.6815,6.6815,6.6815,6.6815,6.6815,6.6815,6.6815,5.24,5.24,5.24,5.24,5.24,5.24,5.24,5.24,5.24,5.2491,5.2647,5.2681,5.278,5.2913,5.259,5.2491,5.2647,5.2681,5.2813,5.3012,5.3491,5.368,5.378,5.4243,5.4517,5.4541,5.4697,5.499,5.5446,5.6703,5.7412,5.7791,5.9297,6.0153,6.0203,6.0549,6.0712,6.0782,6.1309,6.1616,6.1371,5.9931,5.9053,5.9053,5.8835,5.8773,5.8737,5.857,5.8351,5.8148,5.832,5.83,5.8124,5.8096,5.823,5.8544,5.8907,5.9108,5.9108,5.94,5.9602,5.9608,5.9789,5.9928,6.0007,6.0333,6.0593,6.0629,6.0774,6.0876,6.0296,6.0448,6.1202,6.2469,6.2687,6.32,6.4178,6.4548,6.4685,6.4801,6.5446,6.5917,6.5982,6.638,6.6706,6.6742,6.6779,6.6815,6.6815,6.6815,6.6815,6.6815,6.6815,6.6815,6.6815,6.6815,6.6815,6.6815,6.6815,6.6815,6.6815,6.6815,6.6815,6.6815,6.6815,6.6815,6.6815,6.6815,6.6815,6.6815,6.6815,6.6815,6.6815,6.6815,6.6815,5.24,5.24,5.24,5.24,5.24,5.2433,5.2433,5.2458,5.2467,5.2813,5.3325,5.3349,5.3746,5.4219,5.3069,5.278,5.3292,5.3358,5.3689,5.4243,5.4418,5.4442,5.4475,5.4508,5.4541,5.474,5.5369,5.624,5.7428,5.8719,5.9732,6.0195,6.1307,6.2122,6.201,6.2042,6.2265,6.216,6.23,6.237,6.2362,6.2222,6.2081,6.2011,6.1476,6.102,6.0984,6.0388,5.9721,5.9003,5.9042,5.8691,5.7988,5.7883,5.8063,5.8315,5.8809,5.9124,5.923,5.9596,5.9776,5.9826,6.055,6.0833,6.105,6.2078,6.2773,6.2961,6.3425,6.3309,6.2288,6.244,6.3171,6.4041,6.4251,6.4323,6.4468,6.52,6.5526,6.5663,6.6199,6.6561,6.6677,6.6779,6.6815,6.6815,6.6815,6.6815,6.6815,6.6815,6.6815,6.6815,6.6815,6.6815,6.6815,6.6815,6.6815,6.6815,6.6815,6.6815,6.6815,6.6815,6.6815,6.6815,6.6815,6.6815,6.6815,6.6815,6.6815,6.6815,6.6815,6.6815,6.6815,6.6815,6.6815,5.24,5.24,5.24,5.24,5.2458,5.2837,5.3027,5.3102,5.3557,5.3846,5.4078,5.4111,5.4243,5.4475,5.3987,5.3846,5.4078,5.412,5.4243,5.4541,5.4972,5.5204,5.527,5.5677,5.5918,5.6017,5.6647,5.7483,5.8362,5.8958,5.9262,5.9614,6.0679,6.1308,6.144,6.2035,6.2405,6.2476,6.2889,6.317,6.3205,6.3618,6.3855,6.382,6.2635,6.2011,6.2019,6.173,6.1457,6.116,6.0739,6.0352,6.0036,5.9545,5.9311,5.9452,5.9843,6.0163,6.0418,6.1149,6.1668,6.1949,6.2657,6.3019,6.3164,6.3642,6.3968,6.4048,6.4185,6.4215,6.4323,6.4142,6.4301,6.4982,6.5156,6.5374,6.5844,6.6207,6.6388,6.6417,6.667,6.6779,6.6815,6.6815,6.6815,6.6815,6.6815,6.6815,6.6815,6.6815,6.6815,6.6815,6.6815,6.6815,6.6815,6.6815,6.6815,6.6815,6.6815,6.6815,6.6815,6.6815,6.6815,6.6815,6.6815,6.6815,6.6815,6.6815,6.6815,6.6815,6.6815,6.6815,6.6815,6.6815,6.6815,5.2515,5.2714,5.2714,5.2888,5.3102,5.3557,5.3746,5.3813,5.4276,5.4641,5.4806,5.4872,5.4972,5.518,5.5222,5.5213,5.518,5.4972,5.4972,5.5246,5.5743,5.5932,5.6074,5.6723,5.7054,5.7153,5.7816,5.8446,5.8906,5.9319,5.9551,5.9637,6.0789,6.1403,6.1579,6.2378,6.2837,6.2994,6.3559,6.3969,6.4039,6.4452,6.4697,6.4548,6.3688,6.3029,6.2783,6.2546,6.2405,6.2335,6.1897,6.1652,6.1581,6.1168,6.0852,6.0884,6.1156,6.1485,6.1863,6.2649,6.3199,6.3571,6.4041,6.4403,6.4403,6.4649,6.4765,6.483,6.5084,6.5446,6.5736,6.5482,6.541,6.5881,6.5989,6.617,6.6714,6.6779,6.6779,6.6742,6.6779,6.6815,6.6815,6.6815,6.6815,6.6815,6.6815,6.6815,6.6815,6.6815,6.6815,6.6815,6.6815,6.6815,6.6815,6.6815,6.6815,6.6815,6.6815,6.6815,6.6815,6.6815,6.6815,6.6815,6.6815,6.6815,6.6815,6.6815,6.6815,6.6815,6.6815,6.6815,6.6815,6.6815,6.6924,5.2846,5.3391,5.3415,5.3756,5.4276,5.4442,5.4508,5.4541,5.4598,5.5071,5.5568,5.5591,5.5909,5.6458,5.6425,5.659,5.6382,5.5942,5.6008,5.6458,5.6666,5.6713,5.6756,5.7442,5.7882,5.7949,5.8568,5.8943,5.9151,6.0164,6.0719,6.107,6.198,6.2539,6.281,6.3326,6.3757,6.3874,6.4341,6.4619,6.4697,6.4697,6.4697,6.4697,6.4557,6.425,6.3626,6.2924,6.2608,6.2573,6.2476,6.2405,6.2335,6.223,6.23,6.2263,6.2587,6.2959,6.3259,6.3606,6.3954,6.4318,6.4447,6.4621,6.483,6.5236,6.5591,6.57,6.617,6.6706,6.667,6.6598,6.6561,6.6786,6.6677,6.6714,6.6779,6.6815,6.6815,6.6815,6.6815,6.6815,6.6815,6.6815,6.6815,6.6815,6.6815,6.6815,6.6815,6.6815,6.6815,6.6815,6.6815,6.6815,6.6815,6.6815,6.6815,6.6815,6.6815,6.6815,6.6815,6.6815,6.6815,6.6815,6.6815,6.6815,6.6815,6.6815,6.6815,6.6815,6.6815,6.6996,6.7105,6.7213,6.7257,5.3978,5.4144,5.4144,5.4276,5.4574,5.5029,5.526,5.5303,5.5776,5.615,5.6316,5.6349,5.6491,5.6666,5.669,5.6723,5.6723,5.6912,5.6978,5.6865,5.722,5.7452,5.7584,5.8214,5.8833,5.9264,5.9529,5.9926,6.0398,6.0815,6.103,6.1219,6.1852,6.2474,6.2878,6.3487,6.3951,6.4419,6.4602,6.4689,6.4697,6.4697,6.4697,6.4697,6.4697,6.4548,6.4346,6.4101,6.3995,6.3934,6.3486,6.3002,6.2546,6.2405,6.2405,6.2414,6.2488,6.2701,6.3077,6.367,6.4311,6.4853,6.5348,6.5791,6.6033,6.6243,6.6388,6.6424,6.667,6.6815,6.6815,6.6815,6.6815,6.6815,6.6815,6.6815,6.6815,6.6815,6.6815,6.6815,6.6815,6.6815,6.6815,6.6815,6.6815,6.6815,6.6815,6.6815,6.6815,6.6815,6.6815,6.6815,6.6815,6.6815,6.6815,6.6815,6.6815,6.6815,6.6815,6.6815,6.6815,6.6815,6.6815,6.6996,6.696,6.7003,6.696,6.6996,6.7112,6.7177,6.7366,6.751,6.7648,6.78,6.7916,5.4664,5.4906,5.4896,5.5071,5.5345,5.5842,5.6008,5.6074,5.6481,5.669,5.669,5.669,5.669,5.6756,5.6988,5.712,5.7187,5.7882,5.7949,5.7617,5.7949,5.8204,5.8313,5.8966,5.9694,6.0291,6.0423,6.0645,6.1075,6.1109,6.1109,6.1179,6.1475,6.1957,6.2552,6.3162,6.3743,6.4288,6.4585,6.4697,6.4697,6.4697,6.4697,6.4697,6.4697,6.4697,6.4697,6.4697,6.4697,6.4627,6.425,6.3758,6.3302,6.3267,6.3231,6.3267,6.3292,6.3426,6.3758,6.428,6.4731,6.5337,6.5956,6.6353,6.6593,6.669,6.6815,6.6815,6.6815,6.6815,6.6815,6.6815,6.6815,6.6815,6.6815,6.6815,6.6815,6.6815,6.6815,6.6815,6.6815,6.6815,6.6815,6.6815,6.6815,6.6815,6.6815,6.6815,6.6815,6.6815,6.6815,6.6815,6.6815,6.6815,6.6815,6.6815,6.6815,6.6815,6.6815,6.6815,6.6815,6.6815,6.6822,6.7474,6.7692,6.8061,6.8097,6.7989,6.8025,6.8017,6.8017,6.8279,6.8496,6.8685,6.8793,5.5038,5.5634,5.5667,5.6008,5.6557,5.6623,5.6623,5.6656,5.669,5.669,5.669,5.6822,5.6832,5.6955,5.7551,5.7839,5.7972,5.8634,5.8933,5.8899,5.9075,5.9131,5.9231,5.9794,6.038,6.091,6.102,6.1075,6.1109,6.1109,6.1109,6.1119,6.1192,6.1465,6.2195,6.2692,6.3302,6.4021,6.4481,6.4689,6.4697,6.4697,6.4697,6.4697,6.4697,6.4697,6.4697,6.4697,6.4697,6.4697,6.4654,6.4557,6.4627,6.4689,6.4513,6.4487,6.4654,6.4719,6.5016,6.4943,6.5229,6.5669,6.5988,6.6292,6.6435,6.6653,6.6815,6.6815,6.6815,6.68,6.6778,6.6756,6.672,6.6742,6.6749,6.6808,6.6815,6.6815,6.6815,6.6815,6.6815,6.6815,6.6815,6.6815,6.6815,6.6815,6.6815,6.6815,6.6815,6.6815,6.6815,6.6815,6.6808,6.6815,6.6815,6.7213,6.7249,6.7322,6.7322,6.7402,6.7293,6.7293,6.7402,6.8025,6.8496,6.8938,6.9018,6.8793,6.8721,6.8721,6.8866,6.9163,6.938,6.9554,6.9735,5.6226,5.6415,5.6415,5.6514,5.6699,5.669,5.669,5.669,5.669,5.6732,5.6822,5.7286,5.7485,5.7574,5.828,5.8601,5.88,5.9363,5.9728,5.9827,6.0314,6.0523,6.0512,6.0678,6.0877,6.1075,6.1109,6.1109,6.1109,6.1109,6.1109,6.1109,6.1119,6.1628,6.2557,6.2792,6.3485,6.4349,6.4585,6.4697,6.4697,6.4697,6.4697,6.4697,6.4697,6.4697,6.4697,6.4697,6.4697,6.4697,6.4697,6.4697,6.4697,6.4697,6.4697,6.4697,6.4697,6.4723,6.4817,6.486,6.5147,6.5724,6.5899,6.6158,6.6667,6.6727,6.6815,6.6815,6.6815,6.6675,6.6495,6.6442,6.6442,6.6473,6.6601,6.6778,6.6815,6.6815,6.6815,6.6815,6.68,6.6763,6.6756,6.6763,6.6763,6.6763,6.6756,6.6748,6.6653,6.6668,6.6623,6.6771,6.68,6.6808,6.696,6.7431,6.772,6.7901,6.809,6.838,6.8315,6.8279,6.854,6.8938,6.922,6.959,6.938,6.9127,6.9199,6.9518,6.9735,7.0025,7.0278,7.0488,7.0778,5.669,5.669,5.669,5.669,5.669,5.669,5.669,5.669,5.669,5.6898,5.722,5.7574,5.7982,5.8303,5.9032,5.9363,5.9463,6.0115,6.0446,6.0512,6.0844,6.1042,6.1075,6.1109,6.1109,6.1109,6.1109,6.1109,6.1109,6.1109,6.1109,6.1109,6.1109,6.1719,6.2807,6.2941,6.3478,6.4481,6.4697,6.4697,6.4697,6.4697,6.4697,6.4697,6.4697,6.4697,6.4697,6.4697,6.4697,6.4697,6.4697,6.4697,6.4697,6.4697,6.4697,6.4697,6.4697,6.4697,6.4697,6.4697,6.4962,6.5445,6.5656,6.5978,6.6305,6.6488,6.6571,6.6374,6.6381,6.629,6.6122,6.6068,6.6068,6.6119,6.6274,6.6495,6.6727,6.6653,6.6601,6.6563,6.6473,6.6381,6.6389,6.6397,6.6397,6.6366,6.632,6.632,6.6328,6.6389,6.6456,6.6573,6.681,6.6921,6.7212,6.7703,6.8242,6.8417,6.8955,6.9268,6.9182,6.919,6.9481,6.9735,6.9989,7.0126,6.9989,6.9989,7.0307,7.0597,7.0742,7.0814,7.0995,7.0995,7.135,5.669,5.669,5.669,5.669,5.669,5.669,5.6799,5.6822,5.6888,5.7253,5.7849,5.8015,5.8535,5.9055,5.9751,6.0125,6.0158,6.0711,6.0943,6.1009,6.1109,6.1109,6.1109,6.1109,6.1109,6.1109,6.1109,6.1109,6.1109,6.1109,6.1109,6.1109,6.1109,6.176,6.2673,6.2922,6.3533,6.4489,6.4697,6.4697,6.4697,6.4697,6.4697,6.4697,6.4697,6.4697,6.4697,6.4697,6.4697,6.4697,6.4697,6.4697,6.4697,6.4697,6.4697,6.4697,6.4697,6.4697,6.4697,6.4706,6.4852,6.5212,6.5559,6.578,6.5907,6.6091,6.6166,6.5947,6.5812,6.5844,6.5736,6.572,6.572,6.5736,6.576,6.6119,6.6465,6.6435,6.6231,6.6251,6.5986,6.5844,6.5804,6.5804,6.5836,6.608,6.6033,6.6041,6.6149,6.6315,6.6328,6.6324,6.667,6.7126,6.7501,6.7999,6.8554,6.901,6.9764,7.0135,6.9922,6.9989,7.0312,7.0561,7.0705,7.0879,7.106,7.1205,7.1269,7.1277,7.1168,7.1313,7.1458,7.135,7.1494,5.669,5.669,5.669,5.669,5.669,5.6723,5.7054,5.7551,5.7551,5.7972,5.8668,5.9231,5.9562,5.9784,6.0479,6.0844,6.0821,6.1009,6.1109,6.1109,6.1109,6.1109,6.1109,6.1109,6.1109,6.1109,6.1109,6.1109,6.1109,6.1109,6.1109,6.1109,6.1181,6.1689,6.2702,6.2931,6.3469,6.4489,6.4689,6.4697,6.4697,6.4697,6.4697,6.4697,6.4697,6.4697,6.4697,6.4697,6.4697,6.4697,6.4697,6.4697,6.4697,6.4697,6.4697,6.4697,6.4697,6.4697,6.4697,6.4715,6.4852,6.5162,6.5311,6.5442,6.5788,6.5808,6.5883,6.5796,6.5796,6.5599,6.5404,6.5327,6.5319,6.536,6.5567,6.5804,6.597,6.5962,6.5923,6.5891,6.5828,6.5788,6.5772,6.5724,6.5732,6.578,6.5772,6.5788,6.597,6.6206,6.6327,6.636,6.7063,6.7555,6.7835,6.8405,6.9063,6.9559,7.0249,7.073,7.0518,7.0652,7.0928,7.1132,7.1305,7.1487,7.1487,7.1487,7.1422,7.145,7.1494,7.1494,7.1494,7.1494,7.1494,5.669,5.669,5.669,5.669,5.6756,5.7054,5.7452,5.7816,5.8181,5.8734,5.9363,5.986,6.0191,6.0512,6.091,6.1075,6.1109,6.1109,6.1109,6.1109,6.1109,6.1109,6.1109,6.1109,6.1109,6.1109,6.1109,6.1109,6.1109,6.1109,6.1109,6.1109,6.1109,6.1547,6.244,6.2754,6.3392,6.4137,6.4576,6.4697,6.4697,6.4697,6.4697,6.4697,6.4697,6.4697,6.4697,6.4697,6.4697,6.4697,6.4697,6.4697,6.4697,6.4697,6.4697,6.4697,6.4697,6.4697,6.4697,6.4715,6.4852,6.517,6.5176,6.5302,6.5477,6.5526,6.542,6.5321,6.5247,6.5172,6.5013,6.4952,6.4952,6.4977,6.5155,6.528,6.5297,6.5412,6.5526,6.5486,6.5354,6.5264,6.5255,6.5398,6.534,6.5214,6.5268,6.5312,6.5852,6.6101,6.648,6.6808,6.7577,6.8098,6.8274,6.882,6.9657,7.0091,7.056,7.0824,7.0798,7.1099,7.1414,7.1487,7.1487,7.1487,7.1494,7.1494,7.1494,7.1494,7.1494,7.1494,7.1494,7.1494,7.1494,5.669,5.669,5.669,5.669,5.6822,5.7461,5.7882,5.8104,5.8734,5.9496,6.0059,6.0158,6.0545,6.0986,6.1075,6.1109,6.1109,6.1109,6.1109,6.1109,6.1109,6.1109,6.1109,6.1109,6.1109,6.1109,6.1109,6.1109,6.1109,6.1109,6.1109,6.1109,6.1109,6.1499,6.2027,6.26,6.3218,6.3852,6.4454,6.4697,6.4697,6.4697,6.4697,6.4697,6.4697,6.4697,6.4697,6.4697,6.4697,6.4697,6.4697,6.4697,6.4697,6.4697,6.4697,6.4697,6.4697,6.4697,6.4697,6.4706,6.4835,6.512,6.5112,6.5112,6.5128,6.512,6.5038,6.4877,6.4792,6.4792,6.4697,6.474,6.4732,6.4723,6.4706,6.4697,6.4749,6.4952,6.5095,6.5095,6.503,6.4928,6.486,6.4886,6.4766,6.4732,6.4803,6.5048,6.5654,6.6312,6.684,6.7341,6.8143,6.8593,6.8769,6.884,6.9725,7.0069,7.0528,7.0714,7.0856,7.1102,7.1296,7.1463,7.1487,7.1494,7.1494,7.1494,7.1494,7.1494,7.1494,7.1494,7.1494,7.1494,7.1494,5.669,5.669,5.669,5.669,5.6822,5.7485,5.8181,5.8767,5.9496,6.0214,6.0844,6.091,6.0943,6.1075,6.1109,6.1109,6.1109,6.1109,6.1109,6.1109,6.1109,6.1109,6.1109,6.1109,6.1109,6.1109,6.1109,6.1109,6.1109,6.1109,6.1109,6.1109,6.1109,6.1417,6.1937,6.2605,6.3105,6.3661,6.4279,6.4594,6.4689,6.4697,6.4697,6.4697,6.4697,6.4697,6.4697,6.4697,6.4697,6.4697,6.4697,6.4697,6.4697,6.4697,6.4697,6.4697,6.4697,6.4697,6.4697,6.4697,6.4715,6.4775,6.4817,6.4817,6.4809,6.4809,6.4792,6.4749,6.4697,6.4697,6.4697,6.4697,6.4697,6.4697,6.4697,6.4697,6.4715,6.4775,6.4843,6.4852,6.4749,6.4697,6.4697,6.4768,6.4838,6.5013,6.5276,6.5654,6.6216,6.7023,6.7788,6.8262,6.8719,6.9053,6.9283,6.9257,6.9551,6.9661,7.0009,7.0332,7.0511,7.0847,7.1078,7.128,7.1439,7.1494,7.1494,7.1494,7.1494,7.1494,7.1494,7.1494,7.1494,7.1494,7.1494,5.669,5.669,5.669,5.6922,5.7352,5.8048,5.88,5.9529,6.0247,6.0755,6.1009,6.1109,6.1109,6.1109,6.1109,6.1109,6.1109,6.1109,6.1109,6.1109,6.1109,6.1109,6.1109,6.1109,6.1109,6.1109,6.1109,6.1109,6.1109,6.1109,6.1109,6.1109,6.1109,6.1252,6.1598,6.2106,6.2725,6.333,6.3931,6.4402,6.4654,6.4697,6.4697,6.4697,6.4697,6.4697,6.4697,6.4697,6.4697,6.4697,6.4697,6.4697,6.4697,6.4697,6.4697,6.4697,6.4697,6.4697,6.4697,6.4697,6.4697,6.4697,6.4697,6.4697,6.4697,6.4706,6.4672,6.4689,6.4697,6.4697,6.4697,6.4697,6.4697,6.4697,6.4697,6.4697,6.4697,6.4697,6.4697,6.4697,6.4697,6.4697,6.4697,6.4803,6.4934,6.5268,6.5671,6.6224,6.6813,6.762,6.8418,6.8779,6.9104,6.9209,6.9394,6.9394,6.9385,6.9477,6.9632,6.992,7.0272,7.0621,7.0905,7.1135,7.1272,7.1479,7.1494,7.1494,7.1494,7.1494,7.1494,7.1494,7.1494,7.1494,7.1494,5.669,5.669,5.669,5.712,5.7849,5.8568,5.9287,6.0059,6.0755,6.1075,6.1109,6.1109,6.1109,6.1109,6.1109,6.1109,6.1109,6.1109,6.1109,6.1109,6.1109,6.1109,6.1109,6.1109,6.1109,6.1109,6.1109,6.1109,6.1109,6.1109,6.1109,6.1109,6.1109,6.1109,6.1262,6.182,6.2284,6.2745,6.3459,6.4067,6.4559,6.4697,6.4697,6.4697,6.4697,6.4697,6.4697,6.4697,6.4697,6.4697,6.4697,6.4697,6.4697,6.4697,6.4697,6.4697,6.4697,6.4697,6.4697,6.4697,6.4697,6.4697,6.4697,6.4697,6.4628,6.4576,6.4498,6.4646,6.4533,6.4585,6.4646,6.4697,6.4697,6.4697,6.4697,6.4697,6.4697,6.4697,6.4697,6.4697,6.4697,6.4724,6.4724,6.4768,6.4934,6.5619,6.6058,6.6848,6.7436,6.8112,6.8779,6.9104,6.935,6.935,6.9394,6.9394,6.9385,6.9422,6.955,6.975,7.0106,7.0434,7.0705,7.1024,7.1312,7.1494,7.1494,7.1494,7.1494,7.1494,7.1494,7.1494,7.1494,7.1494,7.1494,5.669,5.669,5.6723,5.712,5.7882,5.8644,5.933,6.0092,6.081,6.1075,6.1109,6.1109,6.1109,6.1109,6.1109,6.1109,6.1109,6.1109,6.1109,6.1109,6.1109,6.1109,6.1109,6.1109,6.1109,6.1109,6.1109,6.1109,6.1109,6.1109,6.1109,6.1109,6.1109,6.1109,6.1181,6.1598,6.1983,6.2289,6.3237,6.4093,6.4585,6.4697,6.4697,6.4697,6.4697,6.4697,6.4697,6.4697,6.4697,6.4697,6.4697,6.4697,6.4697,6.4697,6.4697,6.4697,6.4697,6.4697,6.4697,6.4697,6.4697,6.4697,6.4697,6.4697,6.462,6.4341,6.4279,6.4646,6.4305,6.4261,6.4611,6.4689,6.4697,6.4697,6.4697,6.4697,6.4697,6.4697,6.4697,6.4697,6.4697,6.4759,6.4829,6.4864,6.4978,6.5724,6.6505,6.7295,6.8032,6.8638,6.8998,6.9279,6.9385,6.9385,6.9385,6.9385,6.9385,6.9385,6.9486,6.9632,6.9867,7.0211,7.0606,7.0908,7.1207,7.1463,7.1494,7.1494,7.1494,7.1494,7.1494,7.1494,7.1494,7.1494,7.1494,5.669,5.6723,5.712,5.775,5.8469,5.9198,5.9926,6.0579,6.0943,6.1109,6.1109,6.1109,6.1109,6.1109,6.1109,6.1109,6.1109,6.1109,6.1109,6.1109,6.1109,6.1109,6.1109,6.1109,6.1109,6.1109,6.1109,6.1109,6.1109,6.1109,6.1109,6.1109,6.1109,6.1109,6.1109,6.1355,6.1656,6.2211,6.3143,6.4075,6.455,6.4689,6.4697,6.4697,6.4697,6.4697,6.4697,6.4697,6.4697,6.4697,6.4697,6.4697,6.4697,6.4697,6.4697,6.4697,6.4697,6.4697,6.4697,6.4689,6.4697,6.4697,6.4697,6.4697,6.4637,6.4481,6.4314,6.4646,6.4454,6.4446,6.4611,6.4689,6.4697,6.4697,6.4697,6.4697,6.4697,6.4697,6.4697,6.4697,6.4768,6.5013,6.5294,6.554,6.5821,6.6453,6.7199,6.7936,6.8533,6.9043,6.9289,6.935,6.9385,6.9385,6.9385,6.9385,6.9385,6.9385,6.9394,6.9522,6.9632,6.992,7.0349,7.0691,7.0946,7.1183,7.1399,7.1494,7.1494,7.1494,7.1494,7.1494,7.1494,7.1494,7.1431,5.6955,5.7031,5.7584,5.8313,5.9208,5.9761,6.0413,6.1042,6.1075,6.1109,6.1109,6.1109,6.1109,6.1109,6.1109,6.1109,6.1109,6.1109,6.1109,6.1109,6.1109,6.1109,6.1109,6.1109,6.1109,6.1109,6.1109,6.1109,6.1109,6.1109,6.1109,6.1109,6.1109,6.1109,6.1109,6.1202,6.1437,6.2076,6.2992,6.377,6.4323,6.462,6.4672,6.4697,6.4697,6.4697,6.4697,6.4697,6.4697,6.4697,6.4697,6.4697,6.4697,6.4697,6.4697,6.4646,6.4559,6.4376,6.4472,6.455,6.4663,6.4697,6.4697,6.4689,6.4654,6.462,6.4611,6.4654,6.4437,6.4498,6.4654,6.4697,6.4697,6.4697,6.4697,6.4697,6.4732,6.4838,6.5048,6.5233,6.5373,6.5619,6.5935,6.6365,6.6777,6.726,6.7892,6.8533,6.8963,6.9359,6.9394,6.9385,6.9385,6.9385,6.9385,6.9385,6.9385,6.9385,6.9385,6.9422,6.9532,6.975,7.0141,7.0453,7.0697,7.1086,7.1415,7.1455,7.1494,7.1494,7.1494,7.1494,7.1494,7.1494,7.1312,5.775,5.7707,5.7816,5.8644,5.9893,5.9949,6.0456,6.1075,6.1109,6.1109,6.1109,6.1109,6.1109,6.1109,6.1109,6.1109,6.1109,6.1109,6.1109,6.1109,6.1109,6.1109,6.1109,6.1109,6.1109,6.1109,6.1109,6.1109,6.1109,6.1109,6.1109,6.1109,6.1109,6.1109,6.1109,6.114,6.1404,6.1977,6.2677,6.3293,6.3888,6.4323,6.4602,6.4637,6.4672,6.4697,6.4689,6.468,6.4697,6.4697,6.4697,6.4697,6.4697,6.4697,6.4697,6.4628,6.4226,6.4066,6.4084,6.4252,6.4568,6.4654,6.4646,6.4576,6.4533,6.4146,6.4191,6.4594,6.4419,6.4341,6.455,6.4697,6.4697,6.4768,6.4838,6.5022,6.5048,6.5154,6.5364,6.5698,6.5979,6.6251,6.6672,6.7129,6.7304,6.7751,6.8173,6.8814,6.9069,6.9394,6.9394,6.9385,6.9385,6.9385,6.9385,6.9385,6.9385,6.9385,6.9385,6.9385,6.9422,6.9687,6.9911,7.0219,7.0485,7.0971,7.1256,7.0993,7.0916,7.1344,7.1494,7.1494,7.1494,7.1494,7.1211,5.8336,5.9131,5.9164,5.9463,6.0059,6.0479,6.0844,6.1075,6.1109,6.1109,6.1109,6.1109,6.1109,6.1109,6.1109,6.1109,6.1109,6.1109,6.1109,6.1109,6.1109,6.1109,6.1109,6.1109,6.1109,6.1109,6.1109,6.1109,6.1109,6.1109,6.1109,6.1109,6.1109,6.1109,6.1109,6.114,6.1435,6.1847,6.2269,6.2783,6.3679,6.3976,6.4155,6.4155,6.4594,6.4428,6.427,6.4542,6.4637,6.4672,6.4646,6.4646,6.4663,6.4663,6.4697,6.4628,6.4128,6.3816,6.3661,6.3698,6.3561,6.3705,6.3904,6.4199,6.4288,6.4217,6.4384,6.455,6.4498,6.4454,6.4602,6.4697,6.4732,6.4838,6.5048,6.5338,6.5514,6.5645,6.5996,6.6461,6.6707,6.6918,6.74,6.7918,6.8032,6.8208,6.8638,6.9034,6.9244,6.9385,6.9385,6.9385,6.9385,6.9385,6.9385,6.9385,6.9385,6.9385,6.9385,6.932,6.9302,6.9412,6.9668,6.9947,7.0079,7.0252,7.0294,7.0164,7.037,7.0866,7.1244,7.1494,7.1494,7.1344,7.0878,5.9065,5.9993,6.0258,6.0324,6.038,6.0877,6.1109,6.1109,6.1109,6.1109,6.1109,6.1109,6.1109,6.1109,6.1109,6.1109,6.1109,6.1109,6.1109,6.1109,6.1109,6.1109,6.1109,6.1109,6.1109,6.1109,6.1109,6.1109,6.1109,6.1109,6.1109,6.1109,6.1109,6.1109,6.1109,6.114,6.1334,6.1648,6.2037,6.2299,6.3199,6.3432,6.3524,6.3551,6.3886,6.3852,6.367,6.3832,6.3994,6.4111,6.4217,6.4402,6.4489,6.4585,6.4672,6.4507,6.4173,6.3734,6.3441,6.3209,6.2983,6.3395,6.3625,6.3931,6.4128,6.4463,6.4628,6.4672,6.468,6.4732,6.4768,6.4908,6.5162,6.5373,6.5935,6.6216,6.6286,6.6418,6.6874,6.7295,6.7471,6.7646,6.8182,6.8638,6.8638,6.8708,6.8919,6.9209,6.9279,6.9385,6.9385,6.9385,6.9385,6.9385,6.9385,6.9385,6.9385,6.9385,6.9348,6.9181,6.9127,6.9246,6.9266,6.9408,6.9499,6.9463,6.9527,6.9609,6.9998,7.048,7.0667,7.0692,7.036,7.012,7.0121,5.996,6.0092,6.0755,6.1042,6.1009,6.1075,6.1109,6.1109,6.1109,6.1109,6.1109,6.1109,6.1109,6.1109,6.1109,6.1109,6.1109,6.1109,6.1109,6.1109,6.1109,6.1109,6.1109,6.1109,6.1109,6.1109,6.1109,6.1109,6.1109,6.1109,6.1109,6.1109,6.1109,6.1109,6.1109,6.1109,6.1129,6.12,6.1729,6.1987,6.2343,6.2716,6.2869,6.2954,6.3134,6.318,6.3021,6.3152,6.3293,6.332,6.3668,6.3814,6.3859,6.4235,6.4437,6.4446,6.3924,6.3422,6.2926,6.2859,6.2926,6.3209,6.3283,6.3761,6.4349,6.4646,6.4689,6.4697,6.4794,6.4794,6.5013,6.5373,6.5689,6.6049,6.6602,6.7023,6.7084,6.7409,6.7866,6.8112,6.8208,6.8418,6.8954,6.9315,6.9279,6.9315,6.935,6.9385,6.9385,6.9385,6.9385,6.9385,6.9385,6.9385,6.9385,6.9385,6.9385,6.9385,6.9311,6.9118,6.8967,6.8958,6.8989,6.8938,6.873,6.853,6.8856,6.9202,6.9165,6.9019,6.9429,6.9457,6.9139,6.9067,6.9258,6.0281,6.0755,6.1009,6.1109,6.1109,6.1109,6.1109,6.1109,6.1109,6.1109,6.1109,6.1109,6.1109,6.1109,6.1109,6.1109,6.1109,6.1109,6.1109,6.1109,6.1109,6.1109,6.1109,6.1109,6.1109,6.1109,6.1109,6.1109,6.1109,6.1109,6.1109,6.1109,6.1109,6.1109,6.1109,6.1109,6.1109,6.114,6.1355,6.1577,6.1967,6.2205,6.2313,6.2333,6.2644,6.2654,6.2382,6.2542,6.274,6.2779,6.3096,6.318,6.3209,6.3542,6.3586,6.3422,6.2964,6.2318,6.19,6.1689,6.176,6.2215,6.2812,6.3274,6.3531,6.4349,6.4568,6.4838,6.5093,6.5224,6.5628,6.6216,6.6602,6.6777,6.7225,6.7646,6.7927,6.8437,6.8867,6.8928,6.9034,6.8989,6.9279,6.9385,6.9385,6.9385,6.9385,6.9385,6.9385,6.9385,6.9385,6.9385,6.9385,6.9385,6.9385,6.9385,6.9385,6.9385,6.9292,6.909,6.8958,6.8676,6.8313,6.8113,6.7826,6.7596,6.7822,6.7931,6.745,6.7379,6.8004,6.855,6.8607,6.8676,6.891,6.0645,6.1075,6.1109,6.1109,6.1109,6.1109,6.1109,6.1109,6.1109,6.1109,6.1109,6.1109,6.1109,6.1109,6.1109,6.1109,6.1109,6.1109,6.1109,6.1109,6.1109,6.1109,6.1109,6.1109,6.1109,6.1109,6.1109,6.1109,6.1109,6.1109,6.1109,6.1109,6.1109,6.1109,6.1109,6.1109,6.1109,6.1119,6.12,6.1303,6.1557,6.1699,6.1666,6.18,6.1927,6.2047,6.1887,6.2017,6.2293,6.2352,6.2469,6.2586,6.26,6.2754,6.2865,6.2716,6.2318,6.1857,6.1628,6.1231,6.1324,6.1314,6.2076,6.2644,6.2912,6.3604,6.4093,6.4508,6.523,6.5669,6.6045,6.6702,6.74,6.7576,6.7971,6.8383,6.8638,6.9148,6.9218,6.9359,6.9394,6.9394,6.9385,6.9385,6.9385,6.9385,6.9385,6.9385,6.9385,6.9385,6.9385,6.9385,6.9385,6.9385,6.9385,6.9385,6.9385,6.9385,6.9237,6.9014,6.8532,6.8177,6.7731,6.7305,6.7096,6.6933,6.6726,6.6578,6.6631,6.6713,6.6969,6.7507,6.7975,6.8048,6.8078,6.1109,6.1109,6.1109,6.1109,6.1109,6.1109,6.1109,6.1109,6.1109,6.1109,6.1109,6.1109,6.1109,6.1109,6.1109,6.1109,6.1109,6.1109,6.1109,6.1109,6.1109,6.1109,6.1109,6.1109,6.1109,6.1109,6.1109,6.1109,6.1109,6.1109,6.1109,6.1109,6.1109,6.1109,6.1109,6.1109,6.1109,6.1109,6.1119,6.1181,6.1293,6.1221,6.1262,6.1324,6.1355,6.1375,6.1293,6.1355,6.1334,6.1458,6.1699,6.1877,6.2122,6.2513,6.2706,6.2654,6.2165,6.1907,6.1719,6.1252,6.1161,6.1171,6.1608,6.2234,6.2745,6.3173,6.3742,6.4353,6.5079,6.5641,6.6185,6.7219,6.8243,6.8533,6.8858,6.9104,6.9209,6.9359,6.9359,6.9394,6.9394,6.9385,6.9385,6.9385,6.9385,6.9385,6.9385,6.9385,6.9385,6.9385,6.9385,6.9385,6.9385,6.9385,6.9385,6.9385,6.9199,6.9134,6.9078,6.8844,6.8299,6.762,6.7161,6.6755,6.6523,6.632,6.6247,6.6269,6.6323,6.6407,6.6491,6.665,6.7158,6.669,6.6542,6.1109,6.1109,6.1109,6.1109,6.1109,6.1109,6.1109,6.1109,6.1109,6.1109,6.1109,6.1109,6.1109,6.1109,6.1109,6.1109,6.1109,6.1109,6.1109,6.1109,6.1109,6.1109,6.1109,6.1109,6.1109,6.1109,6.1109,6.1109,6.1109,6.1109,6.1109,6.1109,6.1109,6.1109,6.1109,6.1109,6.1109,6.1109,6.1109,6.1109,6.1109,6.1109,6.1109,6.1109,6.1109,6.1109,6.1109,6.1109,6.1109,6.1179,6.1262,6.1375,6.1417,6.1526,6.1598,6.1631,6.1427,6.1345,6.1334,6.119,6.1109,6.1109,6.1347,6.1648,6.2281,6.2989,6.3592,6.4264,6.5211,6.5992,6.672,6.7674,6.8458,6.8833,6.9143,6.9315,6.9385,6.9385,6.9385,6.9385,6.9385,6.9385,6.9385,6.9385,6.9385,6.9385,6.9385,6.9385,6.9385,6.9385,6.9385,6.9385,6.9385,6.9385,6.9385,6.9385,6.9052,6.8825,6.8787,6.8406,6.7468,6.685,6.6491,6.6224,6.6063,6.5954,6.59,6.5955,6.6086,6.6064,6.6106,6.6183,6.6151,6.5911,6.5736,6.1109,6.1109,6.1109,6.1109,6.1109,6.1109,6.1109,6.1109,6.1109,6.1109,6.1109,6.1109,6.1109,6.1109,6.1109,6.1109,6.1109,6.1109,6.1109,6.1109,6.1109,6.1109,6.1109,6.1109,6.1109,6.1109,6.1109,6.1109,6.1109,6.1109,6.1109,6.1109,6.1109,6.1109,6.1109,6.1109,6.1109,6.1109,6.1109,6.1109,6.1109,6.1109,6.1109,6.1109,6.1109,6.1109,6.1109,6.1109,6.1109,6.1109,6.1109,6.1109,6.1129,6.114,6.114,6.1202,6.1181,6.1138,6.1171,6.115,6.1109,6.1175,6.1351,6.1746,6.2104,6.2676,6.3437,6.4196,6.5453,6.6533,6.7291,6.8002,6.8483,6.8977,6.9155,6.9376,6.9385,6.9385,6.9385,6.9385,6.9385,6.9385,6.9385,6.9385,6.9385,6.9385,6.9385,6.9385,6.9385,6.9385,6.9385,6.9385,6.9385,6.9385,6.9366,6.9255,6.8911,6.8653,6.8542,6.798,6.6839,6.632,6.6224,6.5954,6.5625,6.5603,6.5658,6.5769,6.5867,6.5846,6.5835,6.5867,6.5889,6.5758,6.5647,6.1109,6.1109,6.1109,6.1109,6.1109,6.1109,6.1109,6.1109,6.1109,6.1109,6.1109,6.1109,6.1109,6.1109,6.1109,6.1109,6.1109,6.1109,6.1109,6.1109,6.1109,6.1109,6.1109,6.1109,6.1109,6.1109,6.1109,6.1109,6.1109,6.1109,6.1109,6.1109,6.1109,6.1109,6.1109,6.1109,6.1109,6.1109,6.1109,6.1109,6.1109,6.1109,6.1109,6.1109,6.1109,6.1109,6.1109,6.1109,6.1109,6.1109,6.1109,6.1109,6.1109,6.1109,6.1109,6.1109,6.1109,6.1109,6.1109,6.1109,6.1208,6.145,6.1803,6.2253,6.2654,6.2982,6.3731,6.4347,6.5465,6.6213,6.6926,6.7807,6.8434,6.874,6.8901,6.9024,6.9052,6.9199,6.9385,6.9385,6.9385,6.9385,6.9385,6.9385,6.9385,6.9385,6.9385,6.9385,6.9385,6.9385,6.9385,6.9385,6.9385,6.9329,6.908,6.8939,6.8692,6.8465,6.8211,6.7529,6.6331,6.6051,6.6051,6.5768,6.5481,6.5459,6.5492,6.5647,6.5747,6.5692,6.567,6.5625,6.5581,6.5559,6.5548,6.1109,6.1109,6.1109,6.1109,6.1109,6.1109,6.1109,6.1109,6.1109,6.1109,6.1109,6.1109,6.1109,6.1109,6.1109,6.1109,6.1109,6.1109,6.1109,6.1109,6.1109,6.1109,6.1109,6.1109,6.1109,6.1109,6.1109,6.1109,6.1109,6.1109,6.1109,6.1109,6.1109,6.1109,6.1109,6.1109,6.1109,6.1109,6.1109,6.1109,6.1109,6.1109,6.1109,6.1109,6.1109,6.1109,6.1109,6.1109,6.1109,6.1109,6.1109,6.1109,6.1109,6.1109,6.1109,6.1109,6.1109,6.1109,6.1142,6.1208,6.1417,6.1792,6.2266,6.2962,6.3437,6.3691,6.411,6.4705,6.5244,6.5857,6.6517,6.7474,6.8211,6.8368,6.8653,6.8701,6.8768,6.9052,6.9366,6.9385,6.9385,6.9385,6.9385,6.9385,6.9385,6.9385,6.9385,6.9385,6.9385,6.9385,6.9385,6.9385,6.9385,6.9292,6.8958,6.8599,6.8338,6.768,6.7213,6.6523,6.579,6.5768,6.5746,6.5592,6.5425,6.5414,6.547,6.5636,6.5681,6.5603,6.5592,6.557,6.5514,6.547,6.5448,6.1109,6.1109,6.1109,6.1109,6.1109,6.1109,6.1109,6.1109,6.1109,6.1109,6.1109,6.1109,6.1109,6.1109,6.1109,6.1109,6.1109,6.1109,6.1109,6.1109,6.1109,6.1109,6.1109,6.1109,6.1109,6.1109,6.1109,6.1109,6.1109,6.1109,6.1109,6.1109,6.1109,6.1109,6.1109,6.1109,6.1109,6.1109,6.1109,6.1109,6.1109,6.1109,6.1109,6.1109,6.1109,6.1109,6.1109,6.1109,6.1109,6.1109,6.1109,6.1109,6.1109,6.1109,6.1109,6.1109,6.1109,6.1109,6.1175,6.1417,6.1736,6.2144,6.3039,6.3824,6.4045,6.4321,6.4697,6.5205,6.5271,6.5812,6.5985,6.6734,6.7089,6.7305,6.8143,6.8682,6.8911,6.9255,6.9385,6.9385,6.9385,6.9385,6.9385,6.9385,6.9385,6.9385,6.9385,6.9385,6.9385,6.9385,6.9385,6.9339,6.9311,6.9052,6.8657,6.8319,6.796,6.7199,6.6352,6.604,6.5713,6.5526,6.5414,6.5414,6.5414,6.5414,6.5503,6.5592,6.5581,6.5492,6.5514,6.5559,6.5481,6.5414,6.5414,6.1109,6.1109,6.1109,6.1109,6.1109,6.1109,6.1109,6.1109,6.1109,6.1109,6.1109,6.1109,6.1109,6.1109,6.1109,6.1109,6.1109,6.1109,6.1109,6.1109,6.1109,6.1109,6.1109,6.1109,6.1109,6.1109,6.1109,6.1109,6.1109,6.1109,6.1109,6.1109,6.1109,6.1109,6.1109,6.1109,6.1109,6.1109,6.1109,6.1109,6.1109,6.1109,6.1109,6.1109,6.1109,6.1109,6.1109,6.1109,6.1109,6.1109,6.1109,6.1109,6.1109,6.1109,6.1109,6.1109,6.1109,6.1109,6.1208,6.1726,6.2068,6.2642,6.3791,6.442,6.4608,6.4895,6.5249,6.5392,6.5415,6.5526,6.5702,6.5964,6.6278,6.6555,6.7559,6.8522,6.8901,6.9283,6.9366,6.9376,6.9385,6.9385,6.9385,6.9385,6.9385,6.9385,6.9385,6.9385,6.9385,6.9385,6.9385,6.9264,6.9108,6.8825,6.8319,6.7831,6.7393,6.6734,6.5943,6.579,6.5614,6.5503,6.5414,6.5414,6.5414,6.5414,6.5414,6.547,6.5425,6.5414,6.5448,6.5492,6.547,6.5414,6.5414,6.1109,6.1109,6.1109,6.1109,6.1109,6.1109,6.1109,6.1109,6.1109,6.1109,6.1109,6.1109,6.1109,6.1109,6.1109,6.1109,6.1109,6.1109,6.1109,6.1109,6.1109,6.1109,6.1109,6.1109,6.1109,6.1109,6.1109,6.1109,6.1109,6.1109,6.1109,6.1109,6.1109,6.1109,6.1109,6.1109,6.1109,6.1109,6.1109,6.1109,6.1109,6.1109,6.1109,6.1109,6.1109,6.1109,6.1109,6.1109,6.1109,6.1109,6.1109,6.1109,6.1109,6.1109,6.1109,6.1109,6.1109,6.1208,6.145,6.2001,6.241,6.3128,6.4122,6.4741,6.494,6.516,6.5381,6.5381,6.5425,6.5425,6.5603,6.5975,6.6288,6.6299,6.6891,6.7811,6.8465,6.8958,6.9302,6.9339,6.9385,6.9385,6.9385,6.9385,6.9385,6.9385,6.9385,6.9385,6.9385,6.9385,6.9376,6.9099,6.8892,6.8299,6.768,6.7161,6.6671,6.6019,6.5636,6.557,6.5537,6.547,6.5414,6.5414,6.5414,6.5414,6.5414,6.5414,6.5414,6.5414,6.5414,6.5425,6.5414,6.5414,6.5414]},{"header":{"parameterUnit":"m.s-1","parameterCategory":1,"la1":31.0,"la2":29.5877,"lo1":-88.7671,"lo2":-86.6584,"dy":0.0162,"dx":0.0185,"nx":115,"ny":88,"refTime":"2023-03-17T06:00:00:Z","depth":0,"parameterNumber":3,"parameterNumberName":"V-component_of_WINDS"},"data":[0.0,0.0,0.0,0.0,0.0,0.0,0.0,0.0,0.0,0.0,0.0,0.0,0.0,0.0,0.0,0.0,0.0,0.0,0.0,0.0,0.0,0.0,0.0,0.0,0.0,0.0,0.0,0.0,0.0,0.0,0.0,0.0,0.0,0.0,0.0,0.0,0.0,0.0,0.0,0.0,0.0,0.0,0.0,0.0,0.0,0.0,0.0,0.0,0.0,0.0,0.0,0.0,0.0,0.0,0.0,0.0,0.0,0.0,0.0,0.0,0.0,0.0,0.0,0.0,0.0,0.0,0.0,0.0,0.0,0.0,0.0,0.0,0.0,0.0,0.0,0.0,0.0,0.0,0.0,0.0,0.0,0.0,0.0,0.0,0.0,0.0,0.0,0.0,0.0,0.0,0.0,0.0,0.0,0.0,0.0,0.0,0.0,0.0,0.0,0.0,0.0,0.0,0.0,0.0,0.0,0.0,0.0,0.0,0.0,0.0,0.0,0.0,0.0,0.0,0.0,0.0,0.0,0.0,0.0,0.0,0.0,0.0,0.0,0.0,0.0,0.0,0.0,0.0,0.0,0.0,0.0,0.0,0.0,0.0,0.0,0.0,0.0,0.0,0.0,0.0,0.0,0.0,0.0,0.0,0.0,0.0,0.0,0.0,0.0,0.0,0.0,0.0,0.0,0.0,0.0,0.0,0.0,0.0,0.0,0.0,0.0,0.0,0.0,0.0,0.0,0.0,0.0,0.0,0.0,0.0,0.0,0.0,0.0,0.0,0.0,0.0,0.0,0.0,0.0,0.0,0.0,0.0,0.0,0.0,0.0,0.0,0.0,0.0,0.0,0.0,0.0,0.0,0.0,0.0,0.0,0.0,0.0,0.0,0.0,0.0,0.0,0.0,0.0,0.0,0.0,0.0,0.0,0.0,0.0,0.0,0.0,0.0,0.0,0.0,0.0,0.0,0.0,0.0,0.0,0.0,0.0,0.0,0.0,0.0,0.0,0.0,0.0,0.0,0.0,0.0,0.0,0.0,0.0,0.0,0.0,0.0,0.0,0.0,0.0,0.0,0.0,0.0,0.0,0.0,0.0,0.0,0.0,0.0,0.0,0.0,0.0,0.0,0.0,0.0,0.0,0.0,0.0,0.0,0.0,0.0,0.0,0.0,0.0,0.0,0.0,0.0,0.0,0.0,0.0,0.0,0.0,0.0,0.0,0.0,0.0,0.0,0.0,0.0,0.0,0.0,0.0,0.0,0.0,0.0,0.0,0.0,0.0,0.0,0.0,0.0,0.0,0.0,0.0,0.0,0.0,0.0,0.0,0.0,0.0,0.0,0.0,0.0,0.0,0.0,0.0,0.0,0.0,0.0,0.0,0.0,0.0,0.0,0.0,0.0,0.0,0.0,0.0,0.0,0.0,0.0,0.0,0.0,0.0,0.0,0.0,0.0,0.0,0.0,0.0,0.0,0.0,0.0,0.0,0.0,0.0,0.0,0.0,0.0,0.0,0.0,0.0,0.0,0.0,0.0,0.0,0.0,0.0,0.0,0.0,0.0,0.0,0.0,0.0,0.0,0.0,0.0,0.0,0.0,0.0,0.0,0.0,0.0,0.0,0.0,0.0,0.0,0.0,0.0,0.0,0.0,0.0,0.0,0.0,0.0,0.0,0.0,0.0,0.0,0.0,0.0,0.0,0.0,0.0,0.0,0.0,0.0,0.0,0.0,0.0,0.0,0.0,0.0,0.0,0.0,0.0,0.0,0.0,0.0,0.0,0.0,0.0,0.0,0.0,0.0,0.0,0.0,0.0,0.0,0.0,0.0,0.0,0.0,0.0,0.0,0.0,0.0,0.0,0.0,0.0,0.0,0.0,0.0,0.0,0.0,0.0,0.0,0.0,0.0,0.0,0.0,0.0,0.0,0.0,0.0,0.0,0.0,0.0,0.0,0.0,0.0,0.0,0.0,0.0,0.0,0.0,0.0,0.0,0.0,0.0,0.0,0.0,0.0,0.0,0.0,0.0,0.0,0.0,0.0,0.0,0.0,0.0,0.0,0.0,0.0,0.0,0.0,0.0,0.0,0.0,0.0,0.0,0.0,0.0,0.0,0.0,0.0,0.0,0.0,0.0,0.0,0.0,0.0,0.0,0.0,0.0,0.0,0.0,0.0,0.0,0.0,0.0,0.0,0.0,0.0,0.0,0.0,0.0,0.0,0.0,0.0,0.0,0.0,0.0,0.0,0.0,0.0,0.0,0.0,0.0,0.0,0.0,0.0,0.0,0.0,0.0,0.0,0.0,0.0,0.0,0.0,0.0,0.0,0.0,0.0,0.0,0.0,0.0,0.0,0.0,0.0,0.0,0.0,0.0,0.0,0.0,0.0,0.0,0.0,0.0,0.0,0.0,0.0,0.0,0.0,0.0,0.0,0.0,0.0,0.0,0.0,0.0,0.0,0.0,0.0,0.0,0.0,0.0,0.0,0.0,0.0,0.0,0.0,0.0,0.0,0.0,0.0,0.0,0.0,0.0,0.0,0.0,0.0,0.0,0.0,0.0,0.0,0.0,0.0,0.0,0.0,0.0,0.0,0.0,0.0,0.0,0.0,0.0,0.0,0.0,0.0,0.0,0.0,0.0,0.0,0.0,0.0,0.0,0.0,0.0,0.0,0.0,0.0,0.0,0.0,0.0,0.0,0.0,0.0,0.0,0.0,0.0,0.0,0.0,0.0,0.0,0.0,0.0,0.0,0.0,0.0,0.0,0.0,0.0,0.0,0.0,0.0,0.0,0.0,0.0,0.0,0.0,0.0,0.0,0.0,0.0,0.0,0.0,0.0,0.0,0.0,0.0,0.0,0.0,0.0,0.0,0.0,0.0,0.0,0.0,0.0,0.0,0.0,0.0,0.0,0.0,0.0,0.0,0.0,0.0,0.0,0.0,0.0,0.0,0.0,0.0,0.0,0.0,0.0,0.0,0.0,0.0,0.0,0.0,0.0,0.0,0.0,0.0,0.0,0.0,0.0,0.0,0.0,0.0,0.0,0.0,0.0,0.0,0.0,0.0,0.0,0.0,0.0,0.0,0.0,0.0,0.0,0.0,0.0,0.0,0.0,0.0,0.0,0.0,0.0,0.0,0.0,0.0,0.0,0.0,0.0,0.0,0.0,0.0,0.0,0.0,0.0,0.0,0.0,0.0,0.0,0.0,0.0,0.0,0.0,0.0,0.0,0.0,0.0,0.0,0.0,0.0,0.0,0.0,0.0,0.0,0.0,0.0,0.0,0.0,0.0,0.0,0.0,0.0,0.0,0.0,0.0,0.0,0.0,0.0,0.0,0.0,0.0,0.0,0.0,0.0,0.0,0.0,0.0,0.0,0.0,0.0,0.0,0.0,0.0,0.0,0.0,0.0,0.0,0.0,0.0,0.0,0.0,0.0,0.0,0.0,0.0,0.0,0.0,0.0,0.0,0.0,0.0,0.0,0.0,0.0,0.0,0.0,0.0,0.0,0.0,0.0,0.0,0.0,0.0,0.0,0.0,0.0,0.0,0.0,0.0,0.0,0.0,0.0,0.0,0.0,0.0,0.0,0.0,0.0,0.0,0.0,0.0,0.0,0.0,0.0,0.0,0.0,0.0,0.0,0.0,0.0,0.0,0.0,0.0,0.0,0.0,0.0,0.0,0.0,0.0,0.0,0.0,0.0,0.0,0.0,0.0,0.0,0.0,0.0,0.0,0.0,0.0,0.0,0.0,0.0,0.0,0.0,0.0,0.0,0.0,0.0,0.0,0.0,0.0,0.0,0.0,0.0,0.0,0.0,0.0,0.0,0.0,0.0,0.0,0.0,0.0,0.0,0.0,0.0,0.0,0.0,0.0,0.0,0.0,0.0,0.0,0.0,0.0,0.0,0.0,0.0,0.0,0.0,0.0,0.0,0.0,0.0,0.0,0.0,0.0,0.0,0.0,0.0,0.0,0.0,0.0,0.0,0.0,0.0,0.0,0.0,0.0,0.0,0.0,0.0,0.0,0.0,0.0,0.0,0.0,0.0,0.0,0.0,0.0,0.0,0.0,0.0,0.0,0.0,0.0,0.0,0.0,0.0,0.0,0.0,0.0,0.0,0.0,0.0,0.0,0.0,0.0,0.0,0.0,0.0,0.0,0.0,0.0,0.0,0.0,0.0,0.0,0.0,0.0,0.0,0.0,0.0,0.0,0.0,0.0,0.0,0.0,0.0,0.0,0.0,0.0,0.0,0.0,0.0,0.0,0.0,0.0,0.0,0.0,0.0,0.0,0.7579,0.0,0.0,0.0,0.0,0.0,0.0,0.0,0.0,0.0,0.0,0.0,0.0,0.0,0.0,0.0,0.0,0.0,0.0,0.0,0.0,0.0,0.0,0.0,0.0,0.0,0.0,0.0,0.0,0.0,0.0,0.0,0.0,0.0,0.0,0.0,0.0,0.0,0.0,0.0,0.0,0.0,0.0,0.0,0.0,0.0,0.0,0.0,0.0,0.0,0.0,0.0,0.0,0.0,0.0,0.0,0.0,0.0,0.0,0.0,0.0,0.0,0.0,0.0,0.0,0.0,0.0,0.0,0.0,0.0,0.0,0.0,0.0,0.0,0.0,0.0,0.0,0.0,0.0,0.0,0.0,0.0,0.0,0.0,0.0,0.0,0.0,0.0,0.0,0.0,0.0,0.0,0.0,0.0,0.0,0.0,0.0,0.0,0.0,0.0,0.0,0.0,0.0,0.0,0.0,0.0,0.0,0.0,0.0,0.0,0.0,0.7793,0.8079,0.8087,0.8133,0.8234,0.0,0.0,0.0,0.0,0.0,0.0,0.0,0.0,0.0,0.0,0.0,0.0,0.0,0.0,0.0,0.0,0.0,0.0,0.0,0.0,0.0,0.0,0.0,0.0,0.0,0.0,0.0,0.0,0.0,0.0,0.0,0.0,0.0,0.0,0.0,0.0,0.0,0.0,0.0,0.0,0.0,0.0,0.0,0.0,0.0,0.0,0.0,0.0,0.0,0.0,0.0,0.0,0.0,0.0,0.0,0.0,0.0,0.0,0.0,0.0,0.0,0.0,0.0,0.0,0.0,0.0,0.0,0.0,0.0,0.0,0.0,0.0,0.0,0.0,0.0,0.0,0.0,0.0,0.0,0.0,0.0,0.0,0.0,0.0,0.0,0.0,0.0,0.0,0.0,0.0,0.0,0.0,0.0,0.0,0.0,0.0,0.0,0.0,0.0,0.0,0.0,0.0,0.0,0.0,0.0,0.0,0.0,0.0,0.0,0.0,0.0,0.0,0.8313,0.8455,0.8741,0.0,0.0,0.0,0.0,0.0,0.0,0.0,0.0,0.0,0.0,0.0,0.0,0.0,0.0,0.0,0.0,0.0,0.0,0.0,0.0,0.0,0.0,0.0,0.0,0.0,0.0,0.0,0.0,0.0,0.0,0.0,0.0,0.0,0.0,0.0,0.0,0.0,0.0,0.0,0.0,0.0,0.0,0.0,0.0,0.0,0.0,0.0,0.0,0.0,0.0,0.0,0.0,0.0,0.0,0.0,0.0,0.0,0.0,0.0,0.0,0.0,0.0,0.0,0.0,0.0,0.0,0.0,0.0,0.0,0.0,0.0,0.0,0.0,0.0,0.0,0.0,0.0,0.0,0.0,0.0,0.0,0.0,0.0,0.0,0.0,0.0,0.0,0.0,0.0,0.0,0.0,0.0,0.0,0.0,0.0,0.0,0.0,0.0,0.0,0.0,0.0,0.0,0.0,0.0,0.0,0.0,0.0,0.0,0.0,0.0,0.769,0.8031,0.805,0.0,0.8849,0.0,0.0,0.0,0.0,0.0,0.0,0.0,0.0,0.0,0.0,0.0,0.0,0.0,0.0,0.0,0.0,0.0,0.0,0.0,0.0,0.0,0.0,0.0,0.0,0.0,0.0,0.0,0.0,0.0,0.0,0.0,0.0,0.0,0.0,0.0,0.0,0.0,0.0,0.0,0.0,0.0,0.0,0.0,0.0,0.0,0.0,0.0,0.0,0.0,0.0,0.0,0.0,0.0,0.0,0.0,0.0,0.0,0.0,0.0,0.0,0.0,0.0,0.0,0.0,0.0,0.0,0.0,0.0,0.0,0.0,0.0,0.0,0.0,0.0,0.0,0.0,0.0,0.0,0.0,0.0,0.0,0.0,0.0,0.0,0.0,0.0,0.0,0.0,0.0,0.0,0.0,0.0,0.0,0.0,0.0,0.0,0.0,0.0,0.0,0.0,0.0,0.0,0.0,0.0,0.0,0.0,0.0,0.0,0.0,0.0,0.8313,0.8926,0.907,0.9192,0.0,0.0,0.0,0.0,0.0,0.0,0.0,0.0,0.0,0.0,0.0,0.0,0.0,0.0,0.0,0.0,0.0,0.0,0.0,0.0,0.0,0.0,0.0,0.0,0.0,0.0,0.0,0.0,0.0,0.0,0.0,0.0,0.0,0.0,0.0,0.0,0.0,0.0,0.0,0.0,0.0,0.0,0.0,0.0,0.0,0.0,0.0,0.0,0.0,0.0,0.0,0.0,0.0,0.0,0.0,0.0,0.0,0.0,0.0,0.0,0.0,0.0,0.0,0.0,0.0,0.0,0.0,0.0,0.0,0.0,0.0,0.0,0.0,0.0,0.0,0.0,0.0,0.0,0.0,0.0,0.0,0.0,0.0,0.0,0.0,0.0,0.0,0.0,0.0,0.0,0.0,0.0,0.0,0.0,0.0,0.0,0.0,0.0,0.0,0.0,0.0,0.0,0.0,0.0,0.0,0.0,0.0,0.0,0.0,0.0,0.8558,0.8825,0.9499,0.9713,0.9764,0.9681,0.0,0.0,0.0,0.0,0.0,0.0,0.0,0.0,0.0,0.0,0.0,0.0,0.0,0.0,0.0,0.0,0.0,0.0,0.0,0.0,0.0,0.0,0.0,0.0,0.0,0.0,0.0,0.0,0.0,0.0,0.0,0.0,0.0,0.0,0.0,0.0,0.0,0.0,0.0,0.0,0.0,0.0,0.0,0.0,0.0,0.0,0.0,0.0,0.0,0.0,0.0,0.0,0.0,0.0,0.0,0.0,0.0,0.0,0.0,0.0,0.0,0.0,0.0,0.0,0.0,0.0,0.0,0.0,0.0,0.0,0.0,0.0,0.0,0.0,0.0,0.0,0.0,0.0,0.0,0.0,0.0,0.0,0.0,0.0,0.0,0.0,0.0,0.0,0.0,0.0,0.0,0.0,0.0,0.0,0.0,0.0,0.0,0.0,0.0,0.0,0.0,0.0,0.0,0.0,0.0,0.0,0.0,0.0,0.872,0.8701,0.8885,0.9323,0.952,0.9694,0.0,0.0,0.0,0.0,0.0,0.0,0.0,0.0,0.0,0.0,0.0,0.0,0.0,0.0,0.0,0.0,0.0,0.0,0.0,0.0,0.0,0.0,0.0,0.0,0.0,0.0,0.0,0.0,0.0,0.0,0.0,0.0,0.0,0.0,0.0,0.0,0.0,0.0,0.0,0.0,0.0,0.0,0.0,0.0,0.0,0.0,0.0,0.0,0.0,0.0,0.0,0.0,0.0,0.0,0.0,0.0,0.0,0.0,0.0,0.0,0.0,0.0,0.0,0.0,0.0,0.0,0.0,0.0,0.0,0.0,0.0,0.0,0.0,0.0,0.0,0.0,0.0,0.0,0.0,0.0,0.0,0.0,0.0,0.0,0.0,0.0,0.0,0.0,0.0,0.0,0.0,0.0,0.0,0.0,0.0,0.0,0.0,0.0,0.0,0.0,0.0,0.0,0.0,0.0,0.0,0.0,0.0,0.0,0.0,0.9083,0.9338,0.9531,0.9687,0.9885,0.9966,0.0,0.0,0.0,0.0,0.0,0.0,0.0,0.0,0.0,0.0,0.0,0.0,0.0,0.0,0.0,0.0,0.0,0.0,0.0,0.0,0.0,0.0,0.0,0.0,0.0,0.0,0.0,0.0,0.0,0.0,0.0,0.0,0.0,0.0,0.0,0.0,0.0,0.0,0.0,0.0,0.0,0.0,0.0,0.0,0.0,0.0,0.0,0.0,0.0,0.0,0.0,0.0,0.0,0.0,0.0,0.0,0.0,0.0,0.0,0.0,0.0,0.0,0.0,0.0,0.0,0.0,0.0,0.0,0.0,0.0,0.0,0.0,0.0,0.0,0.0,0.0,0.0,0.0,0.0,0.0,0.0,0.0,0.0,0.0,0.0,0.0,0.0,0.0,0.0,0.0,0.0,0.0,0.0,0.0,0.0,0.0,0.0,0.0,0.0,0.0,0.0,0.0,0.0,0.0,0.0,0.0,0.0,0.0,0.0,0.9495,0.0,1.0001,1.0001,1.0124,1.0124,0.0,0.0,0.0,0.0,0.0,0.0,0.0,0.0,0.0,0.0,0.0,0.0,0.0,0.0,0.0,0.0,0.0,0.0,0.0,0.0,0.0,0.0,0.0,0.0,0.0,0.0,0.0,0.0,0.0,0.0,0.0,0.0,0.0,0.0,0.0,0.0,0.0,0.0,0.0,0.0,0.0,0.0,0.0,0.0,0.0,0.0,0.0,0.0,0.0,0.0,0.0,0.0,0.0,0.0,0.0,0.0,0.0,0.0,0.0,0.0,0.0,0.0,0.0,0.0,0.0,0.0,0.0,0.0,0.0,0.0,0.0,0.0,0.0,0.0,0.0,0.0,0.0,0.0,0.0,0.0,0.0,0.0,0.0,0.0,0.0,0.0,0.0,0.0,0.0,0.0,0.0,0.0,0.0,0.0,0.0,0.0,0.0,0.0,0.0,0.0,0.0,0.0,0.0,0.0,0.0,0.0,0.0,0.0,0.9929,0.9908,1.0108,1.0195,1.0201,1.0212,1.021,0.0,0.0,0.0,0.0,0.0,0.0,0.0,0.0,0.0,0.0,0.0,0.0,0.0,0.0,0.0,0.0,0.0,0.0,0.0,0.0,0.0,0.0,0.0,0.0,0.0,0.0,0.0,0.0,0.0,0.0,0.0,0.0,0.0,0.0,0.0,0.0,0.0,0.0,0.0,0.0,0.0,0.0,0.0,0.0,0.0,0.0,0.0,0.0,0.0,0.0,0.0,0.0,0.0,0.0,0.0,0.0,0.0,0.0,0.0,0.0,0.0,0.0,0.0,0.0,0.0,0.0,0.0,0.0,0.0,0.0,0.0,0.0,0.0,0.0,0.0,0.0,0.0,0.0,0.0,0.0,0.0,0.0,0.0,0.0,0.0,0.0,0.0,0.0,0.0,0.0,0.0,0.0,0.0,0.0,0.0,0.0,0.0,0.0,0.0,0.0,0.0,0.0,0.0,0.0,0.0,0.0,0.0,0.0,0.0,1.0392,1.0441,1.0471,1.0481,1.0485,1.0417,0.0,0.0,0.0,0.0,0.0,0.0,0.0,0.0,0.0,0.0,0.0,0.0,0.0,0.0,0.0,0.0,0.0,0.0,0.0,0.0,0.0,0.0,0.0,0.0,0.0,0.0,0.0,0.0,0.0,0.0,0.0,0.0,0.0,0.0,0.0,0.0,0.0,0.0,0.0,0.0,0.0,0.0,0.0,0.0,0.0,0.0,0.0,0.0,0.0,0.0,0.0,0.0,0.0,0.0,0.0,0.0,0.0,0.0,0.0,0.0,0.0,0.0,0.0,0.0,0.0,0.0,0.0,0.0,0.0,0.0,0.0,0.0,0.0,0.0,0.0,0.0,0.0,0.0,0.0,0.0,0.0,0.0,0.0,0.0,0.0,0.0,0.0,0.0,0.0,0.0,0.0,0.0,0.0,0.0,0.0,0.0,0.0,0.0,0.0,0.0,0.0,0.0,0.0,0.0,0.0,0.0,0.0,0.0,0.0,1.1629,1.1141,1.0829,1.0748,1.0647,1.0636,1.0673,0.0,0.0,0.0,0.0,0.0,0.0,0.0,0.0,0.0,0.0,0.0,0.0,0.0,0.0,0.0,0.0,0.0,0.0,0.0,0.0,0.0,0.0,0.0,0.0,0.0,0.0,0.0,0.0,0.0,0.0,0.0,0.0,0.0,0.0,0.0,0.0,0.0,0.0,0.0,0.0,0.0,0.0,0.0,0.0,0.0,0.0,0.0,0.0,0.0,0.0,0.0,0.0,0.0,0.0,0.0,0.0,0.0,0.0,0.0,0.0,0.0,0.0,0.0,0.0,0.0,0.0,0.0,0.0,0.0,0.0,0.0,0.0,0.0,0.0,0.0,0.0,0.0,0.0,0.0,0.0,0.0,0.0,0.0,0.0,0.0,0.0,0.0,0.0,0.0,0.0,0.0,0.0,0.0,0.0,0.0,0.0,0.0,0.0,0.0,0.0,0.0,0.0,0.0,0.0,0.0,0.0,0.0,0.0,1.336,1.2091,1.1317,1.1034,1.0791,1.0842,0.0,0.0,0.0,0.0,0.0,0.0,0.0,0.0,0.0,0.0,0.0,0.0,0.0,0.0,0.0,0.0,0.0,0.0,0.0,0.0,0.0,0.0,0.0,0.0,0.0,0.0,0.0,0.0,0.0,0.0,0.0,0.0,0.0,0.0,0.0,0.0,0.0,0.0,0.0,0.0,0.0,0.0,0.0,0.0,0.0,0.0,0.0,0.0,0.0,0.0,0.0,0.0,0.0,0.0,0.0,0.0,0.0,0.0,0.0,0.0,0.0,0.0,0.0,0.0,0.0,0.0,0.0,0.0,0.0,0.0,0.0,0.0,0.0,0.0,0.0,0.0,0.0,0.0,0.0,0.0,0.0,0.0,0.0,0.0,0.0,0.0,0.0,0.0,0.0,0.0,0.0,0.0,0.0,0.0,0.0,0.0,0.0,0.0,0.0,0.0,0.0,0.0,0.0,0.0,0.0,0.0,0.0,0.0,0.0,1.3099,1.3079,1.2576,1.1567,1.1264,1.1019,0.0,0.0,0.0,0.0,0.0,0.0,0.0,0.0,0.0,0.0,0.0,0.0,0.0,0.0,0.0,0.0,0.0,0.0,0.0,0.0,0.0,0.0,0.0,0.0,0.0,0.0,0.0,0.0,0.0,0.0,0.0,0.0,0.0,0.0,0.0,0.0,0.0,0.0,0.0,0.0,0.0,0.0,0.0,0.0,0.0,0.0,0.0,0.0,0.0,0.0,0.0,0.0,0.0,0.0,0.0,0.0,0.0,0.0,0.0,0.0,0.0,0.0,0.0,0.0,0.0,0.0,0.0,0.0,0.0,0.0,0.0,0.0,0.0,0.0,0.0,0.0,0.0,0.0,0.0,0.0,0.0,0.0,0.0,0.0,0.0,0.0,0.0,0.0,0.0,0.0,0.0,0.0,0.0,0.0,0.0,0.0,0.0,0.0,0.0,0.0,0.0,0.0,0.0,0.0,0.0,0.0,0.0,0.0,1.3792,1.4553,1.4073,1.3449,1.2748,1.238,1.22,0.0,0.0,0.0,0.0,0.0,0.0,0.0,0.0,0.0,0.0,0.0,0.0,0.0,0.0,0.0,0.0,0.0,0.0,0.0,0.0,0.0,0.0,0.0,0.0,0.0,0.0,0.0,0.0,0.0,0.0,0.0,0.0,0.0,0.0,0.0,0.0,0.0,0.0,0.0,0.0,0.0,0.0,0.0,0.0,0.0,0.0,0.0,0.0,0.0,0.0,0.0,0.0,0.0,0.0,0.0,0.0,0.0,0.0,0.0,0.0,0.0,0.0,0.0,0.0,0.0,0.0,0.0,0.0,0.0,0.0,0.0,0.0,0.0,0.0,0.0,0.0,0.0,0.0,0.0,0.0,0.0,0.0,0.0,0.0,0.0,0.0,0.0,0.0,0.0,0.0,0.0,0.0,0.0,0.0,0.0,0.0,0.0,0.0,0.0,0.0,0.0,0.0,0.0,0.0,0.0,0.0,0.0,0.0,1.4437,1.6668,1.5059,1.4244,1.4403,1.3836,1.376,0.0,0.0,0.0,0.0,0.0,0.0,0.0,0.0,0.0,0.0,0.0,0.0,0.0,0.0,0.0,0.0,0.0,0.0,0.0,0.0,0.0,0.0,0.0,0.0,0.0,0.0,0.0,0.0,0.0,0.0,0.0,0.0,0.0,0.0,0.0,0.0,0.0,0.0,0.0,0.0,0.0,0.0,0.0,0.0,0.0,0.0,0.0,0.0,0.0,0.0,0.0,0.0,0.0,0.0,0.0,0.0,0.0,0.0,0.0,0.0,0.0,0.0,0.0,0.0,0.0,0.0,0.0,0.0,0.0,0.0,0.0,0.0,0.0,0.0,0.0,0.0,0.0,0.0,0.0,0.0,0.0,0.0,0.0,0.0,0.0,0.0,0.0,0.0,0.0,0.0,0.0,0.0,0.0,0.0,0.0,0.0,0.0,0.0,0.0,0.0,0.0,0.0,0.0,0.0,0.0,0.0,0.0,0.0,1.5764,1.6437,1.6092,1.5887,1.5928,1.4843,1.4063,0.0,0.0,0.0,0.0,0.0,0.0,0.0,0.0,0.0,0.0,0.0,0.0,0.0,0.0,0.0,0.0,0.0,0.0,0.0,0.0,0.0,0.0,0.0,0.0,0.0,0.0,0.0,0.0,0.0,0.0,0.0,0.0,0.0,0.0,0.0,0.0,0.0,0.0,0.0,0.0,0.0,0.0,0.0,0.0,0.0,0.0,0.0,0.0,0.786,0.0,0.0,0.0,0.0,0.0,0.0,0.0,0.0,0.0,0.0,0.0,0.0,0.0,0.0,0.0,0.0,0.0,0.0,0.0,0.0,0.0,0.0,0.0,0.0,0.0,0.0,0.0,0.0,0.0,0.0,0.0,0.0,0.0,0.0,0.0,0.0,0.0,0.0,0.0,0.0,0.0,0.0,0.0,0.0,0.0,0.0,0.0,0.0,0.0,0.0,0.0,0.0,0.0,0.0,0.0,0.0,0.0,0.0,0.0,1.6398,1.6972,1.6783,1.6627,1.6616,1.6063,1.5567,0.0,0.0,0.0,0.0,0.0,0.0,0.0,0.0,0.0,0.0,0.0,0.0,0.0,0.0,0.0,0.0,0.0,0.0,0.0,0.0,0.0,0.0,0.0,0.0,0.0,0.0,0.0,0.0,0.0,0.0,0.0,0.0,0.0,0.0,0.0,0.0,0.0,0.0,0.0,0.0,0.0,0.0,0.0,0.0,0.0,0.0,0.0,0.0,0.0,0.0,0.0,0.0,0.0,0.0,0.0,0.0,0.0,0.0,0.0,0.0,0.0,0.0,0.0,0.0,0.0,0.0,0.0,0.0,0.0,0.0,0.0,0.0,0.0,0.0,0.0,0.0,0.0,0.0,0.0,0.0,0.0,0.0,0.0,0.0,0.0,0.0,0.0,0.0,0.0,0.0,0.0,0.0,0.0,0.0,0.0,0.0,0.0,0.0,0.0,0.0,0.0,0.0,0.0,0.0,0.0,0.0,0.0,1.6413,1.6795,1.7591,1.7203,1.6965,1.6953,1.717,1.7263,1.7254,0.0,0.0,0.0,0.0,0.0,0.0,0.0,0.0,0.0,0.0,0.0,0.0,0.0,0.0,0.0,0.0,0.0,0.0,0.0,0.0,0.0,0.0,0.0,0.0,0.0,0.0,0.0,0.0,0.0,0.0,0.0,0.0,0.0,0.0,0.0,0.0,0.0,0.0,0.7136,0.7346,0.0,0.0,0.0,0.0,0.0,0.0,0.0,0.0,0.9037,0.0,0.0,0.0,0.0,0.0,0.0,0.0,0.0,0.0,0.0,0.0,0.0,0.0,0.0,0.0,0.0,0.0,0.0,0.0,0.0,0.0,0.0,0.0,0.0,0.0,0.0,0.0,0.0,0.0,0.0,0.0,0.0,0.0,0.0,0.0,0.0,0.0,0.0,0.0,0.0,0.0,0.0,0.0,0.0,0.0,0.0,0.0,0.0,0.0,0.0,0.0,0.0,0.0,0.0,0.0,0.0,1.7357,1.7625,1.7641,1.7361,1.7282,1.7229,1.7229,1.7488,1.7725,1.7903,0.0,0.0,0.0,0.0,0.0,0.0,0.0,0.0,0.0,0.0,0.0,0.0,0.0,0.0,0.0,0.0,0.0,0.0,0.0,0.0,0.0,0.0,0.0,0.0,0.0,0.0,0.0,0.0,0.0,0.0,0.0,0.0,0.0,0.0,0.0,0.0,0.0,0.0,0.0,0.7669,0.7926,0.0,0.0,0.0,0.0,0.0,0.0,0.0,0.0,1.0322,0.0,0.0,0.0,0.0,0.0,0.0,0.0,0.0,0.0,0.0,0.0,0.0,0.0,0.0,0.0,0.0,0.0,0.0,0.0,0.0,0.0,0.0,0.0,0.0,0.0,0.0,0.0,0.0,0.0,0.0,0.0,0.0,0.0,0.0,0.0,0.0,0.0,0.0,0.0,0.0,0.0,0.0,0.0,0.0,0.0,0.0,0.0,0.0,0.0,0.0,0.0,0.0,0.0,0.0,0.0,1.7448,1.7755,1.7702,1.7314,1.7302,1.7302,1.7302,1.7702,1.804,0.0,0.0,0.0,0.0,0.0,0.0,0.0,0.0,0.0,0.0,0.0,0.0,0.0,0.0,0.0,0.0,0.0,0.0,0.0,0.0,0.0,0.0,0.0,0.0,0.0,0.0,0.0,0.0,0.0,0.0,0.0,0.0,0.0,0.0,0.0,0.0,0.0,0.0,0.0,0.0,0.8292,0.8474,0.8918,0.0,0.0,0.0,0.0,0.0,0.0,1.048,1.0698,0.0,0.0,0.0,0.0,0.0,0.0,0.0,0.0,0.0,0.0,0.0,0.0,0.0,0.0,0.0,0.0,0.0,0.0,0.0,0.0,0.0,0.0,0.0,0.0,0.0,0.0,0.0,0.0,0.0,0.0,0.0,0.0,0.0,0.0,0.0,0.0,0.0,0.0,0.0,0.0,0.0,0.0,0.0,0.0,0.0,0.0,0.0,0.0,0.0,0.0,0.0,0.0,0.0,0.0,0.0,1.7489,1.7609,1.7592,1.7416,1.7393,1.7434,1.7516,1.8001,1.8384,0.0,0.0,0.0,0.0,0.0,0.0,0.0,0.0,0.0,0.0,0.0,0.0,0.0,0.0,0.0,0.0,0.0,0.0,0.0,0.0,0.0,0.0,0.0,0.0,0.0,0.0,0.0,0.0,0.0,0.0,0.0,0.0,0.0,0.0,0.0,0.0,0.0,0.0,0.0,0.0,0.0,0.9128,1.0082,1.0132,0.0,0.0,0.0,0.0,1.0937,1.0793,0.0,0.0,0.0,0.0,0.0,0.0,0.0,0.0,0.0,0.0,0.0,0.0,0.0,0.0,0.0,0.0,0.0,0.0,0.0,0.0,0.0,0.0,0.0,0.0,0.0,0.0,0.0,0.0,0.0,0.0,0.0,0.0,0.0,0.0,0.0,0.0,0.0,0.0,0.0,0.0,0.0,0.0,0.0,0.0,0.0,0.0,0.0,0.0,0.0,0.0,0.0,0.0,0.0,0.0,0.0,0.0,1.7994,1.7796,1.771,1.7738,1.7741,1.7872,1.8186,1.8595,1.899,0.0,0.0,0.0,0.0,0.0,0.0,0.0,0.0,0.0,0.0,0.0,0.0,0.0,0.0,0.0,0.0,0.0,0.0,0.0,0.0,0.0,0.0,0.0,0.0,0.0,0.0,0.0,0.0,0.0,0.0,0.0,0.0,0.0,0.0,0.0,0.0,0.0,0.0,0.0,0.0,0.0,0.9867,1.1146,1.0871,1.0893,0.0,0.0,1.087,1.091,1.083,0.0,0.0,0.0,0.0,0.0,0.0,0.0,0.0,0.0,0.0,0.0,0.0,0.0,0.0,0.0,0.0,0.0,0.0,0.0,0.0,0.0,0.0,0.0,0.0,0.0,0.0,0.0,0.0,0.0,0.0,0.0,0.0,0.0,0.0,0.0,0.0,0.0,0.0,0.0,0.0,0.0,0.0,0.0,0.0,0.0,0.0,0.0,0.0,0.0,0.0,0.0,0.0,0.0,0.0,0.0,1.825,1.8839,1.8147,1.7863,1.8072,1.8086,1.816,1.8318,1.9075,1.9544,0.0,0.0,0.0,0.0,0.0,0.0,0.0,0.0,0.0,0.0,0.0,0.0,0.0,0.0,0.0,0.0,0.0,0.0,0.0,0.0,0.0,0.0,0.0,0.0,0.0,0.0,0.0,0.0,0.0,0.0,0.0,0.0,0.0,0.0,0.0,0.0,0.0,0.0,0.0,0.0,0.0,0.0,1.2137,1.1585,0.0,0.0,0.0,1.1355,1.1495,0.0,0.0,0.0,0.0,0.0,0.0,0.0,0.0,0.0,0.0,0.0,0.0,0.0,0.0,0.0,0.0,0.0,0.0,0.0,0.0,0.0,0.0,0.0,0.0,0.0,0.0,0.0,0.0,0.0,0.0,0.0,0.0,0.0,0.0,0.0,0.0,0.0,0.0,0.0,0.0,0.0,0.0,0.0,0.0,0.0,0.0,0.0,0.0,0.0,0.0,0.0,0.0,0.0,0.0,0.0,0.0,0.0,1.947,1.8459,1.8089,1.8408,1.8423,1.8467,1.8565,1.9373,0.0,0.0,0.0,0.0,0.0,0.0,0.0,0.0,0.0,0.0,0.0,0.0,0.0,0.0,0.0,0.0,0.0,0.0,0.0,0.0,0.0,0.0,0.0,0.0,0.0,0.0,0.0,1.0081,0.0,0.0,0.0,0.0,0.0,0.0,0.0,0.0,0.0,0.0,0.0,0.0,0.0,0.0,1.1702,1.3366,1.276,1.2498,0.0,0.0,1.1891,1.1782,1.1332,1.1222,0.0,0.0,0.0,0.0,0.0,0.0,0.0,0.0,0.0,0.0,0.0,0.0,0.0,0.0,0.0,0.0,0.0,0.0,0.0,0.0,0.0,0.0,0.0,0.0,0.0,0.0,0.0,0.0,0.0,0.0,0.0,0.0,0.0,0.0,0.0,0.0,0.0,0.0,0.0,0.0,0.0,0.0,0.0,0.0,0.0,0.0,0.0,0.0,0.0,0.0,0.0,0.0,0.0,0.0,0.0,1.947,1.8683,1.8411,1.8745,1.8772,1.8931,1.9224,1.9443,1.9945,0.0,0.0,0.0,0.0,0.0,0.0,0.0,0.0,0.0,0.0,0.0,0.0,0.0,0.0,0.0,0.0,0.0,0.0,0.0,0.0,0.0,0.0,0.0,0.0,0.0,0.0,0.0,0.0,0.0,0.0,0.0,0.0,0.0,0.0,0.0,0.0,0.0,0.0,0.0,0.0,0.0,1.3128,1.5001,1.4757,1.4395,0.0,0.0,1.2427,1.1345,1.0935,1.1003,1.1864,0.0,0.0,0.0,0.0,0.0,0.0,0.0,0.0,0.0,0.0,0.0,0.0,0.0,0.0,0.0,0.0,0.0,0.0,0.0,0.0,0.0,0.0,0.0,0.0,0.0,0.0,0.0,0.0,0.0,0.0,0.0,0.0,0.0,0.0,0.0,0.0,0.0,0.0,0.0,0.0,0.0,0.0,0.0,0.0,0.0,0.0,0.0,0.0,0.0,0.0,0.0,0.0,0.0,1.9849,2.0584,1.9293,1.8785,1.908,1.9109,1.918,1.9285,1.9656,2.0194,0.0,0.0,0.0,0.0,0.0,0.0,0.0,0.0,0.0,0.0,0.0,0.0,0.0,0.0,0.0,0.0,0.0,0.0,0.0,0.0,0.0,0.0,0.0,0.0,0.0,0.0,0.0,0.0,1.0584,1.0679,1.1423,0.0,0.0,0.0,0.0,0.0,0.0,0.0,0.0,0.0,0.0,1.4358,1.5768,1.5181,0.0,0.0,1.4685,1.3798,1.3325,1.2832,1.2671,1.3208,1.3119,0.0,0.0,0.0,0.0,0.0,0.0,0.0,0.0,0.0,0.0,0.0,0.0,0.0,0.0,0.0,0.0,0.0,0.0,0.0,0.0,0.0,0.0,0.0,0.0,0.0,0.0,0.0,0.0,0.0,0.0,0.0,0.0,0.0,0.0,0.0,0.0,0.0,0.0,0.0,0.0,0.0,0.0,0.0,0.0,0.0,0.0,0.0,0.0,0.0,0.0,0.0,0.0,2.047,2.1292,1.9742,1.9065,1.9285,1.9285,1.9285,1.9298,1.9674,2.0112,0.0,0.0,0.0,0.0,0.0,0.0,0.0,0.0,0.0,0.0,0.0,0.0,0.0,0.0,0.0,0.0,0.0,0.0,0.0,0.0,0.0,0.0,0.0,0.0,0.0,0.0,0.0,0.0,1.1134,1.1318,1.2062,0.0,0.0,0.0,0.0,0.0,0.0,0.0,0.0,0.0,0.0,1.5475,1.6431,1.6001,1.5781,1.6237,1.5704,1.5154,1.4909,1.4479,1.4294,1.4708,0.0,0.0,0.0,0.0,0.0,0.0,0.0,0.0,0.0,0.0,0.0,0.0,0.0,0.0,0.0,0.0,0.0,0.0,0.0,0.0,0.0,0.0,0.0,0.0,0.0,0.0,0.0,0.0,0.0,0.0,1.8531,0.0,0.0,0.0,0.0,0.0,0.0,0.0,0.0,0.0,0.0,0.0,0.0,0.0,0.0,0.0,0.0,0.0,0.0,0.0,0.0,0.0,0.0,2.1263,2.1279,1.9968,1.927,1.9285,1.9285,1.9285,1.9285,1.9298,1.9571,2.0125,0.0,0.0,0.0,0.0,0.0,0.0,0.0,0.0,0.0,0.0,0.0,0.0,0.0,0.0,0.0,0.0,0.0,0.0,0.0,0.0,0.0,0.0,0.0,0.0,0.0,0.0,1.2301,1.2311,1.24,0.0,0.0,0.0,0.0,0.0,0.0,0.0,0.0,0.0,0.0,1.6112,1.6485,1.7107,1.7608,1.7509,1.6493,1.652,1.6394,1.5659,1.5513,1.5679,0.0,0.0,0.0,0.0,0.0,0.0,0.0,0.0,0.0,0.0,0.0,0.0,0.0,0.0,0.0,0.0,0.0,0.0,0.0,0.0,0.0,0.0,0.0,0.0,0.0,0.0,0.0,1.8527,1.8489,0.0,0.0,0.0,0.0,0.0,0.0,0.0,0.0,0.0,0.0,0.0,1.8233,1.882,0.0,0.0,0.0,0.0,0.0,0.0,0.0,0.0,0.0,0.0,0.0,0.0,2.1382,2.1483,2.0088,1.9285,1.9285,1.9285,1.9285,1.9285,1.9285,1.9545,2.0086,0.0,0.0,0.0,0.0,0.0,0.0,0.0,0.0,0.0,0.0,0.0,0.0,0.0,0.0,0.0,0.0,0.0,0.0,0.0,0.0,0.0,0.0,0.0,0.0,0.0,1.2803,0.0,0.0,0.0,0.0,0.0,0.0,0.0,0.0,0.0,0.0,0.0,1.6286,1.6709,1.7343,1.7849,1.8037,1.8374,1.8412,0.0,0.0,0.0,0.0,0.0,0.0,0.0,0.0,0.0,0.0,0.0,0.0,0.0,0.0,1.6404,1.5216,1.4875,1.4724,1.4655,0.0,0.0,0.0,0.0,0.0,0.0,0.0,0.0,0.0,0.0,0.0,0.0,0.0,0.0,1.8672,0.0,1.8773,0.0,0.0,0.0,0.0,0.0,0.0,0.0,0.0,1.8867,1.8866,1.8615,1.9094,1.9449,0.0,2.0048,2.0496,0.0,0.0,0.0,0.0,0.0,0.0,0.0,0.0,2.1522,2.1636,2.0112,1.9285,1.9285,1.9285,1.9285,1.9285,1.9285,1.9467,1.9802,2.0179,2.0527,0.0,0.0,0.0,0.0,0.0,0.0,0.0,0.0,0.0,0.0,0.0,0.0,0.0,0.0,0.0,0.0,0.0,0.0,0.0,0.0,0.0,0.0,0.0,1.4165,0.0,0.0,0.0,0.0,0.0,0.0,0.0,0.0,0.0,1.6457,1.6932,1.741,1.7623,1.8225,1.8673,1.8781,0.0,0.0,0.0,0.0,0.0,0.0,0.0,1.9522,1.9522,1.9155,1.8753,1.8446,1.8278,1.8043,1.7596,0.0,0.0,1.6636,1.6303,1.628,1.6268,1.615,1.6039,1.5986,1.6472,1.6881,0.0,0.0,0.0,0.0,0.0,0.0,0.0,0.0,1.7957,1.8409,0.0,1.8742,0.0,0.0,0.0,0.0,0.0,1.9767,0.0,0.0,1.8655,1.8565,1.8996,1.9241,1.9403,1.9456,2.0485,2.0994,2.099,2.0509,0.0,0.0,0.0,0.0,0.0,0.0,2.17,2.1598,2.0101,1.9285,1.9285,1.9285,1.9285,1.9285,1.9285,1.9298,1.9311,1.9802,2.0086,2.0125,2.0832,0.0,0.0,0.0,0.0,0.0,0.0,0.0,0.0,0.0,0.0,0.0,0.0,0.0,0.0,0.0,0.0,0.0,0.0,0.0,0.0,1.567,0.0,0.0,0.0,0.0,0.0,0.0,0.0,0.0,0.0,0.0,1.7423,1.7996,1.8536,1.8549,0.0,0.0,0.0,0.0,1.954,1.9808,2.0131,2.0443,2.0687,2.073,2.0744,2.0744,0.0,0.0,1.9518,1.9359,1.9286,1.8997,1.9432,1.9487,1.8401,1.7935,1.7771,1.7757,1.7565,1.7359,1.726,1.7741,1.8122,1.9102,0.0,0.0,0.0,0.0,2.0046,1.9592,1.8203,1.826,1.8392,1.8605,1.8748,0.0,0.0,0.0,0.0,0.0,0.0,1.9669,1.9087,1.9094,1.9006,1.8856,1.8932,1.9103,1.9339,1.966,1.9833,1.9808,1.9653,2.0623,2.2626,0.0,0.0,0.0,0.0,2.142,2.0816,1.9815,1.9285,1.9285,1.9285,1.9285,1.9285,1.9285,1.9285,1.9285,1.9441,1.9698,2.0086,2.0331,0.0,0.0,0.0,0.0,0.0,0.0,0.0,0.0,0.0,0.0,0.0,0.0,0.0,0.0,0.0,0.0,0.0,0.0,0.0,1.6433,1.6976,1.7446,0.0,0.0,0.0,0.0,0.0,0.0,0.0,0.0,0.0,1.8781,1.9137,1.952,0.0,0.0,2.0004,2.0282,2.033,2.0372,2.0496,2.0944,0.0,2.139,2.161,2.1773,2.1758,2.1566,2.1255,2.0736,2.0646,2.0577,2.031,2.0548,2.0611,2.0074,1.9526,1.9234,1.9193,1.9126,1.9071,1.9085,1.9501,1.9893,1.9957,1.9664,2.0659,2.0559,1.9834,2.0652,1.9982,1.8361,1.8373,1.8527,1.8803,1.8694,1.9243,2.0199,2.0236,0.0,0.0,0.0,1.9611,1.8932,1.923,1.9219,1.9005,1.8979,1.9094,1.9285,1.9285,1.9285,1.9285,1.9622,2.0702,2.2431,0.0,0.0,2.2409,2.1985,2.1438,2.0711,2.0251,1.9904,1.9665,1.9639,1.9639,1.9667,1.9652,1.9652,1.9652,1.9652,1.9765,1.9973,2.018,2.0548,0.0,0.0,0.0,0.0,0.0,0.0,0.0,0.0,0.0,0.0,0.0,1.7634,0.0,0.0,0.0,0.0,1.7508,1.7563,1.7586,1.8246,0.0,0.0,0.0,0.0,0.0,0.0,0.0,1.9929,1.975,1.9689,1.9902,2.0298,2.044,2.0153,2.0415,2.0759,2.1073,0.0,2.116,2.1315,2.1669,2.189,2.1915,2.2064,2.2184,2.2184,2.2019,2.1839,2.1644,2.1585,2.1543,2.1416,2.1492,2.1538,2.1336,2.0988,2.0658,2.0402,2.0357,2.0353,2.0353,2.0754,2.1101,2.169,2.1762,2.2143,2.1822,2.1059,2.1131,2.0119,1.8439,1.8427,1.8747,1.925,1.8644,1.9112,2.0403,2.0512,0.0,1.9416,1.9803,1.9578,1.8845,1.9166,1.9285,1.9285,1.9285,1.9338,1.9407,1.9368,1.9408,1.9568,2.0214,2.1017,2.1869,2.1002,2.0988,2.1786,2.1853,2.1622,2.107,2.1087,2.0822,2.0292,2.0224,2.0197,2.0197,2.0197,2.021,2.0197,2.021,2.0092,1.9867,2.029,2.0443,2.0232,0.0,0.0,0.0,0.0,0.0,0.0,0.0,0.0,0.0,0.0,0.0,0.0,0.0,0.0,0.0,1.9053,0.0,1.884,1.9322,0.0,0.0,0.0,1.9773,1.9863,1.9839,1.9957,2.021,0.0,0.0,2.0737,2.1321,2.1307,2.0118,2.0714,2.1393,2.173,2.1757,2.1854,2.2123,2.2228,2.2243,2.2286,2.233,2.233,2.233,2.2272,2.2286,2.2256,2.2271,2.2271,2.2198,2.2243,2.2213,2.2184,2.2081,2.2008,2.135,2.1262,2.1277,2.1291,2.1511,2.1701,2.3222,2.3791,2.3889,2.2943,2.1437,2.2215,2.1382,1.9564,1.9528,1.9161,1.858,1.8657,1.9019,1.9627,2.0436,2.0262,1.9358,2.025,2.013,1.9206,1.9268,1.9285,1.9285,1.9285,1.9678,2.0296,1.9889,2.0262,2.129,2.1077,2.131,2.191,2.1297,2.161,2.2844,2.2049,2.1656,2.1777,2.1318,2.1026,2.0863,2.0442,2.0197,2.0197,2.0197,2.0197,2.0197,2.0197,2.0181,2.0121,2.0229,2.0469,2.0851,2.1315,0.0,0.0,0.0,0.0,0.0,0.0,0.0,0.0,0.0,1.9985,1.9905,0.0,1.9736,0.0,2.0021,1.9667,1.8949,1.9181,0.0,0.0,2.0035,2.0154,2.0388,2.0229,2.0238,2.0546,2.0698,2.0845,2.1061,2.1656,2.1889,2.1331,2.1653,2.2067,2.2349,2.2185,2.2182,2.2461,2.2535,2.2593,2.2842,2.2886,2.2901,2.2871,2.2886,2.2886,2.2902,2.2886,2.2828,2.2564,2.249,2.2417,2.2257,2.2184,2.2169,2.2008,2.1964,2.1964,2.195,2.2023,2.2067,2.5603,2.6008,2.6021,2.5373,2.4299,2.3741,2.2574,2.1081,2.1057,2.0723,2.0159,1.9859,1.9839,2.0032,2.0621,2.0585,2.0112,2.1078,2.1066,2.025,2.0153,2.0107,2.0094,1.9816,2.0104,2.0859,2.0539,2.0804,2.1553,2.154,2.1875,2.2603,2.2188,2.2745,2.4101,2.2708,2.1923,2.1828,2.1916,2.1814,2.1537,2.1218,2.1232,2.159,2.1355,2.141,2.184,2.1838,2.1776,2.1651,2.1512,2.1532,2.1717,2.2114,2.236,0.0,0.0,0.0,0.0,0.0,0.0,0.0,0.0,0.0,0.0,0.0,2.0304,2.0204,2.0197,2.0,1.9532,1.9848,2.0169,2.0361,2.0376,2.0443,2.0633,2.063,2.078,2.1101,2.1307,2.1481,2.164,2.2064,2.2298,2.2133,2.2516,2.2757,2.2659,2.27,2.2871,2.3032,2.3163,2.3325,2.3515,2.356,2.3545,2.3545,2.356,2.3501,2.3339,2.3325,2.3207,2.29,2.2842,2.2783,2.2623,2.2593,2.2593,2.2609,2.2609,2.2506,2.2272,2.2286,2.2374,2.795,2.7925,2.7925,2.7912,2.7721,2.5539,2.397,2.2961,2.2979,2.2886,2.2709,2.1799,2.1274,2.1123,2.1235,2.1226,2.1152,2.208,2.2267,2.1796,2.1504,2.1391,2.1364,2.0713,2.077,2.1372,2.1363,2.1451,2.1674,2.2128,2.2838,2.3673,2.3454,2.4017,2.5224,2.3664,2.2563,2.2047,2.2934,2.3135,2.2623,2.2579,2.2963,2.3652,2.3229,2.3313,2.4062,2.4054,2.3905,2.3626,2.3285,2.296,2.263,2.3124,2.3124,0.0,2.3233,0.0,0.0,0.0,0.0,0.0,0.0,0.0,0.0,2.0666,2.0469,1.9876,2.0119,2.0299,2.02,2.067,2.0893,2.071,2.0684,2.0736,2.0881,2.1145,2.1437,2.1745,2.2052,2.2257,2.2242,2.252,2.2739,2.2782,2.3236,2.3429,2.3003,2.3281,2.3618,2.3678,2.3896,2.3985,2.4029,2.4073,2.4073,2.4073,2.4044,2.4,2.3722,2.3678,2.3559,2.331,2.3251,2.3236,2.3237,2.3237,2.3222,2.3237,2.3237,2.3062,2.2623,2.2607,2.2754,2.8353,2.8144,2.8144,2.8064,2.7862,2.7379,2.6536,2.5505,2.5505,2.5012,2.4202,2.3995,2.3243,2.2223,2.3024,2.2945,2.217,2.3201,2.3782,2.3974,2.3236,2.2888,2.2835,2.2036,2.213,2.2906,2.2797,2.3363,2.4589,2.4492,2.4772,2.5402,2.4907,2.4783,2.5038,0.0,0.0,0.0,2.5079,2.5372,2.5271,2.5268,2.5338,2.5511,2.541,0.0,2.5266,2.4965,2.4803,2.476,2.4155,0.0,0.0,0.0,0.0,0.0,0.0,0.0,0.0,0.0,0.0,0.0,2.2084,2.162,2.0723,2.1093,2.114,2.0511,2.0793,2.0786,2.0246,2.0303,2.0553,2.1025,2.107,2.1319,2.1847,2.1964,2.2038,2.2096,2.2359,2.252,2.2564,2.3032,2.3398,2.3413,2.3765,2.3941,2.3839,2.391,2.3984,2.4014,2.4101,2.4117,2.4118,2.4148,2.4177,2.4118,2.4118,2.4088,2.4029,2.4014,2.4,2.3883,2.3896,2.3897,2.3897,2.3912,2.3883,2.3912,2.3896,2.3795,2.3429,2.3369,2.3486,2.9201,0.0,2.9098,2.9021,0.0,2.8939,2.8623,2.802,2.7347,2.6743,2.6192,2.5633,2.4972,2.4324,2.4829,2.4795,2.4337,2.5321,2.5721,2.5617,2.5344,2.5212,2.5202,2.4186,2.4122,2.4842,2.4305,2.4431,2.5192,2.5377,2.5608,2.5914,2.5792,2.573,2.5761,2.5946,2.5698,2.4994,2.5621,2.5795,2.5502,2.5502,2.5734,2.6169,2.5908,0.0,0.0,0.0,0.0,0.0,0.0,0.0,0.0,0.0,0.0,2.2585,2.2853,2.2865,2.2584,2.2442,2.2153,2.1704,2.152,2.1282,2.0907,2.0906,2.0756,2.0472,2.0886,2.1065,2.075,2.0984,2.1335,2.1642,2.1686,2.1832,2.214,2.2315,2.2403,2.2447,2.2813,2.3106,2.3106,2.3515,2.3808,2.3868,2.4148,2.4412,2.4527,2.4456,2.4397,2.4558,2.4585,2.4602,2.4585,2.4602,2.4602,2.4602,2.4587,2.4529,2.4382,2.4368,2.4293,2.4146,2.4118,2.4118,2.4118,2.4118,2.4146,2.4293,2.4337,2.4424,2.4452,2.4174,2.3897,3.0243,3.0256,3.0256,3.0243,3.0256,3.0243,3.0243,3.0167,0.0,0.0,0.0,2.7375,2.6865,2.6612,2.6688,2.674,2.6772,2.7524,2.7758,2.7552,2.764,2.7716,2.7665,2.6576,2.635,2.6767,2.609,2.5676,2.553,2.6097,2.6262,2.6165,2.6454,2.6623,2.6625,2.6934,2.654,2.5475,2.597,2.6043,2.5543,2.5646,2.607,2.6841,2.6379,2.6379,2.6885,2.6959,2.6699,2.6055,2.5681,2.509,2.4169,2.372,2.3302,2.2902,2.2871,2.2641,2.2156,2.2127,2.1792,2.1027,2.0955,2.1053,2.1291,2.0787,2.0488,2.056,2.1072,2.1379,2.1379,2.1862,2.2228,2.2272,2.2272,2.2286,2.2448,2.2637,2.2827,2.2915,2.3354,2.3692,2.3676,2.397,2.4236,2.4293,2.4571,2.4878,2.5144,2.5039,2.4998,2.5203,2.5244,2.5244,2.5261,2.5244,2.5244,2.5244,2.5261,2.5159,2.4922,2.4849,2.4732,2.46,2.4454,2.4498,2.4468,2.4527,2.4525,2.4807,2.4849,2.4979,2.5388,2.4976,2.4512,3.1201,3.1188,3.1201,3.1222,3.1188,3.1208,3.1201,3.1126,3.0135,2.9691,2.9711,2.9971,2.936,2.8193,2.86,2.8787,2.8787,2.8901,2.9603,3.0676,3.0009,2.9709,2.9639,2.877,2.838,2.8474,2.8612,2.8271,2.7609,2.7916,2.7738,2.7024,2.6985,2.7017,2.7017,2.7054,2.7006,2.6813,2.7397,2.7681,2.7589,2.8158,2.8499,2.8618,2.8511,2.811,2.7422,2.7611,2.7443,2.6848,2.6247,2.5616,2.4956,2.4075,2.3202,2.2394,2.232,2.2275,2.2186,2.2186,2.2127,2.1994,2.1994,2.1891,2.1642,2.1554,2.1613,2.1862,2.1979,2.2067,2.2067,2.217,2.2345,2.252,2.2549,2.2754,2.3281,2.3413,2.353,2.3779,2.394,2.4044,2.4088,2.4368,2.4673,2.4924,2.5215,2.5505,2.5737,2.5824,2.581,2.5871,2.5868,2.5868,2.5813,2.5871,2.581,2.5871,2.5842,2.5783,2.571,2.5681,2.5666,2.571,2.5591,2.5637,2.5634,2.5722,2.5681,2.5725,2.574,2.581,2.5939,2.5781,2.5696,3.1408,3.1408,3.1408,3.1408,3.1408,3.1408,3.1408,3.1353,3.0953,3.0766,3.0774,3.0981,3.0724,3.0117,3.0304,3.0404,3.0404,3.0404,3.0749,3.1361,3.1208,3.1143,3.1066,3.0463,3.0163,3.0139,2.9781,2.9396,2.9049,2.9172,2.8873,2.8157,2.7847,2.7705,2.7705,2.7705,2.7688,2.7688,2.7583,2.7494,2.7526,2.7812,2.7977,2.7977,2.7977,2.7764,2.7313,2.7412,2.7185,2.6537,2.5873,2.5148,2.4338,2.3839,2.3188,2.2288,2.2513,2.2543,2.2214,2.2184,2.2184,2.2184,2.2184,2.2213,2.2198,2.2052,2.2052,2.2199,2.233,2.2403,2.2432,2.2579,2.2798,2.312,2.3134,2.334,2.3749,2.3883,2.3927,2.4102,2.4441,2.4646,2.4646,2.5054,2.5388,2.5593,2.5857,2.6088,2.6266,2.6427,2.6413,2.6088,2.6,2.6,2.6,2.6,2.6,2.6,2.6,2.6,2.6,2.6,2.6,2.6,2.6,2.6,2.6015,2.6,2.6076,2.6266,2.6263,2.6307,2.6453,2.6544,2.6409,3.1705,3.1705,3.1685,3.1685,3.1705,3.1671,3.1685,3.1705,3.1692,3.1705,3.1685,3.1581,3.1526,3.154,3.1643,3.1692,3.1692,3.1671,3.1692,3.1712,3.2029,3.2146,3.2131,3.1784,3.1623,3.1551,3.0976,3.0576,3.0389,3.023,2.971,2.8883,2.8409,2.8186,2.8186,2.8186,2.8186,2.8167,2.7652,2.736,2.7345,2.736,2.736,2.736,2.736,2.7284,2.7144,2.7251,2.7003,2.6245,2.5708,2.504,2.4236,2.4023,2.3551,2.2796,2.3067,2.3052,2.2479,2.2404,2.2404,2.2404,2.2477,2.2609,2.2768,2.271,2.255,2.2447,2.2681,2.2857,2.2885,2.3119,2.3427,2.3692,2.3722,2.3839,2.4146,2.4278,2.4351,2.4452,2.4954,2.5288,2.5376,2.571,2.5985,2.612,2.6413,2.6603,2.6647,2.687,2.6735,2.6427,2.6237,2.6266,2.6219,2.6234,2.6266,2.6237,2.6249,2.6278,2.6263,2.6249,2.6252,2.6281,2.6266,2.6296,2.6252,2.6249,2.6351,2.6559,2.6603,2.6691,2.6899,2.6958,2.6837,3.2553,3.2574,3.2533,3.2588,3.2533,3.2553,3.2533,3.2553,3.2574,3.2574,3.2491,3.214,3.194,3.2002,3.2367,3.2533,3.2533,3.2574,3.2567,3.2533,3.263,3.265,3.2636,3.2598,3.2584,3.2623,3.2836,3.2518,3.1796,3.127,3.0103,2.8464,2.8217,2.8267,2.8234,2.8236,2.8203,2.8186,2.8133,2.8116,2.8116,2.8116,2.81,2.8083,2.8099,2.7816,2.726,2.7769,2.7632,2.6674,2.6501,2.629,2.5854,2.5301,2.4656,2.3993,2.3978,2.37,2.3111,2.3002,2.3032,2.3047,2.3281,2.3442,2.3501,2.372,2.3647,2.3223,2.331,2.3471,2.353,2.3764,2.3985,2.4073,2.4104,2.4192,2.4558,2.4822,2.5115,2.5339,2.5634,2.593,2.5915,2.6,2.6146,2.6427,2.6705,2.6914,2.6914,2.6958,2.7002,2.6914,2.6899,2.6884,2.6837,2.6914,2.6826,2.6855,2.6899,2.6822,2.6793,2.6808,2.6899,2.6723,2.6822,2.6808,2.6822,2.6914,2.6866,2.6855,2.6899,2.6958,2.7002,2.7016,2.6928,3.2684,3.2684,3.2684,3.2684,3.2684,3.2684,3.2684,3.2684,3.2684,3.2684,3.2663,3.2491,3.2408,3.2429,3.2601,3.2684,3.2684,3.2684,3.2684,3.2719,3.2981,3.312,3.3141,3.341,3.3528,3.3534,3.3714,3.362,3.3207,3.2635,3.193,3.1096,3.0248,2.9736,2.9704,2.916,2.8854,2.8838,2.9093,2.9196,2.9144,2.8528,2.8186,2.8186,2.8186,2.8091,2.7854,2.806,2.7991,2.754,2.7162,2.6892,2.6774,2.6492,2.6053,2.5407,2.4965,2.4632,2.4378,2.3962,2.3707,2.3676,2.3808,2.3897,2.3881,2.4013,2.397,2.3764,2.3808,2.3897,2.3927,2.4029,2.4234,2.4587,2.469,2.4864,2.5391,2.5552,2.5696,2.581,2.6088,2.6292,2.6339,2.6471,2.6632,2.6778,2.6925,2.7002,2.7016,2.7016,2.7016,2.7016,2.7016,2.7016,2.7016,2.7016,2.7016,2.7016,2.7016,2.7016,2.7016,2.7016,2.7002,2.7016,2.7016,2.7016,2.6972,2.7016,2.7016,2.7016,2.7016,2.7016,2.7016,2.7016,2.7016,3.2684,3.2684,3.2684,3.2684,3.2684,3.2684,3.2684,3.2684,3.2684,3.276,3.2878,3.2899,3.2961,3.3043,3.2822,3.276,3.2878,3.2899,3.2981,3.3105,3.3445,3.3584,3.3646,3.3936,3.4087,3.4123,3.4241,3.4216,3.3998,3.3422,3.298,3.2551,3.1342,3.0711,3.0613,2.9921,2.9591,2.9625,2.9881,3.0052,2.9932,2.923,2.8802,2.8802,2.8716,2.8665,2.8648,2.8547,2.846,2.8341,2.7895,2.7574,2.749,2.7458,2.7172,2.6488,2.5671,2.5204,2.5204,2.4509,2.4118,2.4102,2.4175,2.425,2.4263,2.4395,2.4481,2.4496,2.4554,2.4615,2.438,2.4423,2.4747,2.5259,2.5347,2.5535,2.593,2.6058,2.6135,2.6161,2.6442,2.6632,2.6679,2.684,2.6972,2.6987,2.7002,2.7016,2.7016,2.7016,2.7016,2.7016,2.7016,2.7016,2.7016,2.7016,2.7016,2.7016,2.7016,2.7016,2.7016,2.7016,2.7016,2.7016,2.7016,2.7016,2.7016,2.7016,2.7016,2.7016,2.7016,2.7016,2.7016,2.7016,2.7016,3.2684,3.2684,3.2684,3.2684,3.2684,3.2704,3.2704,3.2739,3.2725,3.2981,3.3341,3.3377,3.3625,3.3901,3.3161,3.2961,3.3321,3.3362,3.3569,3.3936,3.4025,3.406,3.4081,3.4102,3.4123,3.4247,3.464,3.457,3.4039,3.337,3.2432,3.1649,3.1027,3.053,3.058,3.0427,3.0327,3.0275,3.0344,3.0378,3.0395,3.0326,3.0258,3.0224,2.9984,2.9761,2.9744,2.9453,2.9128,2.8817,2.8737,2.8566,2.8224,2.8173,2.7889,2.7174,2.5992,2.5268,2.5218,2.4648,2.4208,2.419,2.4483,2.4617,2.4705,2.5081,2.5342,2.5398,2.5605,2.5579,2.5186,2.5227,2.5503,2.5854,2.5959,2.5988,2.6047,2.6322,2.6453,2.653,2.6767,2.6914,2.6939,2.7002,2.7016,2.7016,2.7016,2.7016,2.7016,2.7016,2.7016,2.7016,2.7016,2.7016,2.7016,2.7016,2.7016,2.7016,2.7016,2.7016,2.7016,2.7016,2.7016,2.7016,2.7016,2.7016,2.7016,2.7016,2.7016,2.7016,2.7016,2.7016,2.7016,2.7016,2.7016,3.2684,3.2684,3.2684,3.2684,3.2739,3.3016,3.3155,3.3182,3.3486,3.3687,3.3832,3.3853,3.3936,3.4081,3.3756,3.3687,3.3832,3.3838,3.3936,3.4123,3.4392,3.4537,3.4578,3.4812,3.4941,3.5004,3.5397,3.568,3.5742,3.5513,3.5235,3.4635,3.3225,3.2469,3.2218,3.1056,3.0395,3.0429,3.0652,3.0789,3.0806,3.1028,3.1166,3.1149,3.0549,3.0224,3.0207,3.0087,2.9933,2.983,2.9624,2.9436,2.9282,2.9042,2.8808,2.8517,2.7687,2.6983,2.6506,2.5996,2.5465,2.5088,2.5315,2.5461,2.552,2.5693,2.5824,2.5836,2.5912,2.5944,2.5988,2.5915,2.5939,2.6234,2.6325,2.6413,2.6603,2.6749,2.6822,2.6855,2.6958,2.7002,2.7016,2.7016,2.7016,2.7016,2.7016,2.7016,2.7016,2.7016,2.7016,2.7016,2.7016,2.7016,2.7016,2.7016,2.7016,2.7016,2.7016,2.7016,2.7016,2.7016,2.7016,2.7016,2.7016,2.7016,2.7016,2.7016,2.7016,2.7016,2.7016,2.7016,2.7016,2.7016,2.7016,3.2795,3.2919,3.2919,3.3008,3.3182,3.3486,3.3625,3.3667,3.3957,3.4185,3.4288,3.433,3.4392,3.4501,3.4507,3.4522,3.4501,3.4392,3.4392,3.4543,3.4853,3.4993,3.506,3.5423,3.563,3.5692,3.6106,3.6499,3.672,3.6573,3.6493,3.6278,3.4788,3.4015,3.3696,3.2192,3.1287,3.1322,3.1236,3.12,3.1234,3.1457,3.1577,3.1526,3.1063,3.072,3.06,3.0463,3.0395,3.0361,3.0189,3.0069,3.0035,2.9813,2.9659,2.9593,2.9027,2.8324,2.7584,2.7058,2.6461,2.5765,2.5854,2.6,2.6,2.612,2.6146,2.6193,2.6296,2.6442,2.6559,2.6457,2.6427,2.6617,2.6661,2.6735,2.6954,2.7002,2.7002,2.6987,2.7002,2.7016,2.7016,2.7016,2.7016,2.7016,2.7016,2.7016,2.7016,2.7016,2.7016,2.7016,2.7016,2.7016,2.7016,2.7016,2.7016,2.7016,2.7016,2.7016,2.7016,2.7016,2.7016,2.7016,2.7016,2.7016,2.7016,2.7016,2.7016,2.7016,2.7016,2.7016,2.7016,2.7016,2.706,3.3002,3.3383,3.3418,3.3611,3.3957,3.406,3.4102,3.4123,3.4179,3.4454,3.4765,3.4801,3.4957,3.5257,3.5237,3.534,3.5231,3.4977,3.5019,3.5257,3.5366,3.5438,3.5443,3.5894,3.6147,3.6188,3.6597,3.6809,3.6917,3.6464,3.6147,3.5861,3.538,3.4867,3.4861,3.3582,3.3013,3.2699,3.1948,3.156,3.1577,3.1577,3.1577,3.1577,3.1508,3.1337,3.1011,3.0669,3.0515,3.0498,3.0429,3.0395,3.0361,3.0309,3.0344,3.0242,2.9748,2.9045,2.8289,2.7698,2.7085,2.6313,2.61,2.619,2.6193,2.6336,2.65,2.6544,2.6735,2.6972,2.6958,2.6928,2.6914,2.6983,2.6939,2.6954,2.7002,2.7016,2.7016,2.7016,2.7016,2.7016,2.7016,2.7016,2.7016,2.7016,2.7016,2.7016,2.7016,2.7016,2.7016,2.7016,2.7016,2.7016,2.7016,2.7016,2.7016,2.7016,2.7016,2.7016,2.7016,2.7016,2.7016,2.7016,2.7016,2.7016,2.7016,2.7016,2.7016,2.7016,2.7016,2.7089,2.7133,2.7177,2.7174,3.377,3.3874,3.3874,3.3957,3.4143,3.4448,3.4593,3.4599,3.4874,3.5086,3.519,3.5211,3.5278,3.5366,3.5402,3.5423,3.5423,3.5562,3.5604,3.549,3.5733,3.5878,3.5961,3.6354,3.6763,3.7032,3.7198,3.7446,3.7649,3.7496,3.7445,3.7286,3.6456,3.5617,3.4899,3.3779,3.2893,3.214,3.1771,3.1595,3.1577,3.1577,3.1577,3.1577,3.1577,3.1526,3.1406,3.1286,3.1234,3.1183,3.0943,3.0686,3.0463,3.0395,3.0395,3.0378,3.0225,2.9781,2.9162,2.8995,2.8423,2.7466,2.7298,2.7147,2.6763,2.6764,2.6822,2.6837,2.6958,2.7016,2.7016,2.7016,2.7016,2.7016,2.7016,2.7016,2.7016,2.7016,2.7016,2.7016,2.7016,2.7016,2.7016,2.7016,2.7016,2.7016,2.7016,2.7016,2.7016,2.7016,2.7016,2.7016,2.7016,2.7016,2.7016,2.7016,2.7016,2.7016,2.7016,2.7016,2.7016,2.7016,2.7016,2.7089,2.7075,2.7071,2.7075,2.7089,2.7115,2.7163,2.7217,2.7276,2.7353,2.7393,2.7418,3.422,3.435,3.4365,3.4454,3.4605,3.4915,3.5019,3.506,3.5293,3.5402,3.5402,3.5402,3.5402,3.5443,3.5588,3.5671,3.5712,3.6147,3.6188,3.5981,3.6188,3.637,3.6416,3.6846,3.7301,3.7674,3.7757,3.7918,3.8187,3.8208,3.8208,3.8021,3.7465,3.6586,3.548,3.4383,3.3293,3.2316,3.1806,3.1577,3.1577,3.1577,3.1577,3.1577,3.1577,3.1577,3.1577,3.1577,3.1577,3.1543,3.1337,3.1097,3.0874,3.0857,3.084,3.0857,3.0805,3.0529,2.9921,2.991,2.9585,2.8515,2.8167,2.7931,2.7456,2.722,2.7016,2.7016,2.7016,2.7016,2.7016,2.7016,2.7016,2.7016,2.7016,2.7016,2.7016,2.7016,2.7016,2.7016,2.7016,2.7016,2.7016,2.7016,2.7016,2.7016,2.7016,2.7016,2.7016,2.7016,2.7016,2.7016,2.7016,2.7016,2.7016,2.7016,2.7016,2.7016,2.7016,2.7016,2.7016,2.7016,2.6998,2.7261,2.7349,2.7477,2.7492,2.7448,2.7462,2.7481,2.7481,2.7565,2.7652,2.7707,2.7751,3.4433,3.4806,3.4827,3.5019,3.5319,3.5361,3.5361,3.5381,3.5402,3.5402,3.5402,3.5485,3.5469,3.5568,3.594,3.6142,3.6225,3.6639,3.6825,3.6804,3.6892,3.6949,3.7011,3.7363,3.7752,3.8084,3.8129,3.8187,3.8208,3.8208,3.8208,3.8191,3.8075,3.7482,3.618,3.5312,3.4125,3.2841,3.2017,3.1595,3.1577,3.1577,3.1577,3.1577,3.1577,3.1577,3.1577,3.1577,3.1577,3.1577,3.1577,3.1508,3.1543,3.1595,3.1509,3.1474,3.1577,3.1173,3.0642,3.0521,3.0093,2.9216,2.8586,2.8075,2.7837,2.7311,2.7016,2.7016,2.7016,2.7053,2.7107,2.7162,2.7147,2.7093,2.7074,2.7034,2.7016,2.7016,2.7016,2.7016,2.7016,2.7016,2.7016,2.7016,2.7016,2.7016,2.7016,2.7016,2.7016,2.7016,2.7016,2.7016,2.7034,2.7016,2.7016,2.7177,2.7192,2.7221,2.7221,2.7232,2.7188,2.7188,2.7232,2.7462,2.7652,2.7809,2.7819,2.7751,2.7721,2.7721,2.778,2.7878,2.7966,2.8057,2.8131,3.5112,3.5252,3.5252,3.5314,3.5387,3.5402,3.5402,3.5402,3.5402,3.5407,3.5485,3.5775,3.5899,3.5976,3.6395,3.6618,3.6742,3.7094,3.7322,3.7384,3.7711,3.7819,3.7835,3.7939,3.8063,3.8187,3.8208,3.8208,3.8208,3.8208,3.8208,3.8208,3.8191,3.7213,3.5551,3.5053,3.3866,3.2281,3.1806,3.1577,3.1577,3.1577,3.1577,3.1577,3.1577,3.1577,3.1577,3.1577,3.1577,3.1577,3.1577,3.1577,3.1577,3.1577,3.1577,3.1577,3.1577,3.1524,3.133,3.1241,3.0638,2.9477,2.9082,2.8488,2.738,2.7129,2.7016,2.7016,2.7016,2.7256,2.7692,2.7819,2.7819,2.7746,2.7438,2.7107,2.7016,2.7016,2.7016,2.7016,2.7053,2.7144,2.7162,2.7144,2.7144,2.7144,2.7162,2.718,2.7311,2.7274,2.7384,2.7125,2.7053,2.7034,2.7075,2.7265,2.7382,2.7455,2.751,2.7627,2.7579,2.7565,2.7648,2.7809,2.7945,2.8072,2.7966,2.7863,2.7892,2.8043,2.8131,2.8247,2.835,2.8457,2.8574,3.5402,3.5402,3.5402,3.5402,3.5402,3.5402,3.5402,3.5402,3.5402,3.5511,3.5733,3.5976,3.6209,3.6432,3.6887,3.7094,3.7156,3.7587,3.7794,3.7835,3.8042,3.8167,3.8187,3.8208,3.8208,3.8208,3.8208,3.8208,3.8208,3.8208,3.8208,3.8208,3.8208,3.7062,3.5106,3.4866,3.3796,3.2017,3.1577,3.1577,3.1577,3.1577,3.1577,3.1577,3.1577,3.1577,3.1577,3.1577,3.1577,3.1577,3.1577,3.1577,3.1577,3.1577,3.1577,3.1577,3.1577,3.1577,3.1577,3.1577,3.1029,2.9997,2.9533,2.8902,2.8145,2.771,2.7511,2.7982,2.7964,2.8181,2.8473,2.8599,2.8599,2.8578,2.8217,2.7692,2.7129,2.7311,2.7438,2.7529,2.7746,2.7964,2.7946,2.7928,2.7928,2.8,2.8109,2.8109,2.8091,2.7946,2.7888,2.781,2.7952,2.8191,2.8206,2.8347,2.8376,2.8361,2.8079,2.814,2.8039,2.802,2.8028,2.8131,2.8233,2.831,2.8233,2.8233,2.8384,2.8501,2.8559,2.8588,2.8661,2.8661,2.8827,3.5402,3.5402,3.5402,3.5402,3.5402,3.5402,3.5449,3.5485,3.5526,3.5754,3.6126,3.623,3.6577,3.6924,3.7359,3.757,3.7591,3.796,3.8104,3.8146,3.8208,3.8208,3.8208,3.8208,3.8208,3.8208,3.8208,3.8208,3.8208,3.8208,3.8208,3.8208,3.8208,3.6994,3.5346,3.4901,3.3692,3.2,3.1577,3.1577,3.1577,3.1577,3.1577,3.1577,3.1577,3.1577,3.1577,3.1577,3.1577,3.1577,3.1577,3.1577,3.1577,3.1577,3.1577,3.1577,3.1577,3.1577,3.1577,3.1559,3.1259,3.0409,2.9747,2.9352,2.9064,2.8545,2.847,2.8974,2.928,2.9208,2.9354,2.9389,2.9389,2.9354,2.93,2.8578,2.7765,2.7837,2.822,2.8271,2.8884,2.9208,2.9298,2.9298,2.9226,2.8668,2.8776,2.8758,2.8805,2.8813,2.8883,2.8989,2.927,2.9689,2.9613,2.9545,2.9542,2.9471,2.8987,2.8805,2.8606,2.8544,2.8475,2.8486,2.8544,2.8637,2.871,2.8769,2.8817,2.8798,2.8754,2.8812,2.8871,2.8827,2.8886,3.5402,3.5402,3.5402,3.5402,3.5402,3.5423,3.563,3.594,3.594,3.6225,3.666,3.7011,3.7218,3.738,3.7815,3.8042,3.8005,3.8146,3.8208,3.8208,3.8208,3.8208,3.8208,3.8208,3.8208,3.8208,3.8208,3.8208,3.8208,3.8208,3.8208,3.8208,3.8091,3.7112,3.5295,3.4883,3.3813,3.2,3.1595,3.1577,3.1577,3.1577,3.1577,3.1577,3.1577,3.1577,3.1577,3.1577,3.1577,3.1577,3.1577,3.1577,3.1577,3.1577,3.1577,3.1577,3.1577,3.1577,3.1577,3.1542,3.1259,3.0515,3.0195,2.991,2.9334,2.9192,2.9118,2.9316,2.9316,2.9658,3.0087,3.0159,3.0177,3.0088,2.9729,2.9298,2.892,2.8938,2.9028,2.91,2.9244,2.9334,2.9369,2.9477,2.9459,2.9352,2.9369,2.9334,2.9501,2.9737,2.9944,3.0155,3.0496,3.0831,3.078,3.0657,3.0523,3.0268,2.9751,2.9411,2.9209,2.8882,2.8724,2.8739,2.8832,2.8905,2.8905,2.8905,2.8856,2.889,2.8886,2.8886,2.8886,2.8886,2.8886,3.5402,3.5402,3.5402,3.5402,3.5443,3.563,3.5878,3.6106,3.6333,3.6701,3.7094,3.7405,3.7612,3.7835,3.8084,3.8187,3.8208,3.8208,3.8208,3.8208,3.8208,3.8208,3.8208,3.8208,3.8208,3.8208,3.8208,3.8208,3.8208,3.8208,3.8208,3.8208,3.8208,3.7348,3.5755,3.5122,3.4039,3.2613,3.1824,3.1577,3.1577,3.1577,3.1577,3.1577,3.1577,3.1577,3.1577,3.1577,3.1577,3.1577,3.1577,3.1577,3.1577,3.1577,3.1577,3.1577,3.1577,3.1577,3.1577,3.1542,3.1259,3.0498,3.0392,3.0213,2.9926,2.9819,3.0051,3.0265,3.0425,3.0585,3.0922,3.0959,3.0959,3.0906,3.0621,3.0354,3.0318,3.0069,2.9819,2.9908,3.0194,3.039,3.0407,3.0192,3.0317,3.0496,3.0565,3.0564,3.0883,3.1087,3.1199,3.142,3.1714,3.189,3.1882,3.1726,3.1492,3.1001,3.0315,2.9995,2.9756,2.9337,2.8876,2.8905,2.8905,2.8905,2.8886,2.8886,2.8886,2.8886,2.8886,2.8886,2.8886,2.8886,2.8886,3.5402,3.5402,3.5402,3.5402,3.5485,3.5862,3.6147,3.6308,3.6701,3.7177,3.7529,3.7591,3.7856,3.8109,3.8187,3.8208,3.8208,3.8208,3.8208,3.8208,3.8208,3.8208,3.8208,3.8208,3.8208,3.8208,3.8208,3.8208,3.8208,3.8208,3.8208,3.8208,3.8208,3.7502,3.6468,3.5395,3.428,3.3084,3.207,3.1577,3.1577,3.1577,3.1577,3.1577,3.1577,3.1577,3.1577,3.1577,3.1577,3.1577,3.1577,3.1577,3.1577,3.1577,3.1577,3.1577,3.1577,3.1577,3.1577,3.1559,3.1294,3.0604,3.0622,3.0622,3.0586,3.0604,3.0869,3.1206,3.1383,3.1383,3.1577,3.1489,3.1506,3.1524,3.1559,3.1577,3.1471,3.0959,3.0657,3.0657,3.0887,3.11,3.1241,3.1188,3.1436,3.1594,3.1628,3.1748,3.2022,3.2276,3.2262,3.2391,3.2617,3.2763,3.2755,3.2697,3.2467,3.2002,3.1171,3.0747,3.0419,2.9838,2.9372,2.8964,2.8905,2.8886,2.8886,2.8886,2.8886,2.8886,2.8886,2.8886,2.8886,2.8886,2.8886,3.5402,3.5402,3.5402,3.5402,3.5485,3.5899,3.6333,3.6722,3.7177,3.7649,3.8042,3.8084,3.8104,3.8187,3.8208,3.8208,3.8208,3.8208,3.8208,3.8208,3.8208,3.8208,3.8208,3.8208,3.8208,3.8208,3.8208,3.8208,3.8208,3.8208,3.8208,3.8208,3.8208,3.7636,3.662,3.5465,3.4487,3.3449,3.2333,3.1788,3.1595,3.1577,3.1577,3.1577,3.1577,3.1577,3.1577,3.1577,3.1577,3.1577,3.1577,3.1577,3.1577,3.1577,3.1577,3.1577,3.1577,3.1577,3.1577,3.1577,3.1542,3.1418,3.133,3.133,3.1347,3.1347,3.1383,3.1471,3.1577,3.1577,3.1577,3.1577,3.1577,3.1577,3.1577,3.1577,3.1542,3.1418,3.1277,3.1259,3.1471,3.1577,3.1577,3.1611,3.1645,3.1731,3.1815,3.2022,3.2296,3.2689,3.2994,3.3179,3.3401,3.3517,3.3581,3.3545,3.3384,3.3063,3.2413,3.1705,3.1209,3.0438,2.9897,2.9411,2.9022,2.8886,2.8886,2.8886,2.8886,2.8886,2.8886,2.8886,2.8886,2.8886,2.8886,3.5402,3.5402,3.5402,3.5547,3.5816,3.625,3.6742,3.7198,3.767,3.7964,3.8146,3.8208,3.8208,3.8208,3.8208,3.8208,3.8208,3.8208,3.8208,3.8208,3.8208,3.8208,3.8208,3.8208,3.8208,3.8208,3.8208,3.8208,3.8208,3.8208,3.8208,3.8208,3.8208,3.7904,3.7264,3.6333,3.5173,3.4073,3.3015,3.2088,3.1665,3.1577,3.1577,3.1577,3.1577,3.1577,3.1577,3.1577,3.1577,3.1577,3.1577,3.1577,3.1577,3.1577,3.1577,3.1577,3.1577,3.1577,3.1577,3.1577,3.1577,3.1577,3.1577,3.1577,3.1577,3.1559,3.163,3.1595,3.1577,3.1577,3.1577,3.1577,3.1577,3.1577,3.1577,3.1577,3.1577,3.1577,3.1577,3.1577,3.1577,3.1577,3.1577,3.1628,3.1715,3.1833,3.1986,3.2277,3.2587,3.2981,3.3393,3.3546,3.3681,3.3732,3.3799,3.3799,3.3818,3.3628,3.3306,3.2604,3.184,3.0959,3.0303,2.9761,2.9431,2.8925,2.8886,2.8886,2.8886,2.8886,2.8886,2.8886,2.8886,2.8886,2.8886,3.5402,3.5402,3.5402,3.5671,3.6126,3.6597,3.7069,3.7529,3.7964,3.8187,3.8208,3.8208,3.8208,3.8208,3.8208,3.8208,3.8208,3.8208,3.8208,3.8208,3.8208,3.8208,3.8208,3.8208,3.8208,3.8208,3.8208,3.8208,3.8208,3.8208,3.8208,3.8208,3.8208,3.8208,3.7887,3.6893,3.6027,3.5139,3.3831,3.2666,3.1859,3.1577,3.1577,3.1577,3.1577,3.1577,3.1577,3.1577,3.1577,3.1577,3.1577,3.1577,3.1577,3.1577,3.1577,3.1577,3.1577,3.1577,3.1577,3.1577,3.1577,3.1577,3.1577,3.1577,3.1718,3.1824,3.1894,3.1683,3.1912,3.1806,3.1683,3.1577,3.1577,3.1577,3.1577,3.1577,3.1577,3.1577,3.1577,3.1577,3.1577,3.1612,3.1612,3.1611,3.1715,3.2004,3.2174,3.2604,3.2913,3.322,3.3546,3.3681,3.3801,3.3801,3.3799,3.3799,3.3818,3.3742,3.3477,3.2966,3.2203,3.1382,3.0767,3.0125,2.9333,2.8886,2.8886,2.8886,2.8886,2.8886,2.8886,2.8886,2.8886,2.8886,2.8886,3.5402,3.5402,3.5423,3.5671,3.6147,3.6623,3.7074,3.755,3.8022,3.8187,3.8208,3.8208,3.8208,3.8208,3.8208,3.8208,3.8208,3.8208,3.8208,3.8208,3.8208,3.8208,3.8208,3.8208,3.8208,3.8208,3.8208,3.8208,3.8208,3.8208,3.8208,3.8208,3.8208,3.8208,3.8091,3.7264,3.6465,3.594,3.4245,3.2701,3.1806,3.1577,3.1577,3.1577,3.1577,3.1577,3.1577,3.1577,3.1577,3.1577,3.1577,3.1577,3.1577,3.1577,3.1577,3.1577,3.1577,3.1577,3.1577,3.1577,3.1577,3.1577,3.1577,3.1577,3.1736,3.2211,3.2333,3.1683,3.2281,3.2368,3.1753,3.1595,3.1577,3.1577,3.1577,3.1577,3.1577,3.1577,3.1577,3.1577,3.1577,3.1629,3.1663,3.168,3.1714,3.2056,3.2414,3.2845,3.3205,3.3477,3.363,3.3766,3.3818,3.3818,3.3818,3.3818,3.3818,3.3818,3.3609,3.3306,3.2719,3.1974,3.109,3.0396,2.9586,2.8964,2.8886,2.8886,2.8886,2.8886,2.8886,2.8886,2.8886,2.8886,2.8886,3.5402,3.5423,3.5671,3.6064,3.6535,3.6991,3.7446,3.7877,3.8104,3.8208,3.8208,3.8208,3.8208,3.8208,3.8208,3.8208,3.8208,3.8208,3.8208,3.8208,3.8208,3.8208,3.8208,3.8208,3.8208,3.8208,3.8208,3.8208,3.8208,3.8208,3.8208,3.8208,3.8208,3.8208,3.8208,3.7737,3.7092,3.6076,3.4418,3.2736,3.1876,3.1595,3.1577,3.1577,3.1577,3.1577,3.1577,3.1577,3.1577,3.1577,3.1577,3.1577,3.1577,3.1577,3.1577,3.1577,3.1577,3.1577,3.1577,3.1595,3.1577,3.1577,3.1577,3.1577,3.17,3.2017,3.2263,3.1683,3.1982,3.2,3.1753,3.1595,3.1577,3.1577,3.1577,3.1577,3.1577,3.1577,3.1577,3.1577,3.1611,3.1731,3.1868,3.1988,3.2125,3.2434,3.2775,3.3135,3.3426,3.3628,3.3748,3.3801,3.3818,3.3818,3.3818,3.3818,3.3818,3.3818,3.3799,3.3534,3.3306,3.2604,3.1667,3.0898,3.0206,2.9644,2.9119,2.8886,2.8886,2.8886,2.8886,2.8886,2.8886,2.8886,2.9042,3.5568,3.5593,3.5961,3.6416,3.6975,3.7343,3.7773,3.8167,3.8187,3.8208,3.8208,3.8208,3.8208,3.8208,3.8208,3.8208,3.8208,3.8208,3.8208,3.8208,3.8208,3.8208,3.8208,3.8208,3.8208,3.8208,3.8208,3.8208,3.8208,3.8208,3.8208,3.8208,3.8208,3.8208,3.8208,3.8058,3.7603,3.6384,3.4693,3.3241,3.2246,3.1736,3.163,3.1577,3.1577,3.1577,3.1577,3.1577,3.1577,3.1577,3.1577,3.1577,3.1577,3.1577,3.1577,3.1683,3.1859,3.214,3.2035,3.1876,3.1647,3.1577,3.1577,3.1595,3.1665,3.1736,3.1753,3.1665,3.2105,3.1982,3.1665,3.1577,3.1577,3.1577,3.1577,3.1577,3.1594,3.1645,3.1748,3.1816,3.1885,3.2004,3.2159,3.2346,3.257,3.2828,3.3136,3.3426,3.3612,3.3782,3.3799,3.3818,3.3818,3.3818,3.3818,3.3818,3.3818,3.3818,3.3818,3.3742,3.3515,3.2966,3.2127,3.1437,3.0786,2.9877,2.908,2.8983,2.8886,2.8886,2.8886,2.8886,2.8886,2.8886,2.9333,3.6064,3.6059,3.6106,3.6623,3.7425,3.7483,3.7777,3.8187,3.8208,3.8208,3.8208,3.8208,3.8208,3.8208,3.8208,3.8208,3.8208,3.8208,3.8208,3.8208,3.8208,3.8208,3.8208,3.8208,3.8208,3.8208,3.8208,3.8208,3.8208,3.8208,3.8208,3.8208,3.8208,3.8208,3.8208,3.8158,3.7582,3.6553,3.5258,3.4142,3.3015,3.2246,3.1771,3.17,3.163,3.1577,3.1595,3.1612,3.1577,3.1577,3.1577,3.1577,3.1577,3.1577,3.1577,3.1718,3.2438,3.2753,3.2718,3.2386,3.1841,3.1665,3.1683,3.1824,3.1912,3.2596,3.2509,3.1788,3.214,3.2211,3.1876,3.1577,3.1577,3.1611,3.1645,3.1713,3.1748,3.18,3.1902,3.2021,3.2158,3.2313,3.2518,3.2741,3.2826,3.3067,3.3273,3.3563,3.3664,3.3799,3.3799,3.3818,3.3818,3.3818,3.3818,3.3818,3.3818,3.3818,3.3818,3.3818,3.3742,3.3099,3.2623,3.1955,3.1267,3.0148,2.947,2.9998,3.0079,2.9256,2.8886,2.8886,2.8886,2.8886,2.9679,3.6453,3.6949,3.697,3.7156,3.7529,3.7815,3.8042,3.8187,3.8208,3.8208,3.8208,3.8208,3.8208,3.8208,3.8208,3.8208,3.8208,3.8208,3.8208,3.8208,3.8208,3.8208,3.8208,3.8208,3.8208,3.8208,3.8208,3.8208,3.8208,3.8208,3.8208,3.8208,3.8208,3.8208,3.8208,3.8158,3.7532,3.6772,3.5974,3.507,3.3415,3.2928,3.2579,3.2579,3.1788,3.2035,3.2351,3.1894,3.17,3.163,3.1683,3.1683,3.1647,3.1647,3.1577,3.1718,3.2631,3.3154,3.3449,3.338,3.364,3.345,3.3067,3.2491,3.2316,3.2456,3.2123,3.1876,3.1982,3.1982,3.1771,3.1577,3.1594,3.1645,3.1748,3.1867,3.1953,3.2039,3.2211,3.2415,3.2535,3.2638,3.2896,3.3172,3.3205,3.329,3.3477,3.3647,3.3749,3.3818,3.3818,3.3818,3.3818,3.3818,3.3818,3.3818,3.3818,3.3818,3.3818,3.395,3.3988,3.3761,3.323,3.2547,3.2168,3.1692,3.1504,3.1699,3.1239,3.0195,2.9396,2.8886,2.8886,2.9256,3.0268,3.6908,3.7488,3.7653,3.7695,3.7752,3.8063,3.8208,3.8208,3.8208,3.8208,3.8208,3.8208,3.8208,3.8208,3.8208,3.8208,3.8208,3.8208,3.8208,3.8208,3.8208,3.8208,3.8208,3.8208,3.8208,3.8208,3.8208,3.8208,3.8208,3.8208,3.8208,3.8208,3.8208,3.8208,3.8208,3.8158,3.777,3.718,3.6451,3.5923,3.4314,3.3883,3.371,3.3658,3.3102,3.3084,3.3432,3.3207,3.2893,3.2666,3.2456,3.2175,3.2,3.1806,3.163,3.1964,3.2544,3.331,3.3865,3.4297,3.471,3.3952,3.3519,3.3015,3.2631,3.2052,3.1718,3.163,3.1612,3.1594,3.1611,3.168,3.1782,3.1885,3.2159,3.2296,3.233,3.2416,3.2639,3.2845,3.293,3.3016,3.3254,3.3477,3.3477,3.3511,3.3614,3.3732,3.3766,3.3818,3.3818,3.3818,3.3818,3.3818,3.3818,3.3818,3.3818,3.3818,3.3893,3.4233,3.4254,3.4101,3.3971,3.3502,3.3312,3.3388,3.3163,3.2807,3.1969,3.0989,3.0658,3.06,3.1165,3.1702,3.1794,3.7467,3.755,3.7964,3.8167,3.8146,3.8187,3.8208,3.8208,3.8208,3.8208,3.8208,3.8208,3.8208,3.8208,3.8208,3.8208,3.8208,3.8208,3.8208,3.8208,3.8208,3.8208,3.8208,3.8208,3.8208,3.8208,3.8208,3.8208,3.8208,3.8208,3.8208,3.8208,3.8208,3.8208,3.8208,3.8208,3.8175,3.7987,3.7045,3.6536,3.5925,3.519,3.4916,3.4762,3.4435,3.4349,3.4641,3.44,3.4142,3.409,3.352,3.3242,3.3155,3.2421,3.2105,3.2088,3.2945,3.39,3.4813,3.4933,3.4813,3.4297,3.4159,3.3258,3.2193,3.1683,3.1595,3.1577,3.1646,3.1646,3.1731,3.1885,3.2039,3.2192,3.2484,3.2689,3.2742,3.2878,3.31,3.322,3.329,3.3393,3.3631,3.3784,3.3766,3.3784,3.3801,3.3818,3.3818,3.3818,3.3818,3.3818,3.3818,3.3818,3.3818,3.3818,3.3818,3.3818,3.3969,3.4273,3.4574,3.4593,3.4444,3.4371,3.4784,3.5177,3.4448,3.3658,3.3734,3.3943,3.3186,3.3129,3.3698,3.3756,3.3453,3.769,3.7964,3.8146,3.8208,3.8208,3.8208,3.8208,3.8208,3.8208,3.8208,3.8208,3.8208,3.8208,3.8208,3.8208,3.8208,3.8208,3.8208,3.8208,3.8208,3.8208,3.8208,3.8208,3.8208,3.8208,3.8208,3.8208,3.8208,3.8208,3.8208,3.8208,3.8208,3.8208,3.8208,3.8208,3.8208,3.8208,3.8158,3.7737,3.7297,3.657,3.6163,3.5976,3.5942,3.5397,3.538,3.5857,3.5497,3.5226,3.5158,3.4504,3.4349,3.4297,3.3675,3.3676,3.39,3.4744,3.5889,3.6758,3.7112,3.6994,3.6146,3.5019,3.4176,3.378,3.2281,3.1841,3.1733,3.2012,3.2011,3.1987,3.2296,3.2484,3.257,3.281,3.3016,3.3153,3.3356,3.3542,3.3595,3.3647,3.3648,3.3766,3.3818,3.3818,3.3818,3.3818,3.3818,3.3818,3.3818,3.3818,3.3818,3.3818,3.3818,3.3818,3.3818,3.3818,3.3818,3.4007,3.4329,3.4593,3.5063,3.568,3.5978,3.6516,3.6941,3.6442,3.6238,3.7124,3.7253,3.6016,3.4881,3.4769,3.4545,3.4076,3.7918,3.8187,3.8208,3.8208,3.8208,3.8208,3.8208,3.8208,3.8208,3.8208,3.8208,3.8208,3.8208,3.8208,3.8208,3.8208,3.8208,3.8208,3.8208,3.8208,3.8208,3.8208,3.8208,3.8208,3.8208,3.8208,3.8208,3.8208,3.8208,3.8208,3.8208,3.8208,3.8208,3.8208,3.8208,3.8208,3.8208,3.8191,3.7987,3.782,3.7331,3.7095,3.7075,3.6927,3.6637,3.6434,3.6705,3.6485,3.601,3.5908,3.5704,3.55,3.5395,3.5122,3.5004,3.519,3.5889,3.6755,3.7213,3.7937,3.7787,3.7803,3.6384,3.5397,3.4918,3.3641,3.3298,3.309,3.2789,3.2786,3.2906,3.3165,3.2896,3.2982,3.3152,3.3376,3.3477,3.3679,3.3713,3.3782,3.3799,3.3799,3.3818,3.3818,3.3818,3.3818,3.3818,3.3818,3.3818,3.3818,3.3818,3.3818,3.3818,3.3818,3.3818,3.3818,3.3818,3.3818,3.412,3.448,3.5344,3.5941,3.6775,3.7548,3.784,3.8207,3.8646,3.89,3.8809,3.859,3.7986,3.694,3.6072,3.5849,3.5794,3.8208,3.8208,3.8208,3.8208,3.8208,3.8208,3.8208,3.8208,3.8208,3.8208,3.8208,3.8208,3.8208,3.8208,3.8208,3.8208,3.8208,3.8208,3.8208,3.8208,3.8208,3.8208,3.8208,3.8208,3.8208,3.8208,3.8208,3.8208,3.8208,3.8208,3.8208,3.8208,3.8208,3.8208,3.8208,3.8208,3.8208,3.8208,3.8191,3.8091,3.7837,3.7954,3.7887,3.7787,3.7737,3.7703,3.7837,3.7737,3.777,3.7569,3.7095,3.6722,3.6228,3.5549,3.5207,3.538,3.6231,3.6671,3.7062,3.7904,3.8125,3.8108,3.7247,3.6112,3.5297,3.477,3.4542,3.4397,3.4194,3.4216,3.427,3.3789,3.3307,3.3426,3.3561,3.3681,3.3732,3.3782,3.3782,3.3799,3.3799,3.3818,3.3818,3.3818,3.3818,3.3818,3.3818,3.3818,3.3818,3.3818,3.3818,3.3818,3.3818,3.3818,3.3818,3.3818,3.4196,3.4328,3.4441,3.4818,3.5791,3.6978,3.7805,3.8517,3.8917,3.9261,3.9462,3.95,3.9409,3.919,3.8971,3.8699,3.7731,3.8552,3.8806,3.8208,3.8208,3.8208,3.8208,3.8208,3.8208,3.8208,3.8208,3.8208,3.8208,3.8208,3.8208,3.8208,3.8208,3.8208,3.8208,3.8208,3.8208,3.8208,3.8208,3.8208,3.8208,3.8208,3.8208,3.8208,3.8208,3.8208,3.8208,3.8208,3.8208,3.8208,3.8208,3.8208,3.8208,3.8208,3.8208,3.8208,3.8208,3.8208,3.8208,3.8208,3.8208,3.8208,3.8208,3.8208,3.8208,3.8208,3.8208,3.8208,3.8021,3.7887,3.7703,3.7636,3.7381,3.7264,3.7284,3.7619,3.7753,3.777,3.8004,3.8208,3.8208,3.7824,3.718,3.6344,3.5819,3.5704,3.5783,3.5522,3.5389,3.5103,3.4621,3.4108,3.3968,3.3957,3.3784,3.3818,3.3818,3.3818,3.3818,3.3818,3.3818,3.3818,3.3818,3.3818,3.3818,3.3818,3.3818,3.3818,3.3818,3.3818,3.3818,3.3818,3.3818,3.3818,3.3818,3.4405,3.4856,3.4931,3.5586,3.7254,3.8353,3.8971,3.9423,3.9768,3.9948,4.0112,4.0022,3.9806,3.9842,3.9696,3.9644,3.9698,4.0094,4.0382,3.8208,3.8208,3.8208,3.8208,3.8208,3.8208,3.8208,3.8208,3.8208,3.8208,3.8208,3.8208,3.8208,3.8208,3.8208,3.8208,3.8208,3.8208,3.8208,3.8208,3.8208,3.8208,3.8208,3.8208,3.8208,3.8208,3.8208,3.8208,3.8208,3.8208,3.8208,3.8208,3.8208,3.8208,3.8208,3.8208,3.8208,3.8208,3.8208,3.8208,3.8208,3.8208,3.8208,3.8208,3.8208,3.8208,3.8208,3.8208,3.8208,3.8208,3.8208,3.8208,3.8175,3.8158,3.8158,3.8058,3.8091,3.8087,3.8108,3.8141,3.8208,3.8249,3.8336,3.807,3.7709,3.7288,3.746,3.7556,3.6937,3.636,3.5944,3.5517,3.5012,3.4555,3.4197,3.3837,3.3818,3.3818,3.3818,3.3818,3.3818,3.3818,3.3818,3.3818,3.3818,3.3818,3.3818,3.3818,3.3818,3.3818,3.3818,3.3818,3.3818,3.3818,3.3856,3.4082,3.4687,3.5193,3.5325,3.6312,3.8371,3.9261,3.9423,3.9948,4.0561,4.0596,4.0507,4.0328,4.0166,4.0202,4.022,4.0166,4.013,4.0346,4.0525,3.8208,3.8208,3.8208,3.8208,3.8208,3.8208,3.8208,3.8208,3.8208,3.8208,3.8208,3.8208,3.8208,3.8208,3.8208,3.8208,3.8208,3.8208,3.8208,3.8208,3.8208,3.8208,3.8208,3.8208,3.8208,3.8208,3.8208,3.8208,3.8208,3.8208,3.8208,3.8208,3.8208,3.8208,3.8208,3.8208,3.8208,3.8208,3.8208,3.8208,3.8208,3.8208,3.8208,3.8208,3.8208,3.8208,3.8208,3.8208,3.8208,3.8208,3.8208,3.8208,3.8208,3.8208,3.8208,3.8208,3.8208,3.8208,3.8208,3.8208,3.827,3.8398,3.8572,3.8735,3.8606,3.8595,3.8792,3.8831,3.825,3.7892,3.7505,3.622,3.5364,3.5025,3.4706,3.4461,3.4405,3.4196,3.3818,3.3818,3.3818,3.3818,3.3818,3.3818,3.3818,3.3818,3.3818,3.3818,3.3818,3.3818,3.3818,3.3818,3.3818,3.3931,3.4348,3.463,3.5118,3.5474,3.5959,3.7144,3.9243,3.9712,3.9712,4.0254,4.0793,4.0829,4.0775,4.0525,4.0364,4.0453,4.0489,4.0561,4.0632,4.0668,4.0686,3.8208,3.8208,3.8208,3.8208,3.8208,3.8208,3.8208,3.8208,3.8208,3.8208,3.8208,3.8208,3.8208,3.8208,3.8208,3.8208,3.8208,3.8208,3.8208,3.8208,3.8208,3.8208,3.8208,3.8208,3.8208,3.8208,3.8208,3.8208,3.8208,3.8208,3.8208,3.8208,3.8208,3.8208,3.8208,3.8208,3.8208,3.8208,3.8208,3.8208,3.8208,3.8208,3.8208,3.8208,3.8208,3.8208,3.8208,3.8208,3.8208,3.8208,3.8208,3.8208,3.8208,3.8208,3.8208,3.8208,3.8208,3.8208,3.8229,3.827,3.8378,3.8589,3.8861,3.9296,3.9568,3.9751,3.9818,3.9821,3.9688,3.9351,3.8694,3.7162,3.5959,3.5661,3.5193,3.51,3.4968,3.4405,3.3856,3.3818,3.3818,3.3818,3.3818,3.3818,3.3818,3.3818,3.3818,3.3818,3.3818,3.3818,3.3818,3.3818,3.3818,3.4007,3.4593,3.5213,3.5717,3.6867,3.7713,3.8917,4.0144,4.0254,4.0289,4.054,4.0882,4.09,4.0811,4.0543,4.0471,4.0596,4.0614,4.065,4.074,4.0811,4.0847,3.8208,3.8208,3.8208,3.8208,3.8208,3.8208,3.8208,3.8208,3.8208,3.8208,3.8208,3.8208,3.8208,3.8208,3.8208,3.8208,3.8208,3.8208,3.8208,3.8208,3.8208,3.8208,3.8208,3.8208,3.8208,3.8208,3.8208,3.8208,3.8208,3.8208,3.8208,3.8208,3.8208,3.8208,3.8208,3.8208,3.8208,3.8208,3.8208,3.8208,3.8208,3.8208,3.8208,3.8208,3.8208,3.8208,3.8208,3.8208,3.8208,3.8208,3.8208,3.8208,3.8208,3.8208,3.8208,3.8208,3.8208,3.8208,3.8249,3.8378,3.853,3.8762,3.932,3.9833,3.9995,4.0143,4.0427,4.0424,4.0391,4.0108,3.9746,3.8553,3.7933,3.7548,3.6089,3.5137,3.4687,3.4082,3.3818,3.3818,3.3818,3.3818,3.3818,3.3818,3.3818,3.3818,3.3818,3.3818,3.3818,3.3818,3.3818,3.3912,3.3969,3.4405,3.51,3.5754,3.6349,3.7657,3.9207,3.973,4.0343,4.0647,4.09,4.09,4.09,4.09,4.0757,4.0614,4.0632,4.0775,4.074,4.0668,4.0793,4.09,4.09,3.8208,3.8208,3.8208,3.8208,3.8208,3.8208,3.8208,3.8208,3.8208,3.8208,3.8208,3.8208,3.8208,3.8208,3.8208,3.8208,3.8208,3.8208,3.8208,3.8208,3.8208,3.8208,3.8208,3.8208,3.8208,3.8208,3.8208,3.8208,3.8208,3.8208,3.8208,3.8208,3.8208,3.8208,3.8208,3.8208,3.8208,3.8208,3.8208,3.8208,3.8208,3.8208,3.8208,3.8208,3.8208,3.8208,3.8208,3.8208,3.8208,3.8208,3.8208,3.8208,3.8208,3.8208,3.8208,3.8208,3.8208,3.8208,3.827,3.8547,3.8737,3.9072,3.9813,4.0206,4.0347,4.0551,4.0797,4.0862,4.0826,4.0722,4.0361,3.9856,3.9333,3.8862,3.7088,3.5362,3.4706,3.4026,3.3856,3.3837,3.3818,3.3818,3.3818,3.3818,3.3818,3.3818,3.3818,3.3818,3.3818,3.3818,3.3818,3.4064,3.4292,3.4856,3.5754,3.659,3.7309,3.8553,3.9892,4.0218,4.0504,4.0757,4.09,4.09,4.09,4.09,4.09,4.0811,4.0882,4.09,4.0847,4.0775,4.0811,4.09,4.09,3.8208,3.8208,3.8208,3.8208,3.8208,3.8208,3.8208,3.8208,3.8208,3.8208,3.8208,3.8208,3.8208,3.8208,3.8208,3.8208,3.8208,3.8208,3.8208,3.8208,3.8208,3.8208,3.8208,3.8208,3.8208,3.8208,3.8208,3.8208,3.8208,3.8208,3.8208,3.8208,3.8208,3.8208,3.8208,3.8208,3.8208,3.8208,3.8208,3.8208,3.8208,3.8208,3.8208,3.8208,3.8208,3.8208,3.8208,3.8208,3.8208,3.8208,3.8208,3.8208,3.8208,3.8208,3.8208,3.8208,3.8208,3.827,3.8398,3.8696,3.8927,3.9399,4.0019,4.043,4.0554,4.0717,4.0879,4.0879,4.0882,4.0882,4.0522,3.9838,3.9315,3.9297,3.828,3.6627,3.5474,3.4593,3.3988,3.3912,3.3818,3.3818,3.3818,3.3818,3.3818,3.3818,3.3818,3.3818,3.3818,3.3818,3.3837,3.431,3.4724,3.5791,3.6867,3.7805,3.8662,3.9766,4.0469,4.0576,4.0704,4.0811,4.09,4.09,4.09,4.09,4.09,4.09,4.09,4.09,4.09,4.0882,4.09,4.09,4.09]}]]